<?xml version="1.0" encoding="utf-8"?>
<gpx xmlns:xsi="http://www.w3.org/2001/XMLSchema-instance" xmlns:xsd="http://www.w3.org/2001/XMLSchema" version="1.1" creator="Shapelink.com" xmlns="http://www.topografix.com/GPX/1/1" xmlns:gpxtpx="http://www.garmin.com/xmlschemas/TrackPointExtension/v1">
  <metadata>
    <name>Running 30.12 km, 2012-06-17</name>
    <desc></desc>
    <author><name>David Ståhlman</name></author> 
    <time>2012-06-17T17:29:46Z</time>
  </metadata>
  <trk>
    <name>Running 30.12 km, 2012-06-17</name>
    <trkseg>
      <trkpt lat="60.1512843" lon="19.9495666">
        <ele>66.4683</ele>
        <time>2012-06-17T17:29:46Z</time>
      </trkpt>
      <trkpt lat="60.1513008" lon="19.9495434">
        <ele>60.2197</ele>
        <time>2012-06-17T17:29:49Z</time>
      </trkpt>
      <trkpt lat="60.1513687" lon="19.949386">
        <ele>51.0872</ele>
        <time>2012-06-17T17:29:54Z</time>
      </trkpt>
      <trkpt lat="60.1513703" lon="19.949331">
        <ele>51.0872</ele>
        <time>2012-06-17T17:29:55Z</time>
      </trkpt>
      <trkpt lat="60.1513633" lon="19.9488978">
        <ele>35.2255</ele>
        <time>2012-06-17T17:30:03Z</time>
      </trkpt>
      <trkpt lat="60.1513594" lon="19.9487401">
        <ele>31.3801</ele>
        <time>2012-06-17T17:30:06Z</time>
      </trkpt>
      <trkpt lat="60.1512903" lon="19.9486482">
        <ele>27.5349</ele>
        <time>2012-06-17T17:30:10Z</time>
      </trkpt>
      <trkpt lat="60.1510173" lon="19.9486425">
        <ele>35.7061</ele>
        <time>2012-06-17T17:30:18Z</time>
      </trkpt>
      <trkpt lat="60.150834" lon="19.9486493">
        <ele>36.1868</ele>
        <time>2012-06-17T17:30:24Z</time>
      </trkpt>
      <trkpt lat="60.1506662" lon="19.9486798">
        <ele>36.1868</ele>
        <time>2012-06-17T17:30:29Z</time>
      </trkpt>
      <trkpt lat="60.1505213" lon="19.9487058">
        <ele>37.1481</ele>
        <time>2012-06-17T17:30:34Z</time>
      </trkpt>
      <trkpt lat="60.1503124" lon="19.9487167">
        <ele>40.0321</ele>
        <time>2012-06-17T17:30:41Z</time>
      </trkpt>
      <trkpt lat="60.1501753" lon="19.9487292">
        <ele>40.0321</ele>
        <time>2012-06-17T17:30:46Z</time>
      </trkpt>
      <trkpt lat="60.150025" lon="19.9487658">
        <ele>41.9547</ele>
        <time>2012-06-17T17:30:51Z</time>
      </trkpt>
      <trkpt lat="60.1498416" lon="19.9487773">
        <ele>41.9547</ele>
        <time>2012-06-17T17:30:57Z</time>
      </trkpt>
      <trkpt lat="60.1497339" lon="19.9486358">
        <ele>39.0707</ele>
        <time>2012-06-17T17:31:02Z</time>
      </trkpt>
      <trkpt lat="60.1496552" lon="19.9484318">
        <ele>34.2642</ele>
        <time>2012-06-17T17:31:07Z</time>
      </trkpt>
      <trkpt lat="60.1495951" lon="19.9481147">
        <ele>34.7449</ele>
        <time>2012-06-17T17:31:13Z</time>
      </trkpt>
      <trkpt lat="60.1495415" lon="19.9477972">
        <ele>31.3801</ele>
        <time>2012-06-17T17:31:19Z</time>
      </trkpt>
      <trkpt lat="60.1494815" lon="19.9474873">
        <ele>31.8607</ele>
        <time>2012-06-17T17:31:25Z</time>
      </trkpt>
      <trkpt lat="60.1494209" lon="19.9471636">
        <ele>32.8223</ele>
        <time>2012-06-17T17:31:31Z</time>
      </trkpt>
      <trkpt lat="60.14935" lon="19.9467891">
        <ele>35.2255</ele>
        <time>2012-06-17T17:31:38Z</time>
      </trkpt>
      <trkpt lat="60.1493018" lon="19.9465339">
        <ele>31.3801</ele>
        <time>2012-06-17T17:31:43Z</time>
      </trkpt>
      <trkpt lat="60.1492514" lon="19.9462664">
        <ele>28.9769</ele>
        <time>2012-06-17T17:31:48Z</time>
      </trkpt>
      <trkpt lat="60.1491915" lon="19.9459526">
        <ele>26.0929</ele>
        <time>2012-06-17T17:31:54Z</time>
      </trkpt>
      <trkpt lat="60.1491783" lon="19.9459044">
        <ele>25.6123</ele>
        <time>2012-06-17T17:31:55Z</time>
      </trkpt>
      <trkpt lat="60.1490682" lon="19.9458531">
        <ele>26.0929</ele>
        <time>2012-06-17T17:31:59Z</time>
      </trkpt>
      <trkpt lat="60.1490371" lon="19.9458639">
        <ele>26.5736</ele>
        <time>2012-06-17T17:32:00Z</time>
      </trkpt>
      <trkpt lat="60.1487544" lon="19.9459307">
        <ele>28.4962</ele>
        <time>2012-06-17T17:32:08Z</time>
      </trkpt>
      <trkpt lat="60.1485837" lon="19.9459722">
        <ele>30.8995</ele>
        <time>2012-06-17T17:32:13Z</time>
      </trkpt>
      <trkpt lat="60.1483881" lon="19.9460406">
        <ele>30.8995</ele>
        <time>2012-06-17T17:32:19Z</time>
      </trkpt>
      <trkpt lat="60.1481938" lon="19.9460896">
        <ele>30.4188</ele>
        <time>2012-06-17T17:32:25Z</time>
      </trkpt>
      <trkpt lat="60.1479927" lon="19.946049">
        <ele>27.5349</ele>
        <time>2012-06-17T17:32:31Z</time>
      </trkpt>
      <trkpt lat="60.1477597" lon="19.9459228">
        <ele>24.1703</ele>
        <time>2012-06-17T17:32:39Z</time>
      </trkpt>
      <trkpt lat="60.1476767" lon="19.9458119">
        <ele>23.209</ele>
        <time>2012-06-17T17:32:43Z</time>
      </trkpt>
      <trkpt lat="60.1475596" lon="19.9457022">
        <ele>22.2476</ele>
        <time>2012-06-17T17:32:48Z</time>
      </trkpt>
      <trkpt lat="60.1473991" lon="19.9456241">
        <ele>18.4023</ele>
        <time>2012-06-17T17:32:54Z</time>
      </trkpt>
      <trkpt lat="60.1472733" lon="19.9455887">
        <ele>13.5958</ele>
        <time>2012-06-17T17:32:59Z</time>
      </trkpt>
      <trkpt lat="60.1471407" lon="19.945549">
        <ele>8.30859</ele>
        <time>2012-06-17T17:33:04Z</time>
      </trkpt>
      <trkpt lat="60.1469878" lon="19.9454962">
        <ele>0</ele>
        <time>2012-06-17T17:33:10Z</time>
      </trkpt>
      <trkpt lat="60.1468064" lon="19.9454217">
        <ele>0</ele>
        <time>2012-06-17T17:33:17Z</time>
      </trkpt>
      <trkpt lat="60.1466448" lon="19.9453059">
        <ele>0</ele>
        <time>2012-06-17T17:33:22Z</time>
      </trkpt>
      <trkpt lat="60.1465753" lon="19.9451259">
        <ele>0</ele>
        <time>2012-06-17T17:33:27Z</time>
      </trkpt>
      <trkpt lat="60.1465497" lon="19.9450093">
        <ele>0</ele>
        <time>2012-06-17T17:33:30Z</time>
      </trkpt>
      <trkpt lat="60.1464414" lon="19.9446803">
        <ele>0</ele>
        <time>2012-06-17T17:33:38Z</time>
      </trkpt>
      <trkpt lat="60.1464277" lon="19.9446421">
        <ele>0</ele>
        <time>2012-06-17T17:33:39Z</time>
      </trkpt>
      <trkpt lat="60.1462679" lon="19.9445772">
        <ele>0</ele>
        <time>2012-06-17T17:33:45Z</time>
      </trkpt>
      <trkpt lat="60.1460946" lon="19.9445418">
        <ele>0</ele>
        <time>2012-06-17T17:33:51Z</time>
      </trkpt>
      <trkpt lat="60.1459475" lon="19.9445114">
        <ele>0</ele>
        <time>2012-06-17T17:33:56Z</time>
      </trkpt>
      <trkpt lat="60.1457182" lon="19.9444591">
        <ele>0</ele>
        <time>2012-06-17T17:34:03Z</time>
      </trkpt>
      <trkpt lat="60.1455035" lon="19.9443995">
        <ele>0</ele>
        <time>2012-06-17T17:34:10Z</time>
      </trkpt>
      <trkpt lat="60.1453533" lon="19.9443545">
        <ele>0</ele>
        <time>2012-06-17T17:34:15Z</time>
      </trkpt>
      <trkpt lat="60.1451686" lon="19.9442577">
        <ele>0</ele>
        <time>2012-06-17T17:34:22Z</time>
      </trkpt>
      <trkpt lat="60.1450176" lon="19.9441426">
        <ele>0</ele>
        <time>2012-06-17T17:34:28Z</time>
      </trkpt>
      <trkpt lat="60.1448793" lon="19.9440029">
        <ele>0</ele>
        <time>2012-06-17T17:34:34Z</time>
      </trkpt>
      <trkpt lat="60.1447132" lon="19.9437896">
        <ele>0</ele>
        <time>2012-06-17T17:34:41Z</time>
      </trkpt>
      <trkpt lat="60.144578" lon="19.9436339">
        <ele>0</ele>
        <time>2012-06-17T17:34:47Z</time>
      </trkpt>
      <trkpt lat="60.1444351" lon="19.9434911">
        <ele>0</ele>
        <time>2012-06-17T17:34:53Z</time>
      </trkpt>
      <trkpt lat="60.1442559" lon="19.9433931">
        <ele>0</ele>
        <time>2012-06-17T17:34:59Z</time>
      </trkpt>
      <trkpt lat="60.1441316" lon="19.9433247">
        <ele>0</ele>
        <time>2012-06-17T17:35:03Z</time>
      </trkpt>
      <trkpt lat="60.1439231" lon="19.943162">
        <ele>0</ele>
        <time>2012-06-17T17:35:11Z</time>
      </trkpt>
      <trkpt lat="60.1437558" lon="19.9430461">
        <ele>0</ele>
        <time>2012-06-17T17:35:17Z</time>
      </trkpt>
      <trkpt lat="60.1435933" lon="19.9429263">
        <ele>0</ele>
        <time>2012-06-17T17:35:23Z</time>
      </trkpt>
      <trkpt lat="60.1434306" lon="19.9428238">
        <ele>0</ele>
        <time>2012-06-17T17:35:29Z</time>
      </trkpt>
      <trkpt lat="60.1433008" lon="19.9426404">
        <ele>0</ele>
        <time>2012-06-17T17:35:35Z</time>
      </trkpt>
      <trkpt lat="60.1432477" lon="19.9423187">
        <ele>0</ele>
        <time>2012-06-17T17:35:41Z</time>
      </trkpt>
      <trkpt lat="60.1432768" lon="19.9420553">
        <ele>0</ele>
        <time>2012-06-17T17:35:46Z</time>
      </trkpt>
      <trkpt lat="60.1433302" lon="19.9417513">
        <ele>0</ele>
        <time>2012-06-17T17:35:52Z</time>
      </trkpt>
      <trkpt lat="60.1433313" lon="19.9414608">
        <ele>0</ele>
        <time>2012-06-17T17:35:57Z</time>
      </trkpt>
      <trkpt lat="60.1432624" lon="19.9412304">
        <ele>0</ele>
        <time>2012-06-17T17:36:02Z</time>
      </trkpt>
      <trkpt lat="60.1431246" lon="19.9410563">
        <ele>0</ele>
        <time>2012-06-17T17:36:07Z</time>
      </trkpt>
      <trkpt lat="60.1429844" lon="19.9409062">
        <ele>0</ele>
        <time>2012-06-17T17:36:12Z</time>
      </trkpt>
      <trkpt lat="60.1428127" lon="19.940704">
        <ele>0</ele>
        <time>2012-06-17T17:36:19Z</time>
      </trkpt>
      <trkpt lat="60.1426645" lon="19.940543">
        <ele>0</ele>
        <time>2012-06-17T17:36:25Z</time>
      </trkpt>
      <trkpt lat="60.1425357" lon="19.940406">
        <ele>0</ele>
        <time>2012-06-17T17:36:30Z</time>
      </trkpt>
      <trkpt lat="60.1423377" lon="19.9402275">
        <ele>0</ele>
        <time>2012-06-17T17:36:36Z</time>
      </trkpt>
      <trkpt lat="60.1421678" lon="19.9400136">
        <ele>0</ele>
        <time>2012-06-17T17:36:43Z</time>
      </trkpt>
      <trkpt lat="60.1420121" lon="19.9398528">
        <ele>0</ele>
        <time>2012-06-17T17:36:49Z</time>
      </trkpt>
      <trkpt lat="60.1417998" lon="19.9397015">
        <ele>0</ele>
        <time>2012-06-17T17:36:56Z</time>
      </trkpt>
      <trkpt lat="60.1416332" lon="19.9396193">
        <ele>0</ele>
        <time>2012-06-17T17:37:01Z</time>
      </trkpt>
      <trkpt lat="60.1414554" lon="19.9395528">
        <ele>0</ele>
        <time>2012-06-17T17:37:06Z</time>
      </trkpt>
      <trkpt lat="60.14127" lon="19.9394619">
        <ele>0</ele>
        <time>2012-06-17T17:37:12Z</time>
      </trkpt>
      <trkpt lat="60.1410637" lon="19.9394027">
        <ele>0</ele>
        <time>2012-06-17T17:37:18Z</time>
      </trkpt>
      <trkpt lat="60.1409233" lon="19.9393659">
        <ele>0</ele>
        <time>2012-06-17T17:37:22Z</time>
      </trkpt>
      <trkpt lat="60.1407185" lon="19.9393536">
        <ele>0</ele>
        <time>2012-06-17T17:37:27Z</time>
      </trkpt>
      <trkpt lat="60.1404982" lon="19.9394197">
        <ele>0</ele>
        <time>2012-06-17T17:37:32Z</time>
      </trkpt>
      <trkpt lat="60.140367" lon="19.9394597">
        <ele>5.42456</ele>
        <time>2012-06-17T17:37:35Z</time>
      </trkpt>
      <trkpt lat="60.1401204" lon="19.9395576">
        <ele>13.1151</ele>
        <time>2012-06-17T17:37:41Z</time>
      </trkpt>
      <trkpt lat="60.1398736" lon="19.9396265">
        <ele>19.3638</ele>
        <time>2012-06-17T17:37:48Z</time>
      </trkpt>
      <trkpt lat="60.1396647" lon="19.9395872">
        <ele>23.209</ele>
        <time>2012-06-17T17:37:54Z</time>
      </trkpt>
      <trkpt lat="60.1395161" lon="19.9395069">
        <ele>23.6896</ele>
        <time>2012-06-17T17:37:59Z</time>
      </trkpt>
      <trkpt lat="60.139334" lon="19.939399">
        <ele>25.1317</ele>
        <time>2012-06-17T17:38:05Z</time>
      </trkpt>
      <trkpt lat="60.1391897" lon="19.9393106">
        <ele>25.6123</ele>
        <time>2012-06-17T17:38:10Z</time>
      </trkpt>
      <trkpt lat="60.1390153" lon="19.9392038">
        <ele>27.0543</ele>
        <time>2012-06-17T17:38:16Z</time>
      </trkpt>
      <trkpt lat="60.1388293" lon="19.93906">
        <ele>27.5349</ele>
        <time>2012-06-17T17:38:23Z</time>
      </trkpt>
      <trkpt lat="60.1386737" lon="19.9389431">
        <ele>24.651</ele>
        <time>2012-06-17T17:38:29Z</time>
      </trkpt>
      <trkpt lat="60.1385733" lon="19.9388428">
        <ele>23.6896</ele>
        <time>2012-06-17T17:38:33Z</time>
      </trkpt>
      <trkpt lat="60.13847" lon="19.9387559">
        <ele>21.767</ele>
        <time>2012-06-17T17:38:37Z</time>
      </trkpt>
      <trkpt lat="60.1382905" lon="19.9386844">
        <ele>20.325</ele>
        <time>2012-06-17T17:38:43Z</time>
      </trkpt>
      <trkpt lat="60.1381395" lon="19.9386967">
        <ele>18.4023</ele>
        <time>2012-06-17T17:38:48Z</time>
      </trkpt>
      <trkpt lat="60.1380142" lon="19.9387895">
        <ele>17.4412</ele>
        <time>2012-06-17T17:38:53Z</time>
      </trkpt>
      <trkpt lat="60.1378984" lon="19.9388878">
        <ele>17.9218</ele>
        <time>2012-06-17T17:38:58Z</time>
      </trkpt>
      <trkpt lat="60.1377471" lon="19.9390677">
        <ele>20.325</ele>
        <time>2012-06-17T17:39:04Z</time>
      </trkpt>
      <trkpt lat="60.1376144" lon="19.9392794">
        <ele>22.2476</ele>
        <time>2012-06-17T17:39:10Z</time>
      </trkpt>
      <trkpt lat="60.1374921" lon="19.9395326">
        <ele>22.7283</ele>
        <time>2012-06-17T17:39:16Z</time>
      </trkpt>
      <trkpt lat="60.1373876" lon="19.9397508">
        <ele>23.209</ele>
        <time>2012-06-17T17:39:21Z</time>
      </trkpt>
      <trkpt lat="60.1372656" lon="19.9400033">
        <ele>23.6896</ele>
        <time>2012-06-17T17:39:28Z</time>
      </trkpt>
      <trkpt lat="60.1371212" lon="19.9401856">
        <ele>23.209</ele>
        <time>2012-06-17T17:39:34Z</time>
      </trkpt>
      <trkpt lat="60.136959" lon="19.9402301">
        <ele>22.7283</ele>
        <time>2012-06-17T17:39:39Z</time>
      </trkpt>
      <trkpt lat="60.1368359" lon="19.940126">
        <ele>20.8057</ele>
        <time>2012-06-17T17:39:44Z</time>
      </trkpt>
      <trkpt lat="60.1366858" lon="19.9399783">
        <ele>19.8444</ele>
        <time>2012-06-17T17:39:50Z</time>
      </trkpt>
      <trkpt lat="60.1365598" lon="19.9398512">
        <ele>18.8831</ele>
        <time>2012-06-17T17:39:55Z</time>
      </trkpt>
      <trkpt lat="60.1364086" lon="19.9396808">
        <ele>20.8057</ele>
        <time>2012-06-17T17:40:01Z</time>
      </trkpt>
      <trkpt lat="60.1362407" lon="19.9395321">
        <ele>21.2864</ele>
        <time>2012-06-17T17:40:07Z</time>
      </trkpt>
      <trkpt lat="60.1360709" lon="19.9393583">
        <ele>20.8057</ele>
        <time>2012-06-17T17:40:14Z</time>
      </trkpt>
      <trkpt lat="60.1359418" lon="19.9392604">
        <ele>20.325</ele>
        <time>2012-06-17T17:40:19Z</time>
      </trkpt>
      <trkpt lat="60.1357901" lon="19.9391226">
        <ele>19.8444</ele>
        <time>2012-06-17T17:40:25Z</time>
      </trkpt>
      <trkpt lat="60.1356691" lon="19.9389956">
        <ele>17.9218</ele>
        <time>2012-06-17T17:40:30Z</time>
      </trkpt>
      <trkpt lat="60.1355142" lon="19.938878">
        <ele>17.4412</ele>
        <time>2012-06-17T17:40:36Z</time>
      </trkpt>
      <trkpt lat="60.1353296" lon="19.9387418">
        <ele>19.8444</ele>
        <time>2012-06-17T17:40:43Z</time>
      </trkpt>
      <trkpt lat="60.1351892" lon="19.9386564">
        <ele>20.8057</ele>
        <time>2012-06-17T17:40:48Z</time>
      </trkpt>
      <trkpt lat="60.1350545" lon="19.9385715">
        <ele>22.7283</ele>
        <time>2012-06-17T17:40:53Z</time>
      </trkpt>
      <trkpt lat="60.1348835" lon="19.9384724">
        <ele>23.209</ele>
        <time>2012-06-17T17:40:59Z</time>
      </trkpt>
      <trkpt lat="60.1347498" lon="19.9383922">
        <ele>24.1703</ele>
        <time>2012-06-17T17:41:04Z</time>
      </trkpt>
      <trkpt lat="60.1345965" lon="19.9382972">
        <ele>24.1703</ele>
        <time>2012-06-17T17:41:10Z</time>
      </trkpt>
      <trkpt lat="60.1344753" lon="19.9382218">
        <ele>23.6896</ele>
        <time>2012-06-17T17:41:15Z</time>
      </trkpt>
      <trkpt lat="60.1343239" lon="19.9381425">
        <ele>23.209</ele>
        <time>2012-06-17T17:41:21Z</time>
      </trkpt>
      <trkpt lat="60.1341702" lon="19.9380745">
        <ele>22.7283</ele>
        <time>2012-06-17T17:41:27Z</time>
      </trkpt>
      <trkpt lat="60.1340267" lon="19.9380131">
        <ele>22.7283</ele>
        <time>2012-06-17T17:41:32Z</time>
      </trkpt>
      <trkpt lat="60.1338755" lon="19.9379704">
        <ele>23.6896</ele>
        <time>2012-06-17T17:41:37Z</time>
      </trkpt>
      <trkpt lat="60.1336956" lon="19.937913">
        <ele>23.6896</ele>
        <time>2012-06-17T17:41:43Z</time>
      </trkpt>
      <trkpt lat="60.1335144" lon="19.9378453">
        <ele>24.1703</ele>
        <time>2012-06-17T17:41:49Z</time>
      </trkpt>
      <trkpt lat="60.1333745" lon="19.9377669">
        <ele>24.1703</ele>
        <time>2012-06-17T17:41:54Z</time>
      </trkpt>
      <trkpt lat="60.133204" lon="19.9377171">
        <ele>23.6896</ele>
        <time>2012-06-17T17:42:00Z</time>
      </trkpt>
      <trkpt lat="60.1330642" lon="19.9376774">
        <ele>22.2476</ele>
        <time>2012-06-17T17:42:05Z</time>
      </trkpt>
      <trkpt lat="60.1329488" lon="19.9375251">
        <ele>21.2864</ele>
        <time>2012-06-17T17:42:10Z</time>
      </trkpt>
      <trkpt lat="60.1329295" lon="19.9372967">
        <ele>20.8057</ele>
        <time>2012-06-17T17:42:14Z</time>
      </trkpt>
      <trkpt lat="60.132946" lon="19.9368898">
        <ele>20.325</ele>
        <time>2012-06-17T17:42:21Z</time>
      </trkpt>
      <trkpt lat="60.1329656" lon="19.9364898">
        <ele>19.8444</ele>
        <time>2012-06-17T17:42:28Z</time>
      </trkpt>
      <trkpt lat="60.132962" lon="19.9362034">
        <ele>18.4023</ele>
        <time>2012-06-17T17:42:33Z</time>
      </trkpt>
      <trkpt lat="60.1328995" lon="19.9359446">
        <ele>17.9218</ele>
        <time>2012-06-17T17:42:38Z</time>
      </trkpt>
      <trkpt lat="60.1327529" lon="19.935754">
        <ele>19.3638</ele>
        <time>2012-06-17T17:42:44Z</time>
      </trkpt>
      <trkpt lat="60.1325452" lon="19.9357037">
        <ele>21.767</ele>
        <time>2012-06-17T17:42:51Z</time>
      </trkpt>
      <trkpt lat="60.1323585" lon="19.9356564">
        <ele>21.767</ele>
        <time>2012-06-17T17:42:57Z</time>
      </trkpt>
      <trkpt lat="60.1322773" lon="19.9354716">
        <ele>21.767</ele>
        <time>2012-06-17T17:43:01Z</time>
      </trkpt>
      <trkpt lat="60.1322588" lon="19.9351974">
        <ele>22.7283</ele>
        <time>2012-06-17T17:43:06Z</time>
      </trkpt>
      <trkpt lat="60.1322789" lon="19.9349267">
        <ele>20.8057</ele>
        <time>2012-06-17T17:43:11Z</time>
      </trkpt>
      <trkpt lat="60.1322722" lon="19.9348231">
        <ele>20.8057</ele>
        <time>2012-06-17T17:43:13Z</time>
      </trkpt>
      <trkpt lat="60.1321552" lon="19.9346708">
        <ele>22.2476</ele>
        <time>2012-06-17T17:43:18Z</time>
      </trkpt>
      <trkpt lat="60.1319576" lon="19.9346061">
        <ele>25.6123</ele>
        <time>2012-06-17T17:43:25Z</time>
      </trkpt>
      <trkpt lat="60.1317755" lon="19.9345842">
        <ele>25.6123</ele>
        <time>2012-06-17T17:43:31Z</time>
      </trkpt>
      <trkpt lat="60.1316326" lon="19.9346115">
        <ele>26.0929</ele>
        <time>2012-06-17T17:43:36Z</time>
      </trkpt>
      <trkpt lat="60.1314233" lon="19.9346338">
        <ele>24.1703</ele>
        <time>2012-06-17T17:43:43Z</time>
      </trkpt>
      <trkpt lat="60.1311873" lon="19.9346417">
        <ele>24.651</ele>
        <time>2012-06-17T17:43:51Z</time>
      </trkpt>
      <trkpt lat="60.1310679" lon="19.9346433">
        <ele>25.1317</ele>
        <time>2012-06-17T17:43:55Z</time>
      </trkpt>
      <trkpt lat="60.1309273" lon="19.9346279">
        <ele>26.0929</ele>
        <time>2012-06-17T17:44:00Z</time>
      </trkpt>
      <trkpt lat="60.1307615" lon="19.9346153">
        <ele>26.5736</ele>
        <time>2012-06-17T17:44:06Z</time>
      </trkpt>
      <trkpt lat="60.1306131" lon="19.9346082">
        <ele>26.0929</ele>
        <time>2012-06-17T17:44:11Z</time>
      </trkpt>
      <trkpt lat="60.1304386" lon="19.9346056">
        <ele>25.1317</ele>
        <time>2012-06-17T17:44:17Z</time>
      </trkpt>
      <trkpt lat="60.1303095" lon="19.9345968">
        <ele>26.5736</ele>
        <time>2012-06-17T17:44:22Z</time>
      </trkpt>
      <trkpt lat="60.1301428" lon="19.9345733">
        <ele>27.0543</ele>
        <time>2012-06-17T17:44:28Z</time>
      </trkpt>
      <trkpt lat="60.1300093" lon="19.934543">
        <ele>27.5349</ele>
        <time>2012-06-17T17:44:33Z</time>
      </trkpt>
      <trkpt lat="60.1298408" lon="19.9345119">
        <ele>27.0543</ele>
        <time>2012-06-17T17:44:39Z</time>
      </trkpt>
      <trkpt lat="60.1296462" lon="19.9344764">
        <ele>27.5349</ele>
        <time>2012-06-17T17:44:46Z</time>
      </trkpt>
      <trkpt lat="60.1294834" lon="19.9344484">
        <ele>28.0155</ele>
        <time>2012-06-17T17:44:52Z</time>
      </trkpt>
      <trkpt lat="60.1293119" lon="19.934422">
        <ele>27.5349</ele>
        <time>2012-06-17T17:44:58Z</time>
      </trkpt>
      <trkpt lat="60.1291453" lon="19.9343815">
        <ele>28.0155</ele>
        <time>2012-06-17T17:45:04Z</time>
      </trkpt>
      <trkpt lat="60.1289767" lon="19.9343192">
        <ele>27.5349</ele>
        <time>2012-06-17T17:45:10Z</time>
      </trkpt>
      <trkpt lat="60.1288" lon="19.934187">
        <ele>25.6123</ele>
        <time>2012-06-17T17:45:17Z</time>
      </trkpt>
      <trkpt lat="60.1286464" lon="19.9341388">
        <ele>24.651</ele>
        <time>2012-06-17T17:45:22Z</time>
      </trkpt>
      <trkpt lat="60.1284674" lon="19.9340731">
        <ele>23.6896</ele>
        <time>2012-06-17T17:45:28Z</time>
      </trkpt>
      <trkpt lat="60.1283149" lon="19.9340461">
        <ele>23.209</ele>
        <time>2012-06-17T17:45:33Z</time>
      </trkpt>
      <trkpt lat="60.1281406" lon="19.9339917">
        <ele>23.6896</ele>
        <time>2012-06-17T17:45:39Z</time>
      </trkpt>
      <trkpt lat="60.1279783" lon="19.9339263">
        <ele>24.1703</ele>
        <time>2012-06-17T17:45:45Z</time>
      </trkpt>
      <trkpt lat="60.1279106" lon="19.9338452">
        <ele>25.6123</ele>
        <time>2012-06-17T17:45:48Z</time>
      </trkpt>
      <trkpt lat="60.1278904" lon="19.9335006">
        <ele>25.1317</ele>
        <time>2012-06-17T17:45:54Z</time>
      </trkpt>
      <trkpt lat="60.1278684" lon="19.9330689">
        <ele>24.1703</ele>
        <time>2012-06-17T17:46:02Z</time>
      </trkpt>
      <trkpt lat="60.1278318" lon="19.9326431">
        <ele>23.209</ele>
        <time>2012-06-17T17:46:10Z</time>
      </trkpt>
      <trkpt lat="60.1277531" lon="19.9325126">
        <ele>23.6896</ele>
        <time>2012-06-17T17:46:14Z</time>
      </trkpt>
      <trkpt lat="60.1275766" lon="19.9324786">
        <ele>26.0929</ele>
        <time>2012-06-17T17:46:20Z</time>
      </trkpt>
      <trkpt lat="60.1274017" lon="19.9324634">
        <ele>27.0543</ele>
        <time>2012-06-17T17:46:26Z</time>
      </trkpt>
      <trkpt lat="60.1271631" lon="19.9324366">
        <ele>27.0543</ele>
        <time>2012-06-17T17:46:34Z</time>
      </trkpt>
      <trkpt lat="60.1269788" lon="19.9324286">
        <ele>26.0929</ele>
        <time>2012-06-17T17:46:40Z</time>
      </trkpt>
      <trkpt lat="60.1267972" lon="19.9324165">
        <ele>25.1317</ele>
        <time>2012-06-17T17:46:46Z</time>
      </trkpt>
      <trkpt lat="60.1266798" lon="19.9323888">
        <ele>25.6123</ele>
        <time>2012-06-17T17:46:50Z</time>
      </trkpt>
      <trkpt lat="60.1265346" lon="19.9323742">
        <ele>25.6123</ele>
        <time>2012-06-17T17:46:55Z</time>
      </trkpt>
      <trkpt lat="60.1263606" lon="19.9323548">
        <ele>25.1317</ele>
        <time>2012-06-17T17:47:01Z</time>
      </trkpt>
      <trkpt lat="60.1261782" lon="19.9323807">
        <ele>25.6123</ele>
        <time>2012-06-17T17:47:07Z</time>
      </trkpt>
      <trkpt lat="60.1260429" lon="19.9324665">
        <ele>27.0543</ele>
        <time>2012-06-17T17:47:12Z</time>
      </trkpt>
      <trkpt lat="60.1259365" lon="19.932376">
        <ele>27.5349</ele>
        <time>2012-06-17T17:47:16Z</time>
      </trkpt>
      <trkpt lat="60.1258115" lon="19.9322771">
        <ele>27.5349</ele>
        <time>2012-06-17T17:47:21Z</time>
      </trkpt>
      <trkpt lat="60.1256152" lon="19.9322507">
        <ele>27.0543</ele>
        <time>2012-06-17T17:47:28Z</time>
      </trkpt>
      <trkpt lat="60.1254477" lon="19.9322257">
        <ele>27.5349</ele>
        <time>2012-06-17T17:47:34Z</time>
      </trkpt>
      <trkpt lat="60.1252423" lon="19.9322043">
        <ele>27.0543</ele>
        <time>2012-06-17T17:47:41Z</time>
      </trkpt>
      <trkpt lat="60.1250377" lon="19.9321727">
        <ele>27.0543</ele>
        <time>2012-06-17T17:47:48Z</time>
      </trkpt>
      <trkpt lat="60.1248288" lon="19.9321582">
        <ele>25.6123</ele>
        <time>2012-06-17T17:47:55Z</time>
      </trkpt>
      <trkpt lat="60.1246593" lon="19.9321827">
        <ele>26.0929</ele>
        <time>2012-06-17T17:48:01Z</time>
      </trkpt>
      <trkpt lat="60.1245533" lon="19.9323605">
        <ele>27.5349</ele>
        <time>2012-06-17T17:48:06Z</time>
      </trkpt>
      <trkpt lat="60.1244167" lon="19.9324382">
        <ele>28.0155</ele>
        <time>2012-06-17T17:48:11Z</time>
      </trkpt>
      <trkpt lat="60.1242487" lon="19.9324716">
        <ele>28.9769</ele>
        <time>2012-06-17T17:48:17Z</time>
      </trkpt>
      <trkpt lat="60.1240799" lon="19.9325191">
        <ele>28.9769</ele>
        <time>2012-06-17T17:48:23Z</time>
      </trkpt>
      <trkpt lat="60.1239069" lon="19.932562">
        <ele>28.4962</ele>
        <time>2012-06-17T17:48:29Z</time>
      </trkpt>
      <trkpt lat="60.123713" lon="19.9326075">
        <ele>29.4575</ele>
        <time>2012-06-17T17:48:36Z</time>
      </trkpt>
      <trkpt lat="60.1235159" lon="19.9326847">
        <ele>28.9769</ele>
        <time>2012-06-17T17:48:43Z</time>
      </trkpt>
      <trkpt lat="60.1233477" lon="19.9328311">
        <ele>28.9769</ele>
        <time>2012-06-17T17:48:49Z</time>
      </trkpt>
      <trkpt lat="60.1231832" lon="19.9329532">
        <ele>28.0155</ele>
        <time>2012-06-17T17:48:55Z</time>
      </trkpt>
      <trkpt lat="60.1229796" lon="19.9330422">
        <ele>26.0929</ele>
        <time>2012-06-17T17:49:02Z</time>
      </trkpt>
      <trkpt lat="60.1228114" lon="19.9330804">
        <ele>24.651</ele>
        <time>2012-06-17T17:49:08Z</time>
      </trkpt>
      <trkpt lat="60.1226391" lon="19.9331219">
        <ele>23.6896</ele>
        <time>2012-06-17T17:49:14Z</time>
      </trkpt>
      <trkpt lat="60.1224666" lon="19.9331469">
        <ele>23.6896</ele>
        <time>2012-06-17T17:49:20Z</time>
      </trkpt>
      <trkpt lat="60.1223591" lon="19.9331523">
        <ele>23.6896</ele>
        <time>2012-06-17T17:49:24Z</time>
      </trkpt>
      <trkpt lat="60.1221798" lon="19.9331702">
        <ele>22.7283</ele>
        <time>2012-06-17T17:49:30Z</time>
      </trkpt>
      <trkpt lat="60.1219943" lon="19.9331836">
        <ele>20.8057</ele>
        <time>2012-06-17T17:49:36Z</time>
      </trkpt>
      <trkpt lat="60.1218232" lon="19.9331783">
        <ele>21.2864</ele>
        <time>2012-06-17T17:49:42Z</time>
      </trkpt>
      <trkpt lat="60.1216898" lon="19.9331753">
        <ele>21.2864</ele>
        <time>2012-06-17T17:49:47Z</time>
      </trkpt>
      <trkpt lat="60.1215503" lon="19.9331855">
        <ele>21.2864</ele>
        <time>2012-06-17T17:49:52Z</time>
      </trkpt>
      <trkpt lat="60.1213819" lon="19.9332369">
        <ele>21.767</ele>
        <time>2012-06-17T17:49:58Z</time>
      </trkpt>
      <trkpt lat="60.1212432" lon="19.9333043">
        <ele>21.767</ele>
        <time>2012-06-17T17:50:03Z</time>
      </trkpt>
      <trkpt lat="60.1210987" lon="19.9333873">
        <ele>20.325</ele>
        <time>2012-06-17T17:50:08Z</time>
      </trkpt>
      <trkpt lat="60.1209547" lon="19.9334828">
        <ele>20.325</ele>
        <time>2012-06-17T17:50:13Z</time>
      </trkpt>
      <trkpt lat="60.1207823" lon="19.9335313">
        <ele>20.8057</ele>
        <time>2012-06-17T17:50:19Z</time>
      </trkpt>
      <trkpt lat="60.1206165" lon="19.9334826">
        <ele>22.2476</ele>
        <time>2012-06-17T17:50:25Z</time>
      </trkpt>
      <trkpt lat="60.1204853" lon="19.933455">
        <ele>21.767</ele>
        <time>2012-06-17T17:50:30Z</time>
      </trkpt>
      <trkpt lat="60.1203094" lon="19.9334586">
        <ele>21.767</ele>
        <time>2012-06-17T17:50:36Z</time>
      </trkpt>
      <trkpt lat="60.1201244" lon="19.933496">
        <ele>18.8831</ele>
        <time>2012-06-17T17:50:42Z</time>
      </trkpt>
      <trkpt lat="60.1198964" lon="19.9336193">
        <ele>19.3638</ele>
        <time>2012-06-17T17:50:50Z</time>
      </trkpt>
      <trkpt lat="60.1197581" lon="19.933713">
        <ele>17.9218</ele>
        <time>2012-06-17T17:50:55Z</time>
      </trkpt>
      <trkpt lat="60.1196057" lon="19.9338653">
        <ele>18.4023</ele>
        <time>2012-06-17T17:51:01Z</time>
      </trkpt>
      <trkpt lat="60.1194218" lon="19.9340483">
        <ele>18.4023</ele>
        <time>2012-06-17T17:51:08Z</time>
      </trkpt>
      <trkpt lat="60.1192272" lon="19.9341885">
        <ele>18.4023</ele>
        <time>2012-06-17T17:51:15Z</time>
      </trkpt>
      <trkpt lat="60.1190091" lon="19.9343189">
        <ele>18.8831</ele>
        <time>2012-06-17T17:51:23Z</time>
      </trkpt>
      <trkpt lat="60.1188654" lon="19.9343953">
        <ele>19.3638</ele>
        <time>2012-06-17T17:51:28Z</time>
      </trkpt>
      <trkpt lat="60.1187625" lon="19.9344527">
        <ele>19.8444</ele>
        <time>2012-06-17T17:51:31Z</time>
      </trkpt>
      <trkpt lat="60.1185823" lon="19.9345072">
        <ele>18.8831</ele>
        <time>2012-06-17T17:51:37Z</time>
      </trkpt>
      <trkpt lat="60.118388" lon="19.9345971">
        <ele>16.9604</ele>
        <time>2012-06-17T17:51:44Z</time>
      </trkpt>
      <trkpt lat="60.1182186" lon="19.9346916">
        <ele>16.4797</ele>
        <time>2012-06-17T17:51:50Z</time>
      </trkpt>
      <trkpt lat="60.1180742" lon="19.9347604">
        <ele>15.5184</ele>
        <time>2012-06-17T17:51:55Z</time>
      </trkpt>
      <trkpt lat="60.1178983" lon="19.9348253">
        <ele>12.1538</ele>
        <time>2012-06-17T17:52:01Z</time>
      </trkpt>
      <trkpt lat="60.1177984" lon="19.9349385">
        <ele>11.1925</ele>
        <time>2012-06-17T17:52:05Z</time>
      </trkpt>
      <trkpt lat="60.1176602" lon="19.9351366">
        <ele>11.1925</ele>
        <time>2012-06-17T17:52:11Z</time>
      </trkpt>
      <trkpt lat="60.1175095" lon="19.9352007">
        <ele>11.1925</ele>
        <time>2012-06-17T17:52:17Z</time>
      </trkpt>
      <trkpt lat="60.1173793" lon="19.9352723">
        <ele>13.5958</ele>
        <time>2012-06-17T17:52:22Z</time>
      </trkpt>
      <trkpt lat="60.117239" lon="19.9352676">
        <ele>13.5958</ele>
        <time>2012-06-17T17:52:27Z</time>
      </trkpt>
      <trkpt lat="60.1170924" lon="19.9351898">
        <ele>14.0764</ele>
        <time>2012-06-17T17:52:33Z</time>
      </trkpt>
      <trkpt lat="60.1169591" lon="19.9351347">
        <ele>14.557</ele>
        <time>2012-06-17T17:52:38Z</time>
      </trkpt>
      <trkpt lat="60.1167949" lon="19.9350826">
        <ele>16.4797</ele>
        <time>2012-06-17T17:52:44Z</time>
      </trkpt>
      <trkpt lat="60.1166407" lon="19.9350209">
        <ele>15.999</ele>
        <time>2012-06-17T17:52:50Z</time>
      </trkpt>
      <trkpt lat="60.1165107" lon="19.9349733">
        <ele>15.5184</ele>
        <time>2012-06-17T17:52:55Z</time>
      </trkpt>
      <trkpt lat="60.1163444" lon="19.9349355">
        <ele>14.557</ele>
        <time>2012-06-17T17:53:01Z</time>
      </trkpt>
      <trkpt lat="60.116202" lon="19.9349208">
        <ele>13.5958</ele>
        <time>2012-06-17T17:53:06Z</time>
      </trkpt>
      <trkpt lat="60.1160174" lon="19.9349733">
        <ele>13.5958</ele>
        <time>2012-06-17T17:53:13Z</time>
      </trkpt>
      <trkpt lat="60.1158565" lon="19.9350166">
        <ele>14.557</ele>
        <time>2012-06-17T17:53:19Z</time>
      </trkpt>
      <trkpt lat="60.1156705" lon="19.9350788">
        <ele>16.9604</ele>
        <time>2012-06-17T17:53:26Z</time>
      </trkpt>
      <trkpt lat="60.1155399" lon="19.9351174">
        <ele>16.4797</ele>
        <time>2012-06-17T17:53:31Z</time>
      </trkpt>
      <trkpt lat="60.1153752" lon="19.9351557">
        <ele>15.5184</ele>
        <time>2012-06-17T17:53:37Z</time>
      </trkpt>
      <trkpt lat="60.1152039" lon="19.9352093">
        <ele>14.557</ele>
        <time>2012-06-17T17:53:43Z</time>
      </trkpt>
      <trkpt lat="60.1150412" lon="19.9352466">
        <ele>15.0377</ele>
        <time>2012-06-17T17:53:49Z</time>
      </trkpt>
      <trkpt lat="60.1148475" lon="19.9353099">
        <ele>14.557</ele>
        <time>2012-06-17T17:53:56Z</time>
      </trkpt>
      <trkpt lat="60.1146721" lon="19.9353728">
        <ele>13.1151</ele>
        <time>2012-06-17T17:54:02Z</time>
      </trkpt>
      <trkpt lat="60.1145154" lon="19.9353229">
        <ele>13.1151</ele>
        <time>2012-06-17T17:54:08Z</time>
      </trkpt>
      <trkpt lat="60.1144686" lon="19.9351193">
        <ele>12.1538</ele>
        <time>2012-06-17T17:54:12Z</time>
      </trkpt>
      <trkpt lat="60.1144486" lon="19.9350163">
        <ele>11.6732</ele>
        <time>2012-06-17T17:54:14Z</time>
      </trkpt>
      <trkpt lat="60.1142682" lon="19.9348659">
        <ele>14.0764</ele>
        <time>2012-06-17T17:54:21Z</time>
      </trkpt>
      <trkpt lat="60.1141346" lon="19.9347786">
        <ele>15.0377</ele>
        <time>2012-06-17T17:54:26Z</time>
      </trkpt>
      <trkpt lat="60.1140437" lon="19.9345882">
        <ele>15.0377</ele>
        <time>2012-06-17T17:54:31Z</time>
      </trkpt>
      <trkpt lat="60.1140175" lon="19.9342573">
        <ele>13.1151</ele>
        <time>2012-06-17T17:54:37Z</time>
      </trkpt>
      <trkpt lat="60.1139932" lon="19.9339803">
        <ele>12.1538</ele>
        <time>2012-06-17T17:54:42Z</time>
      </trkpt>
      <trkpt lat="60.113974" lon="19.9335255">
        <ele>11.1925</ele>
        <time>2012-06-17T17:54:50Z</time>
      </trkpt>
      <trkpt lat="60.1139515" lon="19.9330842">
        <ele>10.2312</ele>
        <time>2012-06-17T17:54:58Z</time>
      </trkpt>
      <trkpt lat="60.1139221" lon="19.9329009">
        <ele>8.78918</ele>
        <time>2012-06-17T17:55:02Z</time>
      </trkpt>
      <trkpt lat="60.113782" lon="19.9329048">
        <ele>9.2699</ele>
        <time>2012-06-17T17:55:07Z</time>
      </trkpt>
      <trkpt lat="60.1137202" lon="19.9329365">
        <ele>9.2699</ele>
        <time>2012-06-17T17:55:09Z</time>
      </trkpt>
      <trkpt lat="60.1135525" lon="19.9330565">
        <ele>8.30859</ele>
        <time>2012-06-17T17:55:15Z</time>
      </trkpt>
      <trkpt lat="60.1133738" lon="19.9331596">
        <ele>5.90527</ele>
        <time>2012-06-17T17:55:21Z</time>
      </trkpt>
      <trkpt lat="60.1132432" lon="19.9332261">
        <ele>2.06006</ele>
        <time>2012-06-17T17:55:27Z</time>
      </trkpt>
      <trkpt lat="60.1130513" lon="19.9332863">
        <ele>5.90527</ele>
        <time>2012-06-17T17:55:34Z</time>
      </trkpt>
      <trkpt lat="60.1128717" lon="19.9333223">
        <ele>5.42456</ele>
        <time>2012-06-17T17:55:40Z</time>
      </trkpt>
      <trkpt lat="60.1126619" lon="19.9334005">
        <ele>6.86646</ele>
        <time>2012-06-17T17:55:47Z</time>
      </trkpt>
      <trkpt lat="60.1124951" lon="19.933474">
        <ele>7.34717</ele>
        <time>2012-06-17T17:55:53Z</time>
      </trkpt>
      <trkpt lat="60.1123581" lon="19.9335346">
        <ele>7.34717</ele>
        <time>2012-06-17T17:55:58Z</time>
      </trkpt>
      <trkpt lat="60.1122386" lon="19.9336011">
        <ele>6.38586</ele>
        <time>2012-06-17T17:56:02Z</time>
      </trkpt>
      <trkpt lat="60.1121162" lon="19.9336726">
        <ele>4.94385</ele>
        <time>2012-06-17T17:56:07Z</time>
      </trkpt>
      <trkpt lat="60.1119517" lon="19.9337485">
        <ele>6.86646</ele>
        <time>2012-06-17T17:56:13Z</time>
      </trkpt>
      <trkpt lat="60.1119133" lon="19.9336597">
        <ele>7.34717</ele>
        <time>2012-06-17T17:56:17Z</time>
      </trkpt>
      <trkpt lat="60.1120108" lon="19.9336721">
        <ele>19.8444</ele>
        <time>2012-06-17T18:00:36Z</time>
      </trkpt>
      <trkpt lat="60.1119336" lon="19.9337803">
        <ele>18.8831</ele>
        <time>2012-06-17T18:00:40Z</time>
      </trkpt>
      <trkpt lat="60.1119098" lon="19.9338076">
        <ele>18.8831</ele>
        <time>2012-06-17T18:00:41Z</time>
      </trkpt>
      <trkpt lat="60.1117422" lon="19.933901">
        <ele>16.4797</ele>
        <time>2012-06-17T18:00:47Z</time>
      </trkpt>
      <trkpt lat="60.1115814" lon="19.9339627">
        <ele>16.4797</ele>
        <time>2012-06-17T18:00:53Z</time>
      </trkpt>
      <trkpt lat="60.1114275" lon="19.9340057">
        <ele>15.0377</ele>
        <time>2012-06-17T18:00:58Z</time>
      </trkpt>
      <trkpt lat="60.1112395" lon="19.9340766">
        <ele>14.557</ele>
        <time>2012-06-17T18:01:04Z</time>
      </trkpt>
      <trkpt lat="60.111041" lon="19.9341407">
        <ele>15.999</ele>
        <time>2012-06-17T18:01:11Z</time>
      </trkpt>
      <trkpt lat="60.1108663" lon="19.9341549">
        <ele>15.999</ele>
        <time>2012-06-17T18:01:17Z</time>
      </trkpt>
      <trkpt lat="60.1106879" lon="19.9341501">
        <ele>14.0764</ele>
        <time>2012-06-17T18:01:24Z</time>
      </trkpt>
      <trkpt lat="60.1105552" lon="19.934177">
        <ele>14.0764</ele>
        <time>2012-06-17T18:01:29Z</time>
      </trkpt>
      <trkpt lat="60.110417" lon="19.934176">
        <ele>14.0764</ele>
        <time>2012-06-17T18:01:34Z</time>
      </trkpt>
      <trkpt lat="60.1102942" lon="19.9341243">
        <ele>13.1151</ele>
        <time>2012-06-17T18:01:39Z</time>
      </trkpt>
      <trkpt lat="60.1101852" lon="19.934001">
        <ele>13.1151</ele>
        <time>2012-06-17T18:01:44Z</time>
      </trkpt>
      <trkpt lat="60.1100243" lon="19.9340161">
        <ele>15.0377</ele>
        <time>2012-06-17T18:01:50Z</time>
      </trkpt>
      <trkpt lat="60.1098888" lon="19.9340497">
        <ele>15.5184</ele>
        <time>2012-06-17T18:01:55Z</time>
      </trkpt>
      <trkpt lat="60.1098598" lon="19.9340575">
        <ele>15.0377</ele>
        <time>2012-06-17T18:01:56Z</time>
      </trkpt>
      <trkpt lat="60.1096953" lon="19.9340702">
        <ele>13.5958</ele>
        <time>2012-06-17T18:02:02Z</time>
      </trkpt>
      <trkpt lat="60.1095568" lon="19.9340931">
        <ele>12.6344</ele>
        <time>2012-06-17T18:02:07Z</time>
      </trkpt>
      <trkpt lat="60.1093777" lon="19.9341202">
        <ele>11.6732</ele>
        <time>2012-06-17T18:02:13Z</time>
      </trkpt>
      <trkpt lat="60.1092527" lon="19.9341264">
        <ele>11.1925</ele>
        <time>2012-06-17T18:02:18Z</time>
      </trkpt>
      <trkpt lat="60.1091296" lon="19.9341344">
        <ele>10.7118</ele>
        <time>2012-06-17T18:02:23Z</time>
      </trkpt>
      <trkpt lat="60.1089924" lon="19.9341596">
        <ele>11.6732</ele>
        <time>2012-06-17T18:02:28Z</time>
      </trkpt>
      <trkpt lat="60.1088435" lon="19.9341801">
        <ele>11.6732</ele>
        <time>2012-06-17T18:02:34Z</time>
      </trkpt>
      <trkpt lat="60.1086217" lon="19.9342181">
        <ele>13.1151</ele>
        <time>2012-06-17T18:02:42Z</time>
      </trkpt>
      <trkpt lat="60.1084545" lon="19.9342362">
        <ele>14.0764</ele>
        <time>2012-06-17T18:02:48Z</time>
      </trkpt>
      <trkpt lat="60.1082455" lon="19.9342555">
        <ele>14.0764</ele>
        <time>2012-06-17T18:02:56Z</time>
      </trkpt>
      <trkpt lat="60.1081087" lon="19.9342713">
        <ele>13.5958</ele>
        <time>2012-06-17T18:03:02Z</time>
      </trkpt>
      <trkpt lat="60.107978" lon="19.9342902">
        <ele>11.6732</ele>
        <time>2012-06-17T18:03:07Z</time>
      </trkpt>
      <trkpt lat="60.1078005" lon="19.9343253">
        <ele>11.6732</ele>
        <time>2012-06-17T18:03:13Z</time>
      </trkpt>
      <trkpt lat="60.1076114" lon="19.9343574">
        <ele>12.6344</ele>
        <time>2012-06-17T18:03:19Z</time>
      </trkpt>
      <trkpt lat="60.107517" lon="19.9343648">
        <ele>13.1151</ele>
        <time>2012-06-17T18:03:23Z</time>
      </trkpt>
      <trkpt lat="60.1073725" lon="19.9343741">
        <ele>12.6344</ele>
        <time>2012-06-17T18:03:29Z</time>
      </trkpt>
      <trkpt lat="60.1072389" lon="19.9344113">
        <ele>12.1538</ele>
        <time>2012-06-17T18:03:34Z</time>
      </trkpt>
      <trkpt lat="60.1070991" lon="19.9344411">
        <ele>12.1538</ele>
        <time>2012-06-17T18:03:39Z</time>
      </trkpt>
      <trkpt lat="60.1069566" lon="19.934445">
        <ele>11.6732</ele>
        <time>2012-06-17T18:03:45Z</time>
      </trkpt>
      <trkpt lat="60.1068233" lon="19.9345217">
        <ele>10.7118</ele>
        <time>2012-06-17T18:03:50Z</time>
      </trkpt>
      <trkpt lat="60.1067244" lon="19.9345199">
        <ele>11.6732</ele>
        <time>2012-06-17T18:03:54Z</time>
      </trkpt>
      <trkpt lat="60.1066198" lon="19.9344834">
        <ele>12.1538</ele>
        <time>2012-06-17T18:03:58Z</time>
      </trkpt>
      <trkpt lat="60.106464" lon="19.934405">
        <ele>13.1151</ele>
        <time>2012-06-17T18:04:04Z</time>
      </trkpt>
      <trkpt lat="60.1063444" lon="19.9343507">
        <ele>15.0377</ele>
        <time>2012-06-17T18:04:08Z</time>
      </trkpt>
      <trkpt lat="60.1062044" lon="19.9341837">
        <ele>14.0764</ele>
        <time>2012-06-17T18:04:14Z</time>
      </trkpt>
      <trkpt lat="60.1060589" lon="19.9339834">
        <ele>12.6344</ele>
        <time>2012-06-17T18:04:20Z</time>
      </trkpt>
      <trkpt lat="60.1059649" lon="19.9337969">
        <ele>11.1925</ele>
        <time>2012-06-17T18:04:25Z</time>
      </trkpt>
      <trkpt lat="60.1058584" lon="19.9336188">
        <ele>11.6732</ele>
        <time>2012-06-17T18:04:30Z</time>
      </trkpt>
      <trkpt lat="60.1057175" lon="19.9334079">
        <ele>11.6732</ele>
        <time>2012-06-17T18:04:36Z</time>
      </trkpt>
      <trkpt lat="60.1055613" lon="19.9332194">
        <ele>11.6732</ele>
        <time>2012-06-17T18:04:43Z</time>
      </trkpt>
      <trkpt lat="60.1054705" lon="19.9331012">
        <ele>11.1925</ele>
        <time>2012-06-17T18:04:47Z</time>
      </trkpt>
      <trkpt lat="60.105301" lon="19.9329107">
        <ele>13.5958</ele>
        <time>2012-06-17T18:04:54Z</time>
      </trkpt>
      <trkpt lat="60.1052004" lon="19.9327846">
        <ele>14.0764</ele>
        <time>2012-06-17T18:04:59Z</time>
      </trkpt>
      <trkpt lat="60.105086" lon="19.9326431">
        <ele>14.557</ele>
        <time>2012-06-17T18:05:04Z</time>
      </trkpt>
      <trkpt lat="60.1050637" lon="19.9326126">
        <ele>15.0377</ele>
        <time>2012-06-17T18:05:05Z</time>
      </trkpt>
      <trkpt lat="60.1049766" lon="19.9324693">
        <ele>15.5184</ele>
        <time>2012-06-17T18:05:10Z</time>
      </trkpt>
      <trkpt lat="60.1048462" lon="19.9322829">
        <ele>19.3638</ele>
        <time>2012-06-17T18:05:16Z</time>
      </trkpt>
      <trkpt lat="60.1047441" lon="19.9321293">
        <ele>20.8057</ele>
        <time>2012-06-17T18:05:21Z</time>
      </trkpt>
      <trkpt lat="60.1046413" lon="19.9320077">
        <ele>20.8057</ele>
        <time>2012-06-17T18:05:26Z</time>
      </trkpt>
      <trkpt lat="60.104545" lon="19.931864">
        <ele>23.209</ele>
        <time>2012-06-17T18:05:31Z</time>
      </trkpt>
      <trkpt lat="60.1044329" lon="19.9317503">
        <ele>26.0929</ele>
        <time>2012-06-17T18:05:36Z</time>
      </trkpt>
      <trkpt lat="60.1042701" lon="19.9316205">
        <ele>28.0155</ele>
        <time>2012-06-17T18:05:42Z</time>
      </trkpt>
      <trkpt lat="60.1041418" lon="19.9315477">
        <ele>29.9381</ele>
        <time>2012-06-17T18:05:47Z</time>
      </trkpt>
      <trkpt lat="60.1039771" lon="19.9315068">
        <ele>28.4962</ele>
        <time>2012-06-17T18:05:53Z</time>
      </trkpt>
      <trkpt lat="60.1038458" lon="19.9315744">
        <ele>26.0929</ele>
        <time>2012-06-17T18:05:58Z</time>
      </trkpt>
      <trkpt lat="60.1037615" lon="19.9317077">
        <ele>24.1703</ele>
        <time>2012-06-17T18:06:02Z</time>
      </trkpt>
      <trkpt lat="60.1036382" lon="19.9319132">
        <ele>21.2864</ele>
        <time>2012-06-17T18:06:08Z</time>
      </trkpt>
      <trkpt lat="60.1035666" lon="19.9321082">
        <ele>21.2864</ele>
        <time>2012-06-17T18:06:13Z</time>
      </trkpt>
      <trkpt lat="60.1035216" lon="19.9321611">
        <ele>20.8057</ele>
        <time>2012-06-17T18:06:15Z</time>
      </trkpt>
      <trkpt lat="60.1034408" lon="19.9321873">
        <ele>21.767</ele>
        <time>2012-06-17T18:06:19Z</time>
      </trkpt>
      <trkpt lat="60.1034175" lon="19.9321847">
        <ele>22.7283</ele>
        <time>2012-06-17T18:06:20Z</time>
      </trkpt>
      <trkpt lat="60.1032436" lon="19.932163">
        <ele>22.7283</ele>
        <time>2012-06-17T18:06:27Z</time>
      </trkpt>
      <trkpt lat="60.1031241" lon="19.9322341">
        <ele>23.6896</ele>
        <time>2012-06-17T18:06:31Z</time>
      </trkpt>
      <trkpt lat="60.1029965" lon="19.9322937">
        <ele>24.651</ele>
        <time>2012-06-17T18:06:36Z</time>
      </trkpt>
      <trkpt lat="60.102873" lon="19.9324002">
        <ele>24.651</ele>
        <time>2012-06-17T18:06:41Z</time>
      </trkpt>
      <trkpt lat="60.1027481" lon="19.9324883">
        <ele>24.1703</ele>
        <time>2012-06-17T18:06:45Z</time>
      </trkpt>
      <trkpt lat="60.1025804" lon="19.9326339">
        <ele>25.1317</ele>
        <time>2012-06-17T18:06:52Z</time>
      </trkpt>
      <trkpt lat="60.1024681" lon="19.9327364">
        <ele>23.209</ele>
        <time>2012-06-17T18:06:56Z</time>
      </trkpt>
      <trkpt lat="60.1023326" lon="19.9327833">
        <ele>21.767</ele>
        <time>2012-06-17T18:07:01Z</time>
      </trkpt>
      <trkpt lat="60.1022199" lon="19.9328978">
        <ele>21.767</ele>
        <time>2012-06-17T18:07:06Z</time>
      </trkpt>
      <trkpt lat="60.1021059" lon="19.9330487">
        <ele>21.767</ele>
        <time>2012-06-17T18:07:11Z</time>
      </trkpt>
      <trkpt lat="60.1020116" lon="19.9330899">
        <ele>20.325</ele>
        <time>2012-06-17T18:07:15Z</time>
      </trkpt>
      <trkpt lat="60.1018918" lon="19.9331499">
        <ele>21.2864</ele>
        <time>2012-06-17T18:07:20Z</time>
      </trkpt>
      <trkpt lat="60.1017652" lon="19.933207">
        <ele>21.2864</ele>
        <time>2012-06-17T18:07:25Z</time>
      </trkpt>
      <trkpt lat="60.1015991" lon="19.9333046">
        <ele>20.325</ele>
        <time>2012-06-17T18:07:31Z</time>
      </trkpt>
      <trkpt lat="60.1014776" lon="19.9334079">
        <ele>18.8831</ele>
        <time>2012-06-17T18:07:36Z</time>
      </trkpt>
      <trkpt lat="60.1013832" lon="19.9336087">
        <ele>17.4412</ele>
        <time>2012-06-17T18:07:41Z</time>
      </trkpt>
      <trkpt lat="60.1013779" lon="19.9337673">
        <ele>15.5184</ele>
        <time>2012-06-17T18:07:45Z</time>
      </trkpt>
      <trkpt lat="60.1013836" lon="19.9340154">
        <ele>16.4797</ele>
        <time>2012-06-17T18:07:50Z</time>
      </trkpt>
      <trkpt lat="60.1014257" lon="19.9343589">
        <ele>15.999</ele>
        <time>2012-06-17T18:07:56Z</time>
      </trkpt>
      <trkpt lat="60.101429" lon="19.9346837">
        <ele>13.5958</ele>
        <time>2012-06-17T18:08:01Z</time>
      </trkpt>
      <trkpt lat="60.1014443" lon="19.9349863">
        <ele>14.557</ele>
        <time>2012-06-17T18:08:06Z</time>
      </trkpt>
      <trkpt lat="60.1013385" lon="19.9351301">
        <ele>14.557</ele>
        <time>2012-06-17T18:08:11Z</time>
      </trkpt>
      <trkpt lat="60.1011827" lon="19.9351602">
        <ele>13.1151</ele>
        <time>2012-06-17T18:08:16Z</time>
      </trkpt>
      <trkpt lat="60.1010405" lon="19.93518">
        <ele>12.1538</ele>
        <time>2012-06-17T18:08:21Z</time>
      </trkpt>
      <trkpt lat="60.1008921" lon="19.9353307">
        <ele>10.7118</ele>
        <time>2012-06-17T18:08:27Z</time>
      </trkpt>
      <trkpt lat="60.1007566" lon="19.9354443">
        <ele>10.7118</ele>
        <time>2012-06-17T18:08:32Z</time>
      </trkpt>
      <trkpt lat="60.1005542" lon="19.9355197">
        <ele>13.1151</ele>
        <time>2012-06-17T18:08:39Z</time>
      </trkpt>
      <trkpt lat="60.1003898" lon="19.9355735">
        <ele>13.1151</ele>
        <time>2012-06-17T18:08:45Z</time>
      </trkpt>
      <trkpt lat="60.1002561" lon="19.9356109">
        <ele>10.7118</ele>
        <time>2012-06-17T18:08:51Z</time>
      </trkpt>
      <trkpt lat="60.1000705" lon="19.9356503">
        <ele>7.82788</ele>
        <time>2012-06-17T18:08:58Z</time>
      </trkpt>
      <trkpt lat="60.0999021" lon="19.9356767">
        <ele>7.34717</ele>
        <time>2012-06-17T18:09:04Z</time>
      </trkpt>
      <trkpt lat="60.0997702" lon="19.9355649">
        <ele>6.38586</ele>
        <time>2012-06-17T18:09:09Z</time>
      </trkpt>
      <trkpt lat="60.09964" lon="19.9353639">
        <ele>5.90527</ele>
        <time>2012-06-17T18:09:15Z</time>
      </trkpt>
      <trkpt lat="60.0995454" lon="19.9352391">
        <ele>5.90527</ele>
        <time>2012-06-17T18:09:19Z</time>
      </trkpt>
      <trkpt lat="60.0994512" lon="19.9350671">
        <ele>6.86646</ele>
        <time>2012-06-17T18:09:24Z</time>
      </trkpt>
      <trkpt lat="60.0993372" lon="19.9349237">
        <ele>7.34717</ele>
        <time>2012-06-17T18:09:29Z</time>
      </trkpt>
      <trkpt lat="60.099189" lon="19.9347877">
        <ele>9.2699</ele>
        <time>2012-06-17T18:09:35Z</time>
      </trkpt>
      <trkpt lat="60.0990486" lon="19.9347915">
        <ele>10.2312</ele>
        <time>2012-06-17T18:09:40Z</time>
      </trkpt>
      <trkpt lat="60.098893" lon="19.934874">
        <ele>9.75061</ele>
        <time>2012-06-17T18:09:46Z</time>
      </trkpt>
      <trkpt lat="60.0987795" lon="19.9349174">
        <ele>8.78918</ele>
        <time>2012-06-17T18:09:51Z</time>
      </trkpt>
      <trkpt lat="60.0987015" lon="19.934903">
        <ele>7.34717</ele>
        <time>2012-06-17T18:09:55Z</time>
      </trkpt>
      <trkpt lat="60.0985789" lon="19.9349392">
        <ele>4.94385</ele>
        <time>2012-06-17T18:10:00Z</time>
      </trkpt>
      <trkpt lat="60.0984543" lon="19.9349262">
        <ele>3.98267</ele>
        <time>2012-06-17T18:10:04Z</time>
      </trkpt>
      <trkpt lat="60.0983905" lon="19.9349526">
        <ele>3.02124</ele>
        <time>2012-06-17T18:10:06Z</time>
      </trkpt>
      <trkpt lat="60.0982294" lon="19.9349669">
        <ele>3.50195</ele>
        <time>2012-06-17T18:10:12Z</time>
      </trkpt>
      <trkpt lat="60.0981059" lon="19.9349519">
        <ele>3.98267</ele>
        <time>2012-06-17T18:10:16Z</time>
      </trkpt>
      <trkpt lat="60.0979841" lon="19.9349486">
        <ele>3.02124</ele>
        <time>2012-06-17T18:10:20Z</time>
      </trkpt>
      <trkpt lat="60.0978241" lon="19.9349659">
        <ele>3.02124</ele>
        <time>2012-06-17T18:10:25Z</time>
      </trkpt>
      <trkpt lat="60.0976572" lon="19.9349681">
        <ele>4.46326</ele>
        <time>2012-06-17T18:10:31Z</time>
      </trkpt>
      <trkpt lat="60.0974428" lon="19.9350997">
        <ele>3.98267</ele>
        <time>2012-06-17T18:12:38Z</time>
      </trkpt>
      <trkpt lat="60.0972656" lon="19.9351231">
        <ele>2.54065</ele>
        <time>2012-06-17T18:12:44Z</time>
      </trkpt>
      <trkpt lat="60.0970842" lon="19.9351443">
        <ele>3.02124</ele>
        <time>2012-06-17T18:12:50Z</time>
      </trkpt>
      <trkpt lat="60.0970232" lon="19.9351338">
        <ele>3.02124</ele>
        <time>2012-06-17T18:12:52Z</time>
      </trkpt>
      <trkpt lat="60.096937" lon="19.934877">
        <ele>0</ele>
        <time>2012-06-17T18:12:58Z</time>
      </trkpt>
      <trkpt lat="60.0969345" lon="19.9348279">
        <ele>0</ele>
        <time>2012-06-17T18:12:59Z</time>
      </trkpt>
      <trkpt lat="60.096893" lon="19.9346718">
        <ele>0</ele>
        <time>2012-06-17T18:13:04Z</time>
      </trkpt>
      <trkpt lat="60.0967682" lon="19.934583">
        <ele>3.02124</ele>
        <time>2012-06-17T18:13:09Z</time>
      </trkpt>
      <trkpt lat="60.0965079" lon="19.9346667">
        <ele>0</ele>
        <time>2012-06-17T18:13:17Z</time>
      </trkpt>
      <trkpt lat="60.0963549" lon="19.9346932">
        <ele>0.618042</ele>
        <time>2012-06-17T18:13:22Z</time>
      </trkpt>
      <trkpt lat="60.096199" lon="19.9347286">
        <ele>0</ele>
        <time>2012-06-17T18:13:27Z</time>
      </trkpt>
      <trkpt lat="60.0960271" lon="19.9347687">
        <ele>0</ele>
        <time>2012-06-17T18:13:33Z</time>
      </trkpt>
      <trkpt lat="60.0958846" lon="19.9348087">
        <ele>0.618042</ele>
        <time>2012-06-17T18:13:38Z</time>
      </trkpt>
      <trkpt lat="60.0957132" lon="19.9348516">
        <ele>2.06006</ele>
        <time>2012-06-17T18:13:44Z</time>
      </trkpt>
      <trkpt lat="60.0955812" lon="19.9348936">
        <ele>3.02124</ele>
        <time>2012-06-17T18:13:49Z</time>
      </trkpt>
      <trkpt lat="60.09538" lon="19.9349496">
        <ele>3.98267</ele>
        <time>2012-06-17T18:13:56Z</time>
      </trkpt>
      <trkpt lat="60.0952426" lon="19.9349831">
        <ele>3.50195</ele>
        <time>2012-06-17T18:14:01Z</time>
      </trkpt>
      <trkpt lat="60.0951006" lon="19.9350325">
        <ele>5.90527</ele>
        <time>2012-06-17T18:14:07Z</time>
      </trkpt>
      <trkpt lat="60.0949806" lon="19.9350527">
        <ele>6.38586</ele>
        <time>2012-06-17T18:14:12Z</time>
      </trkpt>
      <trkpt lat="60.0948811" lon="19.9351005">
        <ele>6.86646</ele>
        <time>2012-06-17T18:14:16Z</time>
      </trkpt>
      <trkpt lat="60.0947466" lon="19.935137">
        <ele>7.82788</ele>
        <time>2012-06-17T18:14:21Z</time>
      </trkpt>
      <trkpt lat="60.0946122" lon="19.9351692">
        <ele>5.90527</ele>
        <time>2012-06-17T18:14:26Z</time>
      </trkpt>
      <trkpt lat="60.0944809" lon="19.9351865">
        <ele>6.86646</ele>
        <time>2012-06-17T18:14:31Z</time>
      </trkpt>
      <trkpt lat="60.0942736" lon="19.9352524">
        <ele>6.38586</ele>
        <time>2012-06-17T18:14:38Z</time>
      </trkpt>
      <trkpt lat="60.0941099" lon="19.9352852">
        <ele>4.94385</ele>
        <time>2012-06-17T18:14:44Z</time>
      </trkpt>
      <trkpt lat="60.0939514" lon="19.9353426">
        <ele>5.90527</ele>
        <time>2012-06-17T18:14:50Z</time>
      </trkpt>
      <trkpt lat="60.0938494" lon="19.9353504">
        <ele>10.2312</ele>
        <time>2012-06-17T18:14:55Z</time>
      </trkpt>
      <trkpt lat="60.093682" lon="19.9354134">
        <ele>13.5958</ele>
        <time>2012-06-17T18:15:01Z</time>
      </trkpt>
      <trkpt lat="60.0935767" lon="19.9354483">
        <ele>13.5958</ele>
        <time>2012-06-17T18:15:06Z</time>
      </trkpt>
      <trkpt lat="60.0934121" lon="19.9354872">
        <ele>11.1925</ele>
        <time>2012-06-17T18:15:13Z</time>
      </trkpt>
      <trkpt lat="60.0932579" lon="19.9355258">
        <ele>9.2699</ele>
        <time>2012-06-17T18:15:19Z</time>
      </trkpt>
      <trkpt lat="60.0931276" lon="19.935589">
        <ele>9.75061</ele>
        <time>2012-06-17T18:15:24Z</time>
      </trkpt>
      <trkpt lat="60.0929955" lon="19.9356995">
        <ele>9.2699</ele>
        <time>2012-06-17T18:15:29Z</time>
      </trkpt>
      <trkpt lat="60.0929079" lon="19.9357655">
        <ele>10.7118</ele>
        <time>2012-06-17T18:15:33Z</time>
      </trkpt>
      <trkpt lat="60.0928144" lon="19.9359262">
        <ele>10.2312</ele>
        <time>2012-06-17T18:15:38Z</time>
      </trkpt>
      <trkpt lat="60.0927323" lon="19.936236">
        <ele>11.1925</ele>
        <time>2012-06-17T18:15:44Z</time>
      </trkpt>
      <trkpt lat="60.0926848" lon="19.9364943">
        <ele>11.6732</ele>
        <time>2012-06-17T18:15:49Z</time>
      </trkpt>
      <trkpt lat="60.0926258" lon="19.9368266">
        <ele>12.6344</ele>
        <time>2012-06-17T18:15:55Z</time>
      </trkpt>
      <trkpt lat="60.0925959" lon="19.9370903">
        <ele>14.0764</ele>
        <time>2012-06-17T18:16:00Z</time>
      </trkpt>
      <trkpt lat="60.0925165" lon="19.9372868">
        <ele>16.9604</ele>
        <time>2012-06-17T18:16:05Z</time>
      </trkpt>
      <trkpt lat="60.0924537" lon="19.9374116">
        <ele>19.8444</ele>
        <time>2012-06-17T18:16:09Z</time>
      </trkpt>
      <trkpt lat="60.0924316" lon="19.9374375">
        <ele>19.8444</ele>
        <time>2012-06-17T18:16:10Z</time>
      </trkpt>
      <trkpt lat="60.0923588" lon="19.9374725">
        <ele>20.325</ele>
        <time>2012-06-17T18:16:14Z</time>
      </trkpt>
      <trkpt lat="60.0922522" lon="19.9375689">
        <ele>19.8444</ele>
        <time>2012-06-17T18:16:20Z</time>
      </trkpt>
      <trkpt lat="60.0921772" lon="19.9376276">
        <ele>21.2864</ele>
        <time>2012-06-17T18:16:24Z</time>
      </trkpt>
      <trkpt lat="60.0920352" lon="19.9376934">
        <ele>22.2476</ele>
        <time>2012-06-17T18:16:30Z</time>
      </trkpt>
      <trkpt lat="60.0919923" lon="19.9376908">
        <ele>22.2476</ele>
        <time>2012-06-17T18:16:32Z</time>
      </trkpt>
      <trkpt lat="60.0918735" lon="19.9376432">
        <ele>16.9604</ele>
        <time>2012-06-17T18:16:39Z</time>
      </trkpt>
      <trkpt lat="60.0918519" lon="19.9376317">
        <ele>15.999</ele>
        <time>2012-06-17T18:16:40Z</time>
      </trkpt>
      <trkpt lat="60.091816" lon="19.9376115">
        <ele>15.0377</ele>
        <time>2012-06-17T18:16:42Z</time>
      </trkpt>
      <trkpt lat="60.0916611" lon="19.9375836">
        <ele>20.325</ele>
        <time>2012-06-17T18:16:48Z</time>
      </trkpt>
      <trkpt lat="60.0916362" lon="19.9375768">
        <ele>22.2476</ele>
        <time>2012-06-17T18:16:49Z</time>
      </trkpt>
      <trkpt lat="60.0915849" lon="19.9375549">
        <ele>23.6896</ele>
        <time>2012-06-17T18:16:51Z</time>
      </trkpt>
      <trkpt lat="60.0914682" lon="19.9375484">
        <ele>26.0929</ele>
        <time>2012-06-17T18:16:57Z</time>
      </trkpt>
      <trkpt lat="60.0914295" lon="19.9375417">
        <ele>25.1317</ele>
        <time>2012-06-17T18:16:59Z</time>
      </trkpt>
      <trkpt lat="60.0913093" lon="19.9375938">
        <ele>22.7283</ele>
        <time>2012-06-17T18:17:05Z</time>
      </trkpt>
      <trkpt lat="60.0911872" lon="19.9376246">
        <ele>18.8831</ele>
        <time>2012-06-17T18:17:10Z</time>
      </trkpt>
      <trkpt lat="60.0910959" lon="19.9376473">
        <ele>17.4412</ele>
        <time>2012-06-17T18:17:14Z</time>
      </trkpt>
      <trkpt lat="60.0909644" lon="19.9376552">
        <ele>15.999</ele>
        <time>2012-06-17T18:17:19Z</time>
      </trkpt>
      <trkpt lat="60.0909258" lon="19.9376598">
        <ele>15.0377</ele>
        <time>2012-06-17T18:17:21Z</time>
      </trkpt>
      <trkpt lat="60.0908318" lon="19.9376582">
        <ele>11.6732</ele>
        <time>2012-06-17T18:17:25Z</time>
      </trkpt>
      <trkpt lat="60.0906573" lon="19.9377066">
        <ele>8.30859</ele>
        <time>2012-06-17T18:17:33Z</time>
      </trkpt>
      <trkpt lat="60.0906" lon="19.9377106">
        <ele>7.34717</ele>
        <time>2012-06-17T18:17:35Z</time>
      </trkpt>
      <trkpt lat="60.0904755" lon="19.9375949">
        <ele>3.98267</ele>
        <time>2012-06-17T18:17:40Z</time>
      </trkpt>
      <trkpt lat="60.0903111" lon="19.9375134">
        <ele>0.618042</ele>
        <time>2012-06-17T18:17:46Z</time>
      </trkpt>
      <trkpt lat="60.0901711" lon="19.9373805">
        <ele>0</ele>
        <time>2012-06-17T18:17:52Z</time>
      </trkpt>
      <trkpt lat="60.090101" lon="19.937285">
        <ele>0</ele>
        <time>2012-06-17T18:17:55Z</time>
      </trkpt>
      <trkpt lat="60.0899829" lon="19.9372018">
        <ele>2.06006</ele>
        <time>2012-06-17T18:18:00Z</time>
      </trkpt>
      <trkpt lat="60.0898947" lon="19.9370043">
        <ele>3.50195</ele>
        <time>2012-06-17T18:18:05Z</time>
      </trkpt>
      <trkpt lat="60.0898701" lon="19.936805">
        <ele>8.30859</ele>
        <time>2012-06-17T18:18:09Z</time>
      </trkpt>
      <trkpt lat="60.0898214" lon="19.9365745">
        <ele>11.6732</ele>
        <time>2012-06-17T18:18:14Z</time>
      </trkpt>
      <trkpt lat="60.0897403" lon="19.9363862">
        <ele>7.82788</ele>
        <time>2012-06-17T18:18:19Z</time>
      </trkpt>
      <trkpt lat="60.0896142" lon="19.9363004">
        <ele>3.50195</ele>
        <time>2012-06-17T18:18:23Z</time>
      </trkpt>
      <trkpt lat="60.0894512" lon="19.9363409">
        <ele>7.34717</ele>
        <time>2012-06-17T18:18:28Z</time>
      </trkpt>
      <trkpt lat="60.0894043" lon="19.9364243">
        <ele>6.86646</ele>
        <time>2012-06-17T18:18:30Z</time>
      </trkpt>
      <trkpt lat="60.0892811" lon="19.9367476">
        <ele>8.30859</ele>
        <time>2012-06-17T18:18:36Z</time>
      </trkpt>
      <trkpt lat="60.0891287" lon="19.9370864">
        <ele>9.2699</ele>
        <time>2012-06-17T18:18:41Z</time>
      </trkpt>
      <trkpt lat="60.0890957" lon="19.937149">
        <ele>10.2312</ele>
        <time>2012-06-17T18:18:42Z</time>
      </trkpt>
      <trkpt lat="60.0889817" lon="19.9373443">
        <ele>11.1925</ele>
        <time>2012-06-17T18:18:46Z</time>
      </trkpt>
      <trkpt lat="60.0888017" lon="19.9376183">
        <ele>11.6732</ele>
        <time>2012-06-17T18:18:53Z</time>
      </trkpt>
      <trkpt lat="60.0886623" lon="19.9377988">
        <ele>10.7118</ele>
        <time>2012-06-17T18:18:59Z</time>
      </trkpt>
      <trkpt lat="60.0885376" lon="19.9379247">
        <ele>10.7118</ele>
        <time>2012-06-17T18:19:04Z</time>
      </trkpt>
      <trkpt lat="60.088408" lon="19.938045">
        <ele>11.6732</ele>
        <time>2012-06-17T18:19:09Z</time>
      </trkpt>
      <trkpt lat="60.0882637" lon="19.9381516">
        <ele>13.5958</ele>
        <time>2012-06-17T18:19:15Z</time>
      </trkpt>
      <trkpt lat="60.0881061" lon="19.9382869">
        <ele>13.1151</ele>
        <time>2012-06-17T18:19:21Z</time>
      </trkpt>
      <trkpt lat="60.0879176" lon="19.9384098">
        <ele>13.1151</ele>
        <time>2012-06-17T18:19:28Z</time>
      </trkpt>
      <trkpt lat="60.0877512" lon="19.9384858">
        <ele>13.1151</ele>
        <time>2012-06-17T18:19:34Z</time>
      </trkpt>
      <trkpt lat="60.0875478" lon="19.9385985">
        <ele>16.4797</ele>
        <time>2012-06-17T18:19:41Z</time>
      </trkpt>
      <trkpt lat="60.0873644" lon="19.9386578">
        <ele>15.0377</ele>
        <time>2012-06-17T18:19:48Z</time>
      </trkpt>
      <trkpt lat="60.0872412" lon="19.9386843">
        <ele>13.5958</ele>
        <time>2012-06-17T18:19:52Z</time>
      </trkpt>
      <trkpt lat="60.0871007" lon="19.9387549">
        <ele>15.0377</ele>
        <time>2012-06-17T18:19:57Z</time>
      </trkpt>
      <trkpt lat="60.0869437" lon="19.9388807">
        <ele>17.4412</ele>
        <time>2012-06-17T18:20:03Z</time>
      </trkpt>
      <trkpt lat="60.0868089" lon="19.9389552">
        <ele>17.4412</ele>
        <time>2012-06-17T18:20:08Z</time>
      </trkpt>
      <trkpt lat="60.086652" lon="19.939016">
        <ele>15.999</ele>
        <time>2012-06-17T18:20:14Z</time>
      </trkpt>
      <trkpt lat="60.0864476" lon="19.9390646">
        <ele>15.0377</ele>
        <time>2012-06-17T18:20:21Z</time>
      </trkpt>
      <trkpt lat="60.0862496" lon="19.9391657">
        <ele>13.5958</ele>
        <time>2012-06-17T18:20:28Z</time>
      </trkpt>
      <trkpt lat="60.0860543" lon="19.9392749">
        <ele>14.557</ele>
        <time>2012-06-17T18:20:35Z</time>
      </trkpt>
      <trkpt lat="60.0858922" lon="19.9393816">
        <ele>14.557</ele>
        <time>2012-06-17T18:20:40Z</time>
      </trkpt>
      <trkpt lat="60.0857153" lon="19.9394966">
        <ele>15.0377</ele>
        <time>2012-06-17T18:20:46Z</time>
      </trkpt>
      <trkpt lat="60.0855534" lon="19.9396322">
        <ele>16.9604</ele>
        <time>2012-06-17T18:20:52Z</time>
      </trkpt>
      <trkpt lat="60.0853965" lon="19.9397427">
        <ele>17.4412</ele>
        <time>2012-06-17T18:20:58Z</time>
      </trkpt>
      <trkpt lat="60.0852586" lon="19.9397675">
        <ele>16.4797</ele>
        <time>2012-06-17T18:21:03Z</time>
      </trkpt>
      <trkpt lat="60.0852362" lon="19.9397375">
        <ele>15.5184</ele>
        <time>2012-06-17T18:21:04Z</time>
      </trkpt>
      <trkpt lat="60.0851901" lon="19.9394239">
        <ele>10.7118</ele>
        <time>2012-06-17T18:21:10Z</time>
      </trkpt>
      <trkpt lat="60.085157" lon="19.9392935">
        <ele>9.2699</ele>
        <time>2012-06-17T18:21:13Z</time>
      </trkpt>
      <trkpt lat="60.0849692" lon="19.9392795">
        <ele>8.30859</ele>
        <time>2012-06-17T18:21:19Z</time>
      </trkpt>
      <trkpt lat="60.0848172" lon="19.9393162">
        <ele>8.30859</ele>
        <time>2012-06-17T18:21:24Z</time>
      </trkpt>
      <trkpt lat="60.0846396" lon="19.9393535">
        <ele>9.2699</ele>
        <time>2012-06-17T18:21:30Z</time>
      </trkpt>
      <trkpt lat="60.0844862" lon="19.9393603">
        <ele>8.78918</ele>
        <time>2012-06-17T18:21:36Z</time>
      </trkpt>
      <trkpt lat="60.0843481" lon="19.9393465">
        <ele>7.34717</ele>
        <time>2012-06-17T18:21:41Z</time>
      </trkpt>
      <trkpt lat="60.0841654" lon="19.9393474">
        <ele>8.30859</ele>
        <time>2012-06-17T18:21:47Z</time>
      </trkpt>
      <trkpt lat="60.083966" lon="19.9393439">
        <ele>9.75061</ele>
        <time>2012-06-17T18:21:54Z</time>
      </trkpt>
      <trkpt lat="60.0838206" lon="19.9393344">
        <ele>10.2312</ele>
        <time>2012-06-17T18:21:59Z</time>
      </trkpt>
      <trkpt lat="60.0836583" lon="19.939339">
        <ele>11.1925</ele>
        <time>2012-06-17T18:22:05Z</time>
      </trkpt>
      <trkpt lat="60.0835011" lon="19.93935">
        <ele>11.6732</ele>
        <time>2012-06-17T18:22:11Z</time>
      </trkpt>
      <trkpt lat="60.0833399" lon="19.9394283">
        <ele>13.5958</ele>
        <time>2012-06-17T18:22:17Z</time>
      </trkpt>
      <trkpt lat="60.083212" lon="19.9395254">
        <ele>13.5958</ele>
        <time>2012-06-17T18:22:22Z</time>
      </trkpt>
      <trkpt lat="60.0830913" lon="19.9394708">
        <ele>14.0764</ele>
        <time>2012-06-17T18:22:27Z</time>
      </trkpt>
      <trkpt lat="60.0830111" lon="19.9394334">
        <ele>13.1151</ele>
        <time>2012-06-17T18:22:30Z</time>
      </trkpt>
      <trkpt lat="60.0829168" lon="19.939232">
        <ele>9.2699</ele>
        <time>2012-06-17T18:22:36Z</time>
      </trkpt>
      <trkpt lat="60.0829063" lon="19.9389294">
        <ele>5.42456</ele>
        <time>2012-06-17T18:22:42Z</time>
      </trkpt>
      <trkpt lat="60.082827" lon="19.9387479">
        <ele>3.50195</ele>
        <time>2012-06-17T18:22:48Z</time>
      </trkpt>
      <trkpt lat="60.0827054" lon="19.9386779">
        <ele>4.46326</ele>
        <time>2012-06-17T18:22:53Z</time>
      </trkpt>
      <trkpt lat="60.0825722" lon="19.9386931">
        <ele>5.90527</ele>
        <time>2012-06-17T18:22:58Z</time>
      </trkpt>
      <trkpt lat="60.0823996" lon="19.9387262">
        <ele>6.86646</ele>
        <time>2012-06-17T18:23:05Z</time>
      </trkpt>
      <trkpt lat="60.0822313" lon="19.9386843">
        <ele>7.34717</ele>
        <time>2012-06-17T18:23:11Z</time>
      </trkpt>
      <trkpt lat="60.0820961" lon="19.9387106">
        <ele>8.30859</ele>
        <time>2012-06-17T18:23:16Z</time>
      </trkpt>
      <trkpt lat="60.0819409" lon="19.9387169">
        <ele>5.90527</ele>
        <time>2012-06-17T18:23:22Z</time>
      </trkpt>
      <trkpt lat="60.0817782" lon="19.9387406">
        <ele>7.34717</ele>
        <time>2012-06-17T18:23:28Z</time>
      </trkpt>
      <trkpt lat="60.0816218" lon="19.9387781">
        <ele>4.94385</ele>
        <time>2012-06-17T18:23:34Z</time>
      </trkpt>
      <trkpt lat="60.0815445" lon="19.9387404">
        <ele>2.06006</ele>
        <time>2012-06-17T18:23:38Z</time>
      </trkpt>
      <trkpt lat="60.0814224" lon="19.9387962">
        <ele>2.06006</ele>
        <time>2012-06-17T18:23:43Z</time>
      </trkpt>
      <trkpt lat="60.0812245" lon="19.9388312">
        <ele>3.02124</ele>
        <time>2012-06-17T18:23:49Z</time>
      </trkpt>
      <trkpt lat="60.0811031" lon="19.9388958">
        <ele>3.98267</ele>
        <time>2012-06-17T18:23:54Z</time>
      </trkpt>
      <trkpt lat="60.0810633" lon="19.9388758">
        <ele>3.02124</ele>
        <time>2012-06-17T18:23:56Z</time>
      </trkpt>
      <trkpt lat="60.080856" lon="19.9389846">
        <ele>1.57935</ele>
        <time>2012-06-17T18:24:04Z</time>
      </trkpt>
      <trkpt lat="60.0807064" lon="19.9390656">
        <ele>0.618042</ele>
        <time>2012-06-17T18:24:10Z</time>
      </trkpt>
      <trkpt lat="60.0805148" lon="19.9391811">
        <ele>1.09863</ele>
        <time>2012-06-17T18:24:17Z</time>
      </trkpt>
      <trkpt lat="60.0803643" lon="19.9393237">
        <ele>2.54065</ele>
        <time>2012-06-17T18:24:23Z</time>
      </trkpt>
      <trkpt lat="60.08032" lon="19.9395354">
        <ele>2.54065</ele>
        <time>2012-06-17T18:24:27Z</time>
      </trkpt>
      <trkpt lat="60.0803258" lon="19.9398065">
        <ele>3.98267</ele>
        <time>2012-06-17T18:24:32Z</time>
      </trkpt>
      <trkpt lat="60.0802933" lon="19.9401927">
        <ele>4.94385</ele>
        <time>2012-06-17T18:24:39Z</time>
      </trkpt>
      <trkpt lat="60.0802412" lon="19.9404994">
        <ele>5.90527</ele>
        <time>2012-06-17T18:24:45Z</time>
      </trkpt>
      <trkpt lat="60.0802364" lon="19.9407674">
        <ele>6.86646</ele>
        <time>2012-06-17T18:24:50Z</time>
      </trkpt>
      <trkpt lat="60.0802795" lon="19.9410005">
        <ele>9.2699</ele>
        <time>2012-06-17T18:24:55Z</time>
      </trkpt>
      <trkpt lat="60.0803467" lon="19.9412462">
        <ele>10.2312</ele>
        <time>2012-06-17T18:25:00Z</time>
      </trkpt>
      <trkpt lat="60.0804374" lon="19.941624">
        <ele>8.30859</ele>
        <time>2012-06-17T18:25:08Z</time>
      </trkpt>
      <trkpt lat="60.0804748" lon="19.9418116">
        <ele>8.78918</ele>
        <time>2012-06-17T18:25:12Z</time>
      </trkpt>
      <trkpt lat="60.0805005" lon="19.9420763">
        <ele>9.2699</ele>
        <time>2012-06-17T18:25:17Z</time>
      </trkpt>
      <trkpt lat="60.0805219" lon="19.9422835">
        <ele>10.7118</ele>
        <time>2012-06-17T18:25:21Z</time>
      </trkpt>
      <trkpt lat="60.0804328" lon="19.9424452">
        <ele>12.1538</ele>
        <time>2012-06-17T18:25:26Z</time>
      </trkpt>
      <trkpt lat="60.0803148" lon="19.9425516">
        <ele>13.1151</ele>
        <time>2012-06-17T18:25:30Z</time>
      </trkpt>
      <trkpt lat="60.0801869" lon="19.942661">
        <ele>12.1538</ele>
        <time>2012-06-17T18:25:35Z</time>
      </trkpt>
      <trkpt lat="60.0800348" lon="19.9427793">
        <ele>11.6732</ele>
        <time>2012-06-17T18:25:41Z</time>
      </trkpt>
      <trkpt lat="60.0800159" lon="19.9428">
        <ele>11.6732</ele>
        <time>2012-06-17T18:25:42Z</time>
      </trkpt>
      <trkpt lat="60.0799572" lon="19.9427828">
        <ele>9.2699</ele>
        <time>2012-06-17T18:25:46Z</time>
      </trkpt>
      <trkpt lat="60.0797921" lon="19.9426933">
        <ele>2.06006</ele>
        <time>2012-06-17T18:25:52Z</time>
      </trkpt>
      <trkpt lat="60.0795946" lon="19.9427368">
        <ele>0.137451</ele>
        <time>2012-06-17T18:25:58Z</time>
      </trkpt>
      <trkpt lat="60.0794558" lon="19.9428205">
        <ele>2.06006</ele>
        <time>2012-06-17T18:26:03Z</time>
      </trkpt>
      <trkpt lat="60.0793373" lon="19.942923">
        <ele>1.57935</ele>
        <time>2012-06-17T18:26:08Z</time>
      </trkpt>
      <trkpt lat="60.0791819" lon="19.9430242">
        <ele>0</ele>
        <time>2012-06-17T18:26:14Z</time>
      </trkpt>
      <trkpt lat="60.0791492" lon="19.9430449">
        <ele>0</ele>
        <time>2012-06-17T18:26:15Z</time>
      </trkpt>
      <trkpt lat="60.0789587" lon="19.9431531">
        <ele>0</ele>
        <time>2012-06-17T18:26:22Z</time>
      </trkpt>
      <trkpt lat="60.0788724" lon="19.9431917">
        <ele>0</ele>
        <time>2012-06-17T18:26:27Z</time>
      </trkpt>
      <trkpt lat="60.078665" lon="19.9432571">
        <ele>0</ele>
        <time>2012-06-17T18:26:34Z</time>
      </trkpt>
      <trkpt lat="60.0785085" lon="19.9433167">
        <ele>0</ele>
        <time>2012-06-17T18:26:39Z</time>
      </trkpt>
      <trkpt lat="60.0783427" lon="19.9433588">
        <ele>0</ele>
        <time>2012-06-17T18:26:45Z</time>
      </trkpt>
      <trkpt lat="60.0782073" lon="19.94335">
        <ele>0</ele>
        <time>2012-06-17T18:26:50Z</time>
      </trkpt>
      <trkpt lat="60.0780454" lon="19.9434226">
        <ele>0</ele>
        <time>2012-06-17T18:26:55Z</time>
      </trkpt>
      <trkpt lat="60.0779009" lon="19.9435365">
        <ele>0</ele>
        <time>2012-06-17T18:27:00Z</time>
      </trkpt>
      <trkpt lat="60.0777588" lon="19.943654">
        <ele>0</ele>
        <time>2012-06-17T18:27:06Z</time>
      </trkpt>
      <trkpt lat="60.0776253" lon="19.9437547">
        <ele>0</ele>
        <time>2012-06-17T18:27:11Z</time>
      </trkpt>
      <trkpt lat="60.0774787" lon="19.943836">
        <ele>0</ele>
        <time>2012-06-17T18:27:17Z</time>
      </trkpt>
      <trkpt lat="60.0772902" lon="19.9439086">
        <ele>0</ele>
        <time>2012-06-17T18:27:23Z</time>
      </trkpt>
      <trkpt lat="60.0771056" lon="19.9438961">
        <ele>0</ele>
        <time>2012-06-17T18:27:30Z</time>
      </trkpt>
      <trkpt lat="60.0769399" lon="19.9438914">
        <ele>0</ele>
        <time>2012-06-17T18:27:35Z</time>
      </trkpt>
      <trkpt lat="60.0767916" lon="19.9439212">
        <ele>0</ele>
        <time>2012-06-17T18:27:40Z</time>
      </trkpt>
      <trkpt lat="60.0766873" lon="19.9439742">
        <ele>0</ele>
        <time>2012-06-17T18:27:43Z</time>
      </trkpt>
      <trkpt lat="60.0765187" lon="19.9440707">
        <ele>0</ele>
        <time>2012-06-17T18:27:49Z</time>
      </trkpt>
      <trkpt lat="60.0763924" lon="19.9440996">
        <ele>0</ele>
        <time>2012-06-17T18:27:54Z</time>
      </trkpt>
      <trkpt lat="60.0762518" lon="19.9441329">
        <ele>0</ele>
        <time>2012-06-17T18:27:59Z</time>
      </trkpt>
      <trkpt lat="60.0760995" lon="19.9441623">
        <ele>0</ele>
        <time>2012-06-17T18:28:05Z</time>
      </trkpt>
      <trkpt lat="60.0760501" lon="19.9441825">
        <ele>0</ele>
        <time>2012-06-17T18:28:07Z</time>
      </trkpt>
      <trkpt lat="60.0758913" lon="19.9443006">
        <ele>0</ele>
        <time>2012-06-17T18:28:13Z</time>
      </trkpt>
      <trkpt lat="60.07579" lon="19.944411">
        <ele>0</ele>
        <time>2012-06-17T18:28:17Z</time>
      </trkpt>
      <trkpt lat="60.0756563" lon="19.9445972">
        <ele>0</ele>
        <time>2012-06-17T18:28:22Z</time>
      </trkpt>
      <trkpt lat="60.0756079" lon="19.9447024">
        <ele>0</ele>
        <time>2012-06-17T18:28:25Z</time>
      </trkpt>
      <trkpt lat="60.0754895" lon="19.9448399">
        <ele>0</ele>
        <time>2012-06-17T18:28:32Z</time>
      </trkpt>
      <trkpt lat="60.0754662" lon="19.9448488">
        <ele>0</ele>
        <time>2012-06-17T18:28:33Z</time>
      </trkpt>
      <trkpt lat="60.0753213" lon="19.9450039">
        <ele>0</ele>
        <time>2012-06-17T18:28:39Z</time>
      </trkpt>
      <trkpt lat="60.0751978" lon="19.9452036">
        <ele>0</ele>
        <time>2012-06-17T18:28:44Z</time>
      </trkpt>
      <trkpt lat="60.0750571" lon="19.9454951">
        <ele>0</ele>
        <time>2012-06-17T18:28:51Z</time>
      </trkpt>
      <trkpt lat="60.0749917" lon="19.9459462">
        <ele>0</ele>
        <time>2012-06-17T18:28:57Z</time>
      </trkpt>
      <trkpt lat="60.0749659" lon="19.9463011">
        <ele>0</ele>
        <time>2012-06-17T18:29:03Z</time>
      </trkpt>
      <trkpt lat="60.0749684" lon="19.9467788">
        <ele>0</ele>
        <time>2012-06-17T18:29:11Z</time>
      </trkpt>
      <trkpt lat="60.0749488" lon="19.9471113">
        <ele>0</ele>
        <time>2012-06-17T18:29:17Z</time>
      </trkpt>
      <trkpt lat="60.0749433" lon="19.9472917">
        <ele>1.09863</ele>
        <time>2012-06-17T18:29:20Z</time>
      </trkpt>
      <trkpt lat="60.0749469" lon="19.9476252">
        <ele>4.46326</ele>
        <time>2012-06-17T18:29:26Z</time>
      </trkpt>
      <trkpt lat="60.0749905" lon="19.9480084">
        <ele>6.38586</ele>
        <time>2012-06-17T18:29:33Z</time>
      </trkpt>
      <trkpt lat="60.0750502" lon="19.9483236">
        <ele>10.7118</ele>
        <time>2012-06-17T18:29:39Z</time>
      </trkpt>
      <trkpt lat="60.0751264" lon="19.9486841">
        <ele>13.5958</ele>
        <time>2012-06-17T18:29:46Z</time>
      </trkpt>
      <trkpt lat="60.0751751" lon="19.9488778">
        <ele>13.1151</ele>
        <time>2012-06-17T18:29:50Z</time>
      </trkpt>
      <trkpt lat="60.075242" lon="19.9492293">
        <ele>12.1538</ele>
        <time>2012-06-17T18:29:57Z</time>
      </trkpt>
      <trkpt lat="60.0752987" lon="19.9495202">
        <ele>9.75061</ele>
        <time>2012-06-17T18:30:03Z</time>
      </trkpt>
      <trkpt lat="60.0753761" lon="19.9499411">
        <ele>10.7118</ele>
        <time>2012-06-17T18:30:11Z</time>
      </trkpt>
      <trkpt lat="60.0754511" lon="19.9502254">
        <ele>10.7118</ele>
        <time>2012-06-17T18:30:17Z</time>
      </trkpt>
      <trkpt lat="60.0755657" lon="19.9505224">
        <ele>12.1538</ele>
        <time>2012-06-17T18:30:24Z</time>
      </trkpt>
      <trkpt lat="60.0756644" lon="19.9507037">
        <ele>13.1151</ele>
        <time>2012-06-17T18:30:29Z</time>
      </trkpt>
      <trkpt lat="60.075802" lon="19.950861">
        <ele>13.5958</ele>
        <time>2012-06-17T18:30:35Z</time>
      </trkpt>
      <trkpt lat="60.0759468" lon="19.95099">
        <ele>14.557</ele>
        <time>2012-06-17T18:30:41Z</time>
      </trkpt>
      <trkpt lat="60.0760803" lon="19.9510741">
        <ele>16.9604</ele>
        <time>2012-06-17T18:30:46Z</time>
      </trkpt>
      <trkpt lat="60.0762002" lon="19.9511239">
        <ele>16.9604</ele>
        <time>2012-06-17T18:30:50Z</time>
      </trkpt>
      <trkpt lat="60.0763416" lon="19.9511747">
        <ele>16.9604</ele>
        <time>2012-06-17T18:30:55Z</time>
      </trkpt>
      <trkpt lat="60.0764727" lon="19.951241">
        <ele>17.9218</ele>
        <time>2012-06-17T18:31:00Z</time>
      </trkpt>
      <trkpt lat="60.0765923" lon="19.9514527">
        <ele>19.3638</ele>
        <time>2012-06-17T18:31:06Z</time>
      </trkpt>
      <trkpt lat="60.0767074" lon="19.9517557">
        <ele>20.8057</ele>
        <time>2012-06-17T18:31:13Z</time>
      </trkpt>
      <trkpt lat="60.0768186" lon="19.9520645">
        <ele>22.7283</ele>
        <time>2012-06-17T18:31:20Z</time>
      </trkpt>
      <trkpt lat="60.0769098" lon="19.9522713">
        <ele>24.1703</ele>
        <time>2012-06-17T18:31:25Z</time>
      </trkpt>
      <trkpt lat="60.0770062" lon="19.9525096">
        <ele>26.0929</ele>
        <time>2012-06-17T18:31:31Z</time>
      </trkpt>
      <trkpt lat="60.0770492" lon="19.952769">
        <ele>24.1703</ele>
        <time>2012-06-17T18:31:36Z</time>
      </trkpt>
      <trkpt lat="60.0769698" lon="19.9528318">
        <ele>22.7283</ele>
        <time>2012-06-17T18:31:40Z</time>
      </trkpt>
      <trkpt lat="60.076818" lon="19.9528027">
        <ele>23.6896</ele>
        <time>2012-06-17T18:31:46Z</time>
      </trkpt>
      <trkpt lat="60.0766281" lon="19.9529321">
        <ele>22.7283</ele>
        <time>2012-06-17T18:31:53Z</time>
      </trkpt>
      <trkpt lat="60.0764547" lon="19.9530602">
        <ele>22.7283</ele>
        <time>2012-06-17T18:32:00Z</time>
      </trkpt>
      <trkpt lat="60.0763047" lon="19.9531752">
        <ele>23.209</ele>
        <time>2012-06-17T18:32:06Z</time>
      </trkpt>
      <trkpt lat="60.0762043" lon="19.9532651">
        <ele>22.7283</ele>
        <time>2012-06-17T18:32:11Z</time>
      </trkpt>
      <trkpt lat="60.0760892" lon="19.9533969">
        <ele>23.6896</ele>
        <time>2012-06-17T18:32:17Z</time>
      </trkpt>
      <trkpt lat="60.0759296" lon="19.9535326">
        <ele>24.1703</ele>
        <time>2012-06-17T18:32:23Z</time>
      </trkpt>
      <trkpt lat="60.0757095" lon="19.9536557">
        <ele>23.209</ele>
        <time>2012-06-17T18:32:31Z</time>
      </trkpt>
      <trkpt lat="60.075539" lon="19.9537023">
        <ele>24.1703</ele>
        <time>2012-06-17T18:32:37Z</time>
      </trkpt>
      <trkpt lat="60.0753578" lon="19.9536211">
        <ele>21.2864</ele>
        <time>2012-06-17T18:32:43Z</time>
      </trkpt>
      <trkpt lat="60.075242" lon="19.9535215">
        <ele>18.4023</ele>
        <time>2012-06-17T18:32:48Z</time>
      </trkpt>
      <trkpt lat="60.0751231" lon="19.9534291">
        <ele>15.999</ele>
        <time>2012-06-17T18:32:53Z</time>
      </trkpt>
      <trkpt lat="60.0749951" lon="19.9533741">
        <ele>13.1151</ele>
        <time>2012-06-17T18:32:58Z</time>
      </trkpt>
      <trkpt lat="60.0748622" lon="19.9533638">
        <ele>15.5184</ele>
        <time>2012-06-17T18:33:03Z</time>
      </trkpt>
      <trkpt lat="60.0746678" lon="19.9533405">
        <ele>16.9604</ele>
        <time>2012-06-17T18:33:10Z</time>
      </trkpt>
      <trkpt lat="60.0745363" lon="19.9533374">
        <ele>18.4023</ele>
        <time>2012-06-17T18:33:15Z</time>
      </trkpt>
      <trkpt lat="60.0743459" lon="19.9533483">
        <ele>19.8444</ele>
        <time>2012-06-17T18:33:22Z</time>
      </trkpt>
      <trkpt lat="60.0741436" lon="19.9533508">
        <ele>21.767</ele>
        <time>2012-06-17T18:33:29Z</time>
      </trkpt>
      <trkpt lat="60.0740091" lon="19.9533299">
        <ele>18.4023</ele>
        <time>2012-06-17T18:33:34Z</time>
      </trkpt>
      <trkpt lat="60.0738284" lon="19.9534369">
        <ele>16.4797</ele>
        <time>2012-06-17T18:33:41Z</time>
      </trkpt>
      <trkpt lat="60.0736629" lon="19.953718">
        <ele>15.0377</ele>
        <time>2012-06-17T18:33:48Z</time>
      </trkpt>
      <trkpt lat="60.0735107" lon="19.9539112">
        <ele>11.1925</ele>
        <time>2012-06-17T18:33:55Z</time>
      </trkpt>
      <trkpt lat="60.0733409" lon="19.9539274">
        <ele>9.75061</ele>
        <time>2012-06-17T18:34:01Z</time>
      </trkpt>
      <trkpt lat="60.0731517" lon="19.9538875">
        <ele>8.78918</ele>
        <time>2012-06-17T18:34:08Z</time>
      </trkpt>
      <trkpt lat="60.0729868" lon="19.9538333">
        <ele>6.38586</ele>
        <time>2012-06-17T18:34:14Z</time>
      </trkpt>
      <trkpt lat="60.0728526" lon="19.9538989">
        <ele>6.86646</ele>
        <time>2012-06-17T18:34:19Z</time>
      </trkpt>
      <trkpt lat="60.0727242" lon="19.9540006">
        <ele>7.82788</ele>
        <time>2012-06-17T18:34:24Z</time>
      </trkpt>
      <trkpt lat="60.0726373" lon="19.9540526">
        <ele>6.86646</ele>
        <time>2012-06-17T18:34:28Z</time>
      </trkpt>
      <trkpt lat="60.0725356" lon="19.9541524">
        <ele>8.78918</ele>
        <time>2012-06-17T18:34:33Z</time>
      </trkpt>
      <trkpt lat="60.0724087" lon="19.9542152">
        <ele>8.30859</ele>
        <time>2012-06-17T18:34:38Z</time>
      </trkpt>
      <trkpt lat="60.0722669" lon="19.9542277">
        <ele>5.42456</ele>
        <time>2012-06-17T18:34:43Z</time>
      </trkpt>
      <trkpt lat="60.0721261" lon="19.9542625">
        <ele>2.54065</ele>
        <time>2012-06-17T18:34:48Z</time>
      </trkpt>
      <trkpt lat="60.0720006" lon="19.9542536">
        <ele>1.57935</ele>
        <time>2012-06-17T18:34:52Z</time>
      </trkpt>
      <trkpt lat="60.0718267" lon="19.9542734">
        <ele>1.57935</ele>
        <time>2012-06-17T18:34:57Z</time>
      </trkpt>
      <trkpt lat="60.0717987" lon="19.9542723">
        <ele>1.57935</ele>
        <time>2012-06-17T18:34:58Z</time>
      </trkpt>
      <trkpt lat="60.0716931" lon="19.9542853">
        <ele>1.09863</ele>
        <time>2012-06-17T18:35:02Z</time>
      </trkpt>
      <trkpt lat="60.0715159" lon="19.9543132">
        <ele>1.09863</ele>
        <time>2012-06-17T18:35:09Z</time>
      </trkpt>
      <trkpt lat="60.0713926" lon="19.95434">
        <ele>1.57935</ele>
        <time>2012-06-17T18:35:14Z</time>
      </trkpt>
      <trkpt lat="60.0713667" lon="19.9543411">
        <ele>0.618042</ele>
        <time>2012-06-17T18:35:15Z</time>
      </trkpt>
      <trkpt lat="60.0712851" lon="19.9543863">
        <ele>0.618042</ele>
        <time>2012-06-17T18:35:19Z</time>
      </trkpt>
      <trkpt lat="60.0711154" lon="19.954422">
        <ele>0</ele>
        <time>2012-06-17T18:35:25Z</time>
      </trkpt>
      <trkpt lat="60.0709465" lon="19.9544453">
        <ele>0</ele>
        <time>2012-06-17T18:35:30Z</time>
      </trkpt>
      <trkpt lat="60.0707575" lon="19.954481">
        <ele>0</ele>
        <time>2012-06-17T18:35:36Z</time>
      </trkpt>
      <trkpt lat="60.0705356" lon="19.9545417">
        <ele>0</ele>
        <time>2012-06-17T18:35:44Z</time>
      </trkpt>
      <trkpt lat="60.0703379" lon="19.9546116">
        <ele>0</ele>
        <time>2012-06-17T18:35:51Z</time>
      </trkpt>
      <trkpt lat="60.0701747" lon="19.954682">
        <ele>0</ele>
        <time>2012-06-17T18:35:57Z</time>
      </trkpt>
      <trkpt lat="60.0700085" lon="19.9547675">
        <ele>0</ele>
        <time>2012-06-17T18:36:03Z</time>
      </trkpt>
      <trkpt lat="60.0698791" lon="19.9548468">
        <ele>0</ele>
        <time>2012-06-17T18:36:08Z</time>
      </trkpt>
      <trkpt lat="60.0696815" lon="19.9549875">
        <ele>0</ele>
        <time>2012-06-17T18:36:15Z</time>
      </trkpt>
      <trkpt lat="60.0695607" lon="19.9550581">
        <ele>0</ele>
        <time>2012-06-17T18:36:19Z</time>
      </trkpt>
      <trkpt lat="60.0694038" lon="19.9551299">
        <ele>0</ele>
        <time>2012-06-17T18:36:26Z</time>
      </trkpt>
      <trkpt lat="60.0693067" lon="19.9551446">
        <ele>0</ele>
        <time>2012-06-17T18:36:30Z</time>
      </trkpt>
      <trkpt lat="60.0691728" lon="19.9551037">
        <ele>0</ele>
        <time>2012-06-17T18:36:35Z</time>
      </trkpt>
      <trkpt lat="60.0690215" lon="19.9550502">
        <ele>0</ele>
        <time>2012-06-17T18:36:40Z</time>
      </trkpt>
      <trkpt lat="60.0689855" lon="19.9550383">
        <ele>0</ele>
        <time>2012-06-17T18:36:41Z</time>
      </trkpt>
      <trkpt lat="60.0688253" lon="19.9550508">
        <ele>0</ele>
        <time>2012-06-17T18:36:47Z</time>
      </trkpt>
      <trkpt lat="60.0687175" lon="19.9550657">
        <ele>0</ele>
        <time>2012-06-17T18:36:53Z</time>
      </trkpt>
      <trkpt lat="60.0686322" lon="19.9550593">
        <ele>0</ele>
        <time>2012-06-17T18:36:57Z</time>
      </trkpt>
      <trkpt lat="60.0685886" lon="19.9550422">
        <ele>0</ele>
        <time>2012-06-17T18:37:00Z</time>
      </trkpt>
      <trkpt lat="60.0685079" lon="19.9550203">
        <ele>0</ele>
        <time>2012-06-17T18:37:05Z</time>
      </trkpt>
      <trkpt lat="60.0684214" lon="19.9549576">
        <ele>0</ele>
        <time>2012-06-17T18:37:09Z</time>
      </trkpt>
      <trkpt lat="60.0683694" lon="19.9549439">
        <ele>0</ele>
        <time>2012-06-17T18:37:11Z</time>
      </trkpt>
      <trkpt lat="60.0683167" lon="19.954897">
        <ele>0</ele>
        <time>2012-06-17T18:37:15Z</time>
      </trkpt>
      <trkpt lat="60.0682784" lon="19.9548981">
        <ele>0</ele>
        <time>2012-06-17T18:37:17Z</time>
      </trkpt>
      <trkpt lat="60.0681906" lon="19.9548966">
        <ele>0</ele>
        <time>2012-06-17T18:37:21Z</time>
      </trkpt>
      <trkpt lat="60.0681631" lon="19.9549132">
        <ele>0</ele>
        <time>2012-06-17T18:37:24Z</time>
      </trkpt>
      <trkpt lat="60.0681446" lon="19.9549089">
        <ele>0</ele>
        <time>2012-06-17T18:37:27Z</time>
      </trkpt>
      <trkpt lat="60.0680691" lon="19.9548188">
        <ele>0</ele>
        <time>2012-06-17T18:37:34Z</time>
      </trkpt>
      <trkpt lat="60.0679292" lon="19.9546472">
        <ele>1.09863</ele>
        <time>2012-06-17T18:37:39Z</time>
      </trkpt>
      <trkpt lat="60.0678084" lon="19.9544764">
        <ele>1.57935</ele>
        <time>2012-06-17T18:37:43Z</time>
      </trkpt>
      <trkpt lat="60.067727" lon="19.9542967">
        <ele>4.94385</ele>
        <time>2012-06-17T18:37:47Z</time>
      </trkpt>
      <trkpt lat="60.0676432" lon="19.9541413">
        <ele>9.75061</ele>
        <time>2012-06-17T18:37:51Z</time>
      </trkpt>
      <trkpt lat="60.06755" lon="19.9539366">
        <ele>8.78918</ele>
        <time>2012-06-17T18:37:55Z</time>
      </trkpt>
      <trkpt lat="60.0673104" lon="19.9536505">
        <ele>2.54065</ele>
        <time>2012-06-17T18:38:01Z</time>
      </trkpt>
      <trkpt lat="60.0672164" lon="19.9535277">
        <ele>2.06006</ele>
        <time>2012-06-17T18:38:04Z</time>
      </trkpt>
      <trkpt lat="60.0670082" lon="19.9532099">
        <ele>0.618042</ele>
        <time>2012-06-17T18:38:11Z</time>
      </trkpt>
      <trkpt lat="60.0668991" lon="19.9530395">
        <ele>0.618042</ele>
        <time>2012-06-17T18:38:14Z</time>
      </trkpt>
      <trkpt lat="60.0666573" lon="19.9526053">
        <ele>0</ele>
        <time>2012-06-17T18:38:22Z</time>
      </trkpt>
      <trkpt lat="60.0665222" lon="19.9523592">
        <ele>0</ele>
        <time>2012-06-17T18:38:28Z</time>
      </trkpt>
      <trkpt lat="60.066377" lon="19.9522458">
        <ele>0</ele>
        <time>2012-06-17T18:38:33Z</time>
      </trkpt>
      <trkpt lat="60.0662269" lon="19.9522262">
        <ele>0</ele>
        <time>2012-06-17T18:38:39Z</time>
      </trkpt>
      <trkpt lat="60.066071" lon="19.9521757">
        <ele>0</ele>
        <time>2012-06-17T18:38:45Z</time>
      </trkpt>
      <trkpt lat="60.0659222" lon="19.95207">
        <ele>0</ele>
        <time>2012-06-17T18:38:51Z</time>
      </trkpt>
      <trkpt lat="60.0657839" lon="19.9519671">
        <ele>1.09863</ele>
        <time>2012-06-17T18:38:57Z</time>
      </trkpt>
      <trkpt lat="60.0656535" lon="19.9519504">
        <ele>2.06006</ele>
        <time>2012-06-17T18:39:02Z</time>
      </trkpt>
      <trkpt lat="60.0654927" lon="19.9519889">
        <ele>2.54065</ele>
        <time>2012-06-17T18:39:08Z</time>
      </trkpt>
      <trkpt lat="60.0653519" lon="19.9520361">
        <ele>4.46326</ele>
        <time>2012-06-17T18:39:14Z</time>
      </trkpt>
      <trkpt lat="60.0651971" lon="19.9520578">
        <ele>4.94385</ele>
        <time>2012-06-17T18:39:20Z</time>
      </trkpt>
      <trkpt lat="60.0650807" lon="19.9520871">
        <ele>4.46326</ele>
        <time>2012-06-17T18:39:25Z</time>
      </trkpt>
      <trkpt lat="60.0649082" lon="19.9521133">
        <ele>2.54065</ele>
        <time>2012-06-17T18:39:31Z</time>
      </trkpt>
      <trkpt lat="60.0647553" lon="19.9521586">
        <ele>2.06006</ele>
        <time>2012-06-17T18:39:37Z</time>
      </trkpt>
      <trkpt lat="60.0645596" lon="19.9522126">
        <ele>1.09863</ele>
        <time>2012-06-17T18:39:44Z</time>
      </trkpt>
      <trkpt lat="60.0643828" lon="19.9523203">
        <ele>1.57935</ele>
        <time>2012-06-17T18:39:51Z</time>
      </trkpt>
      <trkpt lat="60.0642129" lon="19.9523716">
        <ele>1.09863</ele>
        <time>2012-06-17T18:39:57Z</time>
      </trkpt>
      <trkpt lat="60.0640554" lon="19.9524707">
        <ele>1.09863</ele>
        <time>2012-06-17T18:40:03Z</time>
      </trkpt>
      <trkpt lat="60.0638219" lon="19.9525007">
        <ele>0</ele>
        <time>2012-06-17T18:40:11Z</time>
      </trkpt>
      <trkpt lat="60.0636776" lon="19.9524708">
        <ele>0</ele>
        <time>2012-06-17T18:40:16Z</time>
      </trkpt>
      <trkpt lat="60.0635969" lon="19.9522681">
        <ele>0</ele>
        <time>2012-06-17T18:40:22Z</time>
      </trkpt>
      <trkpt lat="60.0635892" lon="19.9522323">
        <ele>0</ele>
        <time>2012-06-17T18:40:23Z</time>
      </trkpt>
      <trkpt lat="60.063523" lon="19.9520089">
        <ele>0</ele>
        <time>2012-06-17T18:40:28Z</time>
      </trkpt>
      <trkpt lat="60.0635074" lon="19.9519647">
        <ele>0</ele>
        <time>2012-06-17T18:40:29Z</time>
      </trkpt>
      <trkpt lat="60.0634072" lon="19.9518826">
        <ele>0</ele>
        <time>2012-06-17T18:40:34Z</time>
      </trkpt>
      <trkpt lat="60.0632557" lon="19.9519593">
        <ele>0</ele>
        <time>2012-06-17T18:40:40Z</time>
      </trkpt>
      <trkpt lat="60.0631262" lon="19.9521628">
        <ele>0</ele>
        <time>2012-06-17T18:40:46Z</time>
      </trkpt>
      <trkpt lat="60.0630214" lon="19.9524199">
        <ele>0</ele>
        <time>2012-06-17T18:40:52Z</time>
      </trkpt>
      <trkpt lat="60.0629386" lon="19.9526841">
        <ele>0</ele>
        <time>2012-06-17T18:40:58Z</time>
      </trkpt>
      <trkpt lat="60.0629287" lon="19.9527193">
        <ele>0</ele>
        <time>2012-06-17T18:40:59Z</time>
      </trkpt>
      <trkpt lat="60.062877" lon="19.9527903">
        <ele>0</ele>
        <time>2012-06-17T18:41:04Z</time>
      </trkpt>
      <trkpt lat="60.0627546" lon="19.9530793">
        <ele>0</ele>
        <time>2012-06-17T18:41:11Z</time>
      </trkpt>
      <trkpt lat="60.0626748" lon="19.9533026">
        <ele>0.618042</ele>
        <time>2012-06-17T18:41:16Z</time>
      </trkpt>
      <trkpt lat="60.0626387" lon="19.9534171">
        <ele>0.137451</ele>
        <time>2012-06-17T18:41:19Z</time>
      </trkpt>
      <trkpt lat="60.0626838" lon="19.9535813">
        <ele>2.54065</ele>
        <time>2012-06-17T18:41:24Z</time>
      </trkpt>
      <trkpt lat="60.0626864" lon="19.9535594">
        <ele>0.137451</ele>
        <time>2012-06-17T18:42:14Z</time>
      </trkpt>
      <trkpt lat="60.0627406" lon="19.953614">
        <ele>3.02124</ele>
        <time>2012-06-17T18:42:16Z</time>
      </trkpt>
      <trkpt lat="60.062936" lon="19.9538544">
        <ele>6.86646</ele>
        <time>2012-06-17T18:42:24Z</time>
      </trkpt>
      <trkpt lat="60.0630609" lon="19.9539065">
        <ele>8.30859</ele>
        <time>2012-06-17T18:42:29Z</time>
      </trkpt>
      <trkpt lat="60.0631467" lon="19.9539569">
        <ele>7.82788</ele>
        <time>2012-06-17T18:42:33Z</time>
      </trkpt>
      <trkpt lat="60.0633064" lon="19.9540505">
        <ele>11.1925</ele>
        <time>2012-06-17T18:42:39Z</time>
      </trkpt>
      <trkpt lat="60.063467" lon="19.954263">
        <ele>13.5958</ele>
        <time>2012-06-17T18:42:46Z</time>
      </trkpt>
      <trkpt lat="60.0635596" lon="19.9545477">
        <ele>15.0377</ele>
        <time>2012-06-17T18:42:52Z</time>
      </trkpt>
      <trkpt lat="60.0636347" lon="19.9548494">
        <ele>13.1151</ele>
        <time>2012-06-17T18:42:58Z</time>
      </trkpt>
      <trkpt lat="60.0637193" lon="19.9551084">
        <ele>14.557</ele>
        <time>2012-06-17T18:43:03Z</time>
      </trkpt>
      <trkpt lat="60.0638363" lon="19.9553105">
        <ele>14.0764</ele>
        <time>2012-06-17T18:43:08Z</time>
      </trkpt>
      <trkpt lat="60.0639517" lon="19.9555741">
        <ele>9.75061</ele>
        <time>2012-06-17T18:43:14Z</time>
      </trkpt>
      <trkpt lat="60.0641135" lon="19.9558503">
        <ele>8.78918</ele>
        <time>2012-06-17T18:43:21Z</time>
      </trkpt>
      <trkpt lat="60.064228" lon="19.9560942">
        <ele>8.78918</ele>
        <time>2012-06-17T18:43:27Z</time>
      </trkpt>
      <trkpt lat="60.0642588" lon="19.9563733">
        <ele>6.38586</ele>
        <time>2012-06-17T18:43:32Z</time>
      </trkpt>
      <trkpt lat="60.064257" lon="19.9566561">
        <ele>5.90527</ele>
        <time>2012-06-17T18:43:37Z</time>
      </trkpt>
      <trkpt lat="60.0642332" lon="19.9569753">
        <ele>4.46326</ele>
        <time>2012-06-17T18:43:43Z</time>
      </trkpt>
      <trkpt lat="60.0642335" lon="19.957314">
        <ele>2.54065</ele>
        <time>2012-06-17T18:43:49Z</time>
      </trkpt>
      <trkpt lat="60.0642709" lon="19.957597">
        <ele>1.09863</ele>
        <time>2012-06-17T18:43:54Z</time>
      </trkpt>
      <trkpt lat="60.0643182" lon="19.9578384">
        <ele>1.09863</ele>
        <time>2012-06-17T18:43:59Z</time>
      </trkpt>
      <trkpt lat="60.0644311" lon="19.9580284">
        <ele>0.137451</ele>
        <time>2012-06-17T18:44:05Z</time>
      </trkpt>
      <trkpt lat="60.0646129" lon="19.9582636">
        <ele>0.618042</ele>
        <time>2012-06-17T18:44:13Z</time>
      </trkpt>
      <trkpt lat="60.064773" lon="19.9585333">
        <ele>4.94385</ele>
        <time>2012-06-17T18:44:20Z</time>
      </trkpt>
      <trkpt lat="60.0649164" lon="19.9587707">
        <ele>7.34717</ele>
        <time>2012-06-17T18:44:26Z</time>
      </trkpt>
      <trkpt lat="60.0649434" lon="19.9588855">
        <ele>8.30859</ele>
        <time>2012-06-17T18:44:28Z</time>
      </trkpt>
      <trkpt lat="60.0648656" lon="19.9590668">
        <ele>7.82788</ele>
        <time>2012-06-17T18:44:33Z</time>
      </trkpt>
      <trkpt lat="60.064844" lon="19.9590785">
        <ele>7.82788</ele>
        <time>2012-06-17T18:44:34Z</time>
      </trkpt>
      <trkpt lat="60.0647246" lon="19.9591255">
        <ele>6.86646</ele>
        <time>2012-06-17T18:44:40Z</time>
      </trkpt>
      <trkpt lat="60.0646038" lon="19.9591369">
        <ele>5.42456</ele>
        <time>2012-06-17T18:44:45Z</time>
      </trkpt>
      <trkpt lat="60.0644459" lon="19.9591576">
        <ele>3.50195</ele>
        <time>2012-06-17T18:44:51Z</time>
      </trkpt>
      <trkpt lat="60.064314" lon="19.9591655">
        <ele>2.54065</ele>
        <time>2012-06-17T18:44:56Z</time>
      </trkpt>
      <trkpt lat="60.0641923" lon="19.9591811">
        <ele>1.09863</ele>
        <time>2012-06-17T18:45:01Z</time>
      </trkpt>
      <trkpt lat="60.0640378" lon="19.9592039">
        <ele>0.618042</ele>
        <time>2012-06-17T18:45:07Z</time>
      </trkpt>
      <trkpt lat="60.0639677" lon="19.9592069">
        <ele>1.09863</ele>
        <time>2012-06-17T18:45:10Z</time>
      </trkpt>
      <trkpt lat="60.0637907" lon="19.9592054">
        <ele>2.54065</ele>
        <time>2012-06-17T18:45:16Z</time>
      </trkpt>
      <trkpt lat="60.0635974" lon="19.9592396">
        <ele>2.06006</ele>
        <time>2012-06-17T18:45:23Z</time>
      </trkpt>
      <trkpt lat="60.063456" lon="19.9592546">
        <ele>3.50195</ele>
        <time>2012-06-17T18:45:28Z</time>
      </trkpt>
      <trkpt lat="60.0633065" lon="19.9592732">
        <ele>3.02124</ele>
        <time>2012-06-17T18:45:33Z</time>
      </trkpt>
      <trkpt lat="60.0631614" lon="19.9592747">
        <ele>2.54065</ele>
        <time>2012-06-17T18:45:38Z</time>
      </trkpt>
      <trkpt lat="60.0629928" lon="19.9592866">
        <ele>1.57935</ele>
        <time>2012-06-17T18:45:44Z</time>
      </trkpt>
      <trkpt lat="60.0628488" lon="19.9592897">
        <ele>3.98267</ele>
        <time>2012-06-17T18:45:49Z</time>
      </trkpt>
      <trkpt lat="60.0626564" lon="19.9593128">
        <ele>6.38586</ele>
        <time>2012-06-17T18:45:55Z</time>
      </trkpt>
      <trkpt lat="60.0624969" lon="19.9593322">
        <ele>7.82788</ele>
        <time>2012-06-17T18:46:00Z</time>
      </trkpt>
      <trkpt lat="60.0622441" lon="19.9593624">
        <ele>11.1925</ele>
        <time>2012-06-17T18:46:08Z</time>
      </trkpt>
      <trkpt lat="60.0620029" lon="19.9594113">
        <ele>14.0764</ele>
        <time>2012-06-17T18:46:16Z</time>
      </trkpt>
      <trkpt lat="60.0618268" lon="19.9594279">
        <ele>15.0377</ele>
        <time>2012-06-17T18:46:22Z</time>
      </trkpt>
      <trkpt lat="60.0616219" lon="19.9594413">
        <ele>14.557</ele>
        <time>2012-06-17T18:46:29Z</time>
      </trkpt>
      <trkpt lat="60.0614514" lon="19.9594336">
        <ele>13.5958</ele>
        <time>2012-06-17T18:46:35Z</time>
      </trkpt>
      <trkpt lat="60.0612951" lon="19.9594305">
        <ele>12.1538</ele>
        <time>2012-06-17T18:46:41Z</time>
      </trkpt>
      <trkpt lat="60.0611282" lon="19.9594408">
        <ele>12.1538</ele>
        <time>2012-06-17T18:46:47Z</time>
      </trkpt>
      <trkpt lat="60.0609623" lon="19.9594596">
        <ele>12.1538</ele>
        <time>2012-06-17T18:46:53Z</time>
      </trkpt>
      <trkpt lat="60.0607655" lon="19.9594533">
        <ele>11.6732</ele>
        <time>2012-06-17T18:47:00Z</time>
      </trkpt>
      <trkpt lat="60.0606556" lon="19.9594574">
        <ele>11.1925</ele>
        <time>2012-06-17T18:47:04Z</time>
      </trkpt>
      <trkpt lat="60.0604847" lon="19.959467">
        <ele>10.7118</ele>
        <time>2012-06-17T18:47:10Z</time>
      </trkpt>
      <trkpt lat="60.0602652" lon="19.9594739">
        <ele>10.2312</ele>
        <time>2012-06-17T18:47:18Z</time>
      </trkpt>
      <trkpt lat="60.0601009" lon="19.9594886">
        <ele>10.2312</ele>
        <time>2012-06-17T18:47:24Z</time>
      </trkpt>
      <trkpt lat="60.059933" lon="19.9595121">
        <ele>10.2312</ele>
        <time>2012-06-17T18:47:30Z</time>
      </trkpt>
      <trkpt lat="60.0597146" lon="19.9595517">
        <ele>10.7118</ele>
        <time>2012-06-17T18:47:38Z</time>
      </trkpt>
      <trkpt lat="60.0595487" lon="19.959602">
        <ele>10.7118</ele>
        <time>2012-06-17T18:47:44Z</time>
      </trkpt>
      <trkpt lat="60.0593818" lon="19.9596601">
        <ele>10.7118</ele>
        <time>2012-06-17T18:47:50Z</time>
      </trkpt>
      <trkpt lat="60.0592722" lon="19.9596798">
        <ele>9.75061</ele>
        <time>2012-06-17T18:47:54Z</time>
      </trkpt>
      <trkpt lat="60.0591292" lon="19.9597487">
        <ele>9.75061</ele>
        <time>2012-06-17T18:47:59Z</time>
      </trkpt>
      <trkpt lat="60.0589619" lon="19.9598237">
        <ele>9.75061</ele>
        <time>2012-06-17T18:48:05Z</time>
      </trkpt>
      <trkpt lat="60.0588338" lon="19.9599045">
        <ele>10.2312</ele>
        <time>2012-06-17T18:48:10Z</time>
      </trkpt>
      <trkpt lat="60.0587096" lon="19.9599756">
        <ele>9.2699</ele>
        <time>2012-06-17T18:48:15Z</time>
      </trkpt>
      <trkpt lat="60.0585583" lon="19.9601059">
        <ele>10.7118</ele>
        <time>2012-06-17T18:48:21Z</time>
      </trkpt>
      <trkpt lat="60.0584101" lon="19.9602393">
        <ele>11.6732</ele>
        <time>2012-06-17T18:48:27Z</time>
      </trkpt>
      <trkpt lat="60.0582828" lon="19.9603552">
        <ele>12.1538</ele>
        <time>2012-06-17T18:48:32Z</time>
      </trkpt>
      <trkpt lat="60.0581358" lon="19.9604838">
        <ele>11.6732</ele>
        <time>2012-06-17T18:48:38Z</time>
      </trkpt>
      <trkpt lat="60.0579979" lon="19.9606268">
        <ele>12.1538</ele>
        <time>2012-06-17T18:48:44Z</time>
      </trkpt>
      <trkpt lat="60.0578785" lon="19.9607636">
        <ele>13.1151</ele>
        <time>2012-06-17T18:48:49Z</time>
      </trkpt>
      <trkpt lat="60.0577767" lon="19.9608888">
        <ele>13.1151</ele>
        <time>2012-06-17T18:48:53Z</time>
      </trkpt>
      <trkpt lat="60.0576165" lon="19.9610979">
        <ele>14.0764</ele>
        <time>2012-06-17T18:49:00Z</time>
      </trkpt>
      <trkpt lat="60.0575064" lon="19.9612422">
        <ele>14.557</ele>
        <time>2012-06-17T18:49:05Z</time>
      </trkpt>
      <trkpt lat="60.0573729" lon="19.9614344">
        <ele>15.0377</ele>
        <time>2012-06-17T18:49:11Z</time>
      </trkpt>
      <trkpt lat="60.0572643" lon="19.9616041">
        <ele>15.0377</ele>
        <time>2012-06-17T18:49:16Z</time>
      </trkpt>
      <trkpt lat="60.0571176" lon="19.9618207">
        <ele>13.1151</ele>
        <time>2012-06-17T18:49:23Z</time>
      </trkpt>
      <trkpt lat="60.0569887" lon="19.9620434">
        <ele>13.1151</ele>
        <time>2012-06-17T18:49:29Z</time>
      </trkpt>
      <trkpt lat="60.0568707" lon="19.9622574">
        <ele>13.1151</ele>
        <time>2012-06-17T18:49:35Z</time>
      </trkpt>
      <trkpt lat="60.0567524" lon="19.9624684">
        <ele>11.6732</ele>
        <time>2012-06-17T18:49:41Z</time>
      </trkpt>
      <trkpt lat="60.0566162" lon="19.9627556">
        <ele>11.6732</ele>
        <time>2012-06-17T18:49:48Z</time>
      </trkpt>
      <trkpt lat="60.0564925" lon="19.9630423">
        <ele>11.1925</ele>
        <time>2012-06-17T18:49:55Z</time>
      </trkpt>
      <trkpt lat="60.0563737" lon="19.9633287">
        <ele>11.1925</ele>
        <time>2012-06-17T18:50:02Z</time>
      </trkpt>
      <trkpt lat="60.0562569" lon="19.9636482">
        <ele>10.7118</ele>
        <time>2012-06-17T18:50:09Z</time>
      </trkpt>
      <trkpt lat="60.0561615" lon="19.9639368">
        <ele>10.7118</ele>
        <time>2012-06-17T18:50:15Z</time>
      </trkpt>
      <trkpt lat="60.0560697" lon="19.9642301">
        <ele>10.7118</ele>
        <time>2012-06-17T18:50:21Z</time>
      </trkpt>
      <trkpt lat="60.0559932" lon="19.9645124">
        <ele>10.7118</ele>
        <time>2012-06-17T18:50:27Z</time>
      </trkpt>
      <trkpt lat="60.0558938" lon="19.9649519">
        <ele>11.6732</ele>
        <time>2012-06-17T18:50:36Z</time>
      </trkpt>
      <trkpt lat="60.0558383" lon="19.9651831">
        <ele>11.6732</ele>
        <time>2012-06-17T18:50:41Z</time>
      </trkpt>
      <trkpt lat="60.0557564" lon="19.9655359">
        <ele>10.7118</ele>
        <time>2012-06-17T18:50:48Z</time>
      </trkpt>
      <trkpt lat="60.055687" lon="19.9658244">
        <ele>8.30859</ele>
        <time>2012-06-17T18:50:54Z</time>
      </trkpt>
      <trkpt lat="60.0556249" lon="19.9660779">
        <ele>5.42456</ele>
        <time>2012-06-17T18:51:00Z</time>
      </trkpt>
      <trkpt lat="60.0555663" lon="19.9663543">
        <ele>3.98267</ele>
        <time>2012-06-17T18:51:06Z</time>
      </trkpt>
      <trkpt lat="60.0554939" lon="19.9666475">
        <ele>2.54065</ele>
        <time>2012-06-17T18:51:12Z</time>
      </trkpt>
      <trkpt lat="60.0554231" lon="19.9669253">
        <ele>1.09863</ele>
        <time>2012-06-17T18:51:18Z</time>
      </trkpt>
      <trkpt lat="60.0553565" lon="19.9671714">
        <ele>0.137451</ele>
        <time>2012-06-17T18:51:23Z</time>
      </trkpt>
      <trkpt lat="60.0552782" lon="19.9674332">
        <ele>0</ele>
        <time>2012-06-17T18:51:29Z</time>
      </trkpt>
      <trkpt lat="60.0552137" lon="19.9676633">
        <ele>0</ele>
        <time>2012-06-17T18:51:34Z</time>
      </trkpt>
      <trkpt lat="60.0551388" lon="19.9679206">
        <ele>0</ele>
        <time>2012-06-17T18:51:39Z</time>
      </trkpt>
      <trkpt lat="60.0550472" lon="19.9682393">
        <ele>0.137451</ele>
        <time>2012-06-17T18:51:45Z</time>
      </trkpt>
      <trkpt lat="60.0549463" lon="19.9685087">
        <ele>0.618042</ele>
        <time>2012-06-17T18:51:51Z</time>
      </trkpt>
      <trkpt lat="60.0548365" lon="19.9687553">
        <ele>2.06006</ele>
        <time>2012-06-17T18:51:57Z</time>
      </trkpt>
      <trkpt lat="60.0547182" lon="19.968997">
        <ele>3.50195</ele>
        <time>2012-06-17T18:52:03Z</time>
      </trkpt>
      <trkpt lat="60.0546145" lon="19.969191">
        <ele>4.46326</ele>
        <time>2012-06-17T18:52:08Z</time>
      </trkpt>
      <trkpt lat="60.0544938" lon="19.9694048">
        <ele>5.90527</ele>
        <time>2012-06-17T18:52:14Z</time>
      </trkpt>
      <trkpt lat="60.0543674" lon="19.9696267">
        <ele>7.34717</ele>
        <time>2012-06-17T18:52:20Z</time>
      </trkpt>
      <trkpt lat="60.0542375" lon="19.9698452">
        <ele>8.78918</ele>
        <time>2012-06-17T18:52:26Z</time>
      </trkpt>
      <trkpt lat="60.0541027" lon="19.9700467">
        <ele>10.2312</ele>
        <time>2012-06-17T18:52:32Z</time>
      </trkpt>
      <trkpt lat="60.0539375" lon="19.9702633">
        <ele>11.6732</ele>
        <time>2012-06-17T18:52:39Z</time>
      </trkpt>
      <trkpt lat="60.0538492" lon="19.9703695">
        <ele>12.1538</ele>
        <time>2012-06-17T18:52:43Z</time>
      </trkpt>
      <trkpt lat="60.0537339" lon="19.9705316">
        <ele>13.5958</ele>
        <time>2012-06-17T18:52:48Z</time>
      </trkpt>
      <trkpt lat="60.0535905" lon="19.9707044">
        <ele>15.5184</ele>
        <time>2012-06-17T18:52:54Z</time>
      </trkpt>
      <trkpt lat="60.053447" lon="19.9708728">
        <ele>16.4797</ele>
        <time>2012-06-17T18:53:00Z</time>
      </trkpt>
      <trkpt lat="60.0532716" lon="19.9710307">
        <ele>15.5184</ele>
        <time>2012-06-17T18:53:07Z</time>
      </trkpt>
      <trkpt lat="60.0531496" lon="19.9711661">
        <ele>15.0377</ele>
        <time>2012-06-17T18:53:12Z</time>
      </trkpt>
      <trkpt lat="60.0529892" lon="19.9713282">
        <ele>13.5958</ele>
        <time>2012-06-17T18:53:19Z</time>
      </trkpt>
      <trkpt lat="60.0528541" lon="19.971484">
        <ele>12.6344</ele>
        <time>2012-06-17T18:53:25Z</time>
      </trkpt>
      <trkpt lat="60.0527686" lon="19.9715907">
        <ele>11.6732</ele>
        <time>2012-06-17T18:53:29Z</time>
      </trkpt>
      <trkpt lat="60.0526456" lon="19.971725">
        <ele>11.6732</ele>
        <time>2012-06-17T18:53:34Z</time>
      </trkpt>
      <trkpt lat="60.0524898" lon="19.9718804">
        <ele>10.7118</ele>
        <time>2012-06-17T18:53:40Z</time>
      </trkpt>
      <trkpt lat="60.052328" lon="19.9720424">
        <ele>9.75061</ele>
        <time>2012-06-17T18:53:46Z</time>
      </trkpt>
      <trkpt lat="60.0521867" lon="19.9721812">
        <ele>8.78918</ele>
        <time>2012-06-17T18:53:51Z</time>
      </trkpt>
      <trkpt lat="60.0520084" lon="19.9723674">
        <ele>8.78918</ele>
        <time>2012-06-17T18:53:58Z</time>
      </trkpt>
      <trkpt lat="60.0518558" lon="19.972517">
        <ele>7.82788</ele>
        <time>2012-06-17T18:54:04Z</time>
      </trkpt>
      <trkpt lat="60.0517064" lon="19.9726407">
        <ele>6.86646</ele>
        <time>2012-06-17T18:54:10Z</time>
      </trkpt>
      <trkpt lat="60.0516086" lon="19.9727356">
        <ele>6.38586</ele>
        <time>2012-06-17T18:54:14Z</time>
      </trkpt>
      <trkpt lat="60.0514519" lon="19.9728958">
        <ele>7.34717</ele>
        <time>2012-06-17T18:54:20Z</time>
      </trkpt>
      <trkpt lat="60.0512694" lon="19.9730665">
        <ele>7.82788</ele>
        <time>2012-06-17T18:54:27Z</time>
      </trkpt>
      <trkpt lat="60.0511115" lon="19.973203">
        <ele>7.82788</ele>
        <time>2012-06-17T18:54:33Z</time>
      </trkpt>
      <trkpt lat="60.0509527" lon="19.9733211">
        <ele>8.30859</ele>
        <time>2012-06-17T18:54:39Z</time>
      </trkpt>
      <trkpt lat="60.0507923" lon="19.9734143">
        <ele>8.30859</ele>
        <time>2012-06-17T18:54:45Z</time>
      </trkpt>
      <trkpt lat="60.0506336" lon="19.9734924">
        <ele>8.30859</ele>
        <time>2012-06-17T18:54:51Z</time>
      </trkpt>
      <trkpt lat="60.050473" lon="19.973579">
        <ele>9.2699</ele>
        <time>2012-06-17T18:54:57Z</time>
      </trkpt>
      <trkpt lat="60.0503063" lon="19.9736638">
        <ele>9.2699</ele>
        <time>2012-06-17T18:55:03Z</time>
      </trkpt>
      <trkpt lat="60.0501397" lon="19.9737382">
        <ele>9.75061</ele>
        <time>2012-06-17T18:55:09Z</time>
      </trkpt>
      <trkpt lat="60.0500024" lon="19.9737939">
        <ele>10.2312</ele>
        <time>2012-06-17T18:55:14Z</time>
      </trkpt>
      <trkpt lat="60.0498372" lon="19.9738619">
        <ele>10.2312</ele>
        <time>2012-06-17T18:55:20Z</time>
      </trkpt>
      <trkpt lat="60.0496673" lon="19.9739131">
        <ele>9.75061</ele>
        <time>2012-06-17T18:55:26Z</time>
      </trkpt>
      <trkpt lat="60.0495304" lon="19.9739644">
        <ele>9.75061</ele>
        <time>2012-06-17T18:55:31Z</time>
      </trkpt>
      <trkpt lat="60.0493672" lon="19.9740385">
        <ele>10.7118</ele>
        <time>2012-06-17T18:55:37Z</time>
      </trkpt>
      <trkpt lat="60.0492003" lon="19.97411">
        <ele>11.1925</ele>
        <time>2012-06-17T18:55:43Z</time>
      </trkpt>
      <trkpt lat="60.0490647" lon="19.9741573">
        <ele>11.6732</ele>
        <time>2012-06-17T18:55:48Z</time>
      </trkpt>
      <trkpt lat="60.0489565" lon="19.9742467">
        <ele>13.5958</ele>
        <time>2012-06-17T18:55:53Z</time>
      </trkpt>
      <trkpt lat="60.048846" lon="19.9742758">
        <ele>11.6732</ele>
        <time>2012-06-17T18:55:58Z</time>
      </trkpt>
      <trkpt lat="60.0487071" lon="19.9743176">
        <ele>10.2312</ele>
        <time>2012-06-17T18:56:03Z</time>
      </trkpt>
      <trkpt lat="60.0485577" lon="19.9743556">
        <ele>9.75061</ele>
        <time>2012-06-17T18:56:08Z</time>
      </trkpt>
      <trkpt lat="60.0484271" lon="19.9743717">
        <ele>8.30859</ele>
        <time>2012-06-17T18:56:13Z</time>
      </trkpt>
      <trkpt lat="60.0482241" lon="19.974412">
        <ele>5.90527</ele>
        <time>2012-06-17T18:56:20Z</time>
      </trkpt>
      <trkpt lat="60.0480249" lon="19.9744674">
        <ele>6.38586</ele>
        <time>2012-06-17T18:56:27Z</time>
      </trkpt>
      <trkpt lat="60.0478343" lon="19.9745322">
        <ele>8.78918</ele>
        <time>2012-06-17T18:56:34Z</time>
      </trkpt>
      <trkpt lat="60.0476937" lon="19.9745848">
        <ele>8.78918</ele>
        <time>2012-06-17T18:56:39Z</time>
      </trkpt>
      <trkpt lat="60.0475605" lon="19.9746296">
        <ele>8.30859</ele>
        <time>2012-06-17T18:56:44Z</time>
      </trkpt>
      <trkpt lat="60.0473901" lon="19.9746838">
        <ele>8.78918</ele>
        <time>2012-06-17T18:56:50Z</time>
      </trkpt>
      <trkpt lat="60.0472202" lon="19.9747198">
        <ele>8.78918</ele>
        <time>2012-06-17T18:56:56Z</time>
      </trkpt>
      <trkpt lat="60.0470496" lon="19.9747438">
        <ele>8.78918</ele>
        <time>2012-06-17T18:57:02Z</time>
      </trkpt>
      <trkpt lat="60.0469098" lon="19.9747498">
        <ele>8.78918</ele>
        <time>2012-06-17T18:57:07Z</time>
      </trkpt>
      <trkpt lat="60.0467389" lon="19.974743">
        <ele>8.78918</ele>
        <time>2012-06-17T18:57:13Z</time>
      </trkpt>
      <trkpt lat="60.0465934" lon="19.9747174">
        <ele>8.30859</ele>
        <time>2012-06-17T18:57:18Z</time>
      </trkpt>
      <trkpt lat="60.0463943" lon="19.9746799">
        <ele>7.82788</ele>
        <time>2012-06-17T18:57:25Z</time>
      </trkpt>
      <trkpt lat="60.0461958" lon="19.97461">
        <ele>7.34717</ele>
        <time>2012-06-17T18:57:32Z</time>
      </trkpt>
      <trkpt lat="60.0460233" lon="19.9745165">
        <ele>6.38586</ele>
        <time>2012-06-17T18:57:38Z</time>
      </trkpt>
      <trkpt lat="60.0458298" lon="19.9744046">
        <ele>5.42456</ele>
        <time>2012-06-17T18:57:45Z</time>
      </trkpt>
      <trkpt lat="60.0456364" lon="19.9743111">
        <ele>4.94385</ele>
        <time>2012-06-17T18:57:52Z</time>
      </trkpt>
      <trkpt lat="60.0454408" lon="19.9741975">
        <ele>4.46326</ele>
        <time>2012-06-17T18:57:59Z</time>
      </trkpt>
      <trkpt lat="60.045272" lon="19.9740861">
        <ele>4.46326</ele>
        <time>2012-06-17T18:58:05Z</time>
      </trkpt>
      <trkpt lat="60.0451186" lon="19.973953">
        <ele>4.46326</ele>
        <time>2012-06-17T18:58:11Z</time>
      </trkpt>
      <trkpt lat="60.0449979" lon="19.9738147">
        <ele>3.98267</ele>
        <time>2012-06-17T18:58:16Z</time>
      </trkpt>
      <trkpt lat="60.0448555" lon="19.973652">
        <ele>3.98267</ele>
        <time>2012-06-17T18:58:22Z</time>
      </trkpt>
      <trkpt lat="60.0447192" lon="19.973491">
        <ele>3.98267</ele>
        <time>2012-06-17T18:58:28Z</time>
      </trkpt>
      <trkpt lat="60.044583" lon="19.973346">
        <ele>3.02124</ele>
        <time>2012-06-17T18:58:34Z</time>
      </trkpt>
      <trkpt lat="60.0444638" lon="19.9731971">
        <ele>3.02124</ele>
        <time>2012-06-17T18:58:39Z</time>
      </trkpt>
      <trkpt lat="60.0442992" lon="19.9730118">
        <ele>2.54065</ele>
        <time>2012-06-17T18:58:46Z</time>
      </trkpt>
      <trkpt lat="60.0441754" lon="19.9728782">
        <ele>2.54065</ele>
        <time>2012-06-17T18:58:51Z</time>
      </trkpt>
      <trkpt lat="60.0440102" lon="19.9727037">
        <ele>3.02124</ele>
        <time>2012-06-17T18:58:57Z</time>
      </trkpt>
      <trkpt lat="60.0438604" lon="19.9725433">
        <ele>3.98267</ele>
        <time>2012-06-17T18:59:03Z</time>
      </trkpt>
      <trkpt lat="60.0437065" lon="19.9723693">
        <ele>3.98267</ele>
        <time>2012-06-17T18:59:09Z</time>
      </trkpt>
      <trkpt lat="60.0436143" lon="19.9721798">
        <ele>3.98267</ele>
        <time>2012-06-17T18:59:14Z</time>
      </trkpt>
      <trkpt lat="60.0436018" lon="19.9721405">
        <ele>3.98267</ele>
        <time>2012-06-17T18:59:15Z</time>
      </trkpt>
      <trkpt lat="60.0435631" lon="19.9721347">
        <ele>4.46326</ele>
        <time>2012-06-17T18:59:19Z</time>
      </trkpt>
      <trkpt lat="60.0435978" lon="19.972059">
        <ele>4.46326</ele>
        <time>2012-06-17T18:59:22Z</time>
      </trkpt>
      <trkpt lat="60.0436345" lon="19.9721307">
        <ele>4.46326</ele>
        <time>2012-06-17T18:59:25Z</time>
      </trkpt>
      <trkpt lat="60.0437039" lon="19.9722574">
        <ele>4.94385</ele>
        <time>2012-06-17T18:59:29Z</time>
      </trkpt>
      <trkpt lat="60.0438193" lon="19.9723949">
        <ele>6.86646</ele>
        <time>2012-06-17T18:59:34Z</time>
      </trkpt>
      <trkpt lat="60.0438407" lon="19.9724265">
        <ele>7.34717</ele>
        <time>2012-06-17T18:59:35Z</time>
      </trkpt>
      <trkpt lat="60.0439993" lon="19.9726212">
        <ele>7.82788</ele>
        <time>2012-06-17T18:59:42Z</time>
      </trkpt>
      <trkpt lat="60.0441606" lon="19.9728259">
        <ele>8.30859</ele>
        <time>2012-06-17T18:59:49Z</time>
      </trkpt>
      <trkpt lat="60.0443307" lon="19.9730103">
        <ele>7.82788</ele>
        <time>2012-06-17T18:59:56Z</time>
      </trkpt>
      <trkpt lat="60.0444737" lon="19.9731693">
        <ele>6.86646</ele>
        <time>2012-06-17T19:00:02Z</time>
      </trkpt>
      <trkpt lat="60.0446667" lon="19.9733817">
        <ele>4.46326</ele>
        <time>2012-06-17T19:00:10Z</time>
      </trkpt>
      <trkpt lat="60.0448093" lon="19.9735323">
        <ele>3.50195</ele>
        <time>2012-06-17T19:00:16Z</time>
      </trkpt>
      <trkpt lat="60.0449553" lon="19.9736955">
        <ele>3.02124</ele>
        <time>2012-06-17T19:00:22Z</time>
      </trkpt>
      <trkpt lat="60.04515" lon="19.9739053">
        <ele>3.98267</ele>
        <time>2012-06-17T19:00:29Z</time>
      </trkpt>
      <trkpt lat="60.0453409" lon="19.9740727">
        <ele>5.42456</ele>
        <time>2012-06-17T19:00:36Z</time>
      </trkpt>
      <trkpt lat="60.0454988" lon="19.9741821">
        <ele>6.38586</ele>
        <time>2012-06-17T19:00:42Z</time>
      </trkpt>
      <trkpt lat="60.0456989" lon="19.9742922">
        <ele>6.38586</ele>
        <time>2012-06-17T19:00:50Z</time>
      </trkpt>
      <trkpt lat="60.0458173" lon="19.9743582">
        <ele>6.86646</ele>
        <time>2012-06-17T19:00:55Z</time>
      </trkpt>
      <trkpt lat="60.0459803" lon="19.9744421">
        <ele>7.82788</ele>
        <time>2012-06-17T19:01:01Z</time>
      </trkpt>
      <trkpt lat="60.0461665" lon="19.9745466">
        <ele>8.78918</ele>
        <time>2012-06-17T19:01:08Z</time>
      </trkpt>
      <trkpt lat="60.0463322" lon="19.9746032">
        <ele>9.75061</ele>
        <time>2012-06-17T19:01:14Z</time>
      </trkpt>
      <trkpt lat="60.0465612" lon="19.974659">
        <ele>12.6344</ele>
        <time>2012-06-17T19:01:22Z</time>
      </trkpt>
      <trkpt lat="60.0467498" lon="19.9746819">
        <ele>13.5958</ele>
        <time>2012-06-17T19:01:29Z</time>
      </trkpt>
      <trkpt lat="60.0469513" lon="19.9746881">
        <ele>15.0377</ele>
        <time>2012-06-17T19:01:36Z</time>
      </trkpt>
      <trkpt lat="60.0471482" lon="19.9746652">
        <ele>15.5184</ele>
        <time>2012-06-17T19:01:43Z</time>
      </trkpt>
      <trkpt lat="60.0473407" lon="19.9746214">
        <ele>14.0764</ele>
        <time>2012-06-17T19:01:50Z</time>
      </trkpt>
      <trkpt lat="60.0475631" lon="19.9745415">
        <ele>12.6344</ele>
        <time>2012-06-17T19:01:58Z</time>
      </trkpt>
      <trkpt lat="60.0477485" lon="19.9744779">
        <ele>11.1925</ele>
        <time>2012-06-17T19:02:05Z</time>
      </trkpt>
      <trkpt lat="60.0478962" lon="19.9744206">
        <ele>7.34717</ele>
        <time>2012-06-17T19:02:11Z</time>
      </trkpt>
      <trkpt lat="60.0480884" lon="19.9743575">
        <ele>4.46326</ele>
        <time>2012-06-17T19:02:18Z</time>
      </trkpt>
      <trkpt lat="60.0482985" lon="19.974288">
        <ele>4.94385</ele>
        <time>2012-06-17T19:02:25Z</time>
      </trkpt>
      <trkpt lat="60.0484627" lon="19.9742312">
        <ele>3.98267</ele>
        <time>2012-06-17T19:02:31Z</time>
      </trkpt>
      <trkpt lat="60.0485966" lon="19.9741831">
        <ele>2.54065</ele>
        <time>2012-06-17T19:02:36Z</time>
      </trkpt>
      <trkpt lat="60.0487817" lon="19.9741015">
        <ele>1.09863</ele>
        <time>2012-06-17T19:02:43Z</time>
      </trkpt>
      <trkpt lat="60.0489444" lon="19.9740477">
        <ele>0.137451</ele>
        <time>2012-06-17T19:02:49Z</time>
      </trkpt>
      <trkpt lat="60.0491104" lon="19.974001">
        <ele>0</ele>
        <time>2012-06-17T19:02:55Z</time>
      </trkpt>
      <trkpt lat="60.0492812" lon="19.9739366">
        <ele>0.618042</ele>
        <time>2012-06-17T19:03:01Z</time>
      </trkpt>
      <trkpt lat="60.0494785" lon="19.9738712">
        <ele>3.50195</ele>
        <time>2012-06-17T19:03:08Z</time>
      </trkpt>
      <trkpt lat="60.0496512" lon="19.9738111">
        <ele>4.46326</ele>
        <time>2012-06-17T19:03:14Z</time>
      </trkpt>
      <trkpt lat="60.0498568" lon="19.973742">
        <ele>6.38586</ele>
        <time>2012-06-17T19:03:21Z</time>
      </trkpt>
      <trkpt lat="60.050092" lon="19.9736552">
        <ele>7.82788</ele>
        <time>2012-06-17T19:03:29Z</time>
      </trkpt>
      <trkpt lat="60.0502893" lon="19.973578">
        <ele>9.2699</ele>
        <time>2012-06-17T19:03:36Z</time>
      </trkpt>
      <trkpt lat="60.0504585" lon="19.9735029">
        <ele>9.75061</ele>
        <time>2012-06-17T19:03:42Z</time>
      </trkpt>
      <trkpt lat="60.0507137" lon="19.9733802">
        <ele>12.1538</ele>
        <time>2012-06-17T19:03:51Z</time>
      </trkpt>
      <trkpt lat="60.0508843" lon="19.9732858">
        <ele>13.5958</ele>
        <time>2012-06-17T19:03:57Z</time>
      </trkpt>
      <trkpt lat="60.0510431" lon="19.9731878">
        <ele>13.5958</ele>
        <time>2012-06-17T19:04:03Z</time>
      </trkpt>
      <trkpt lat="60.0511964" lon="19.973074">
        <ele>13.5958</ele>
        <time>2012-06-17T19:04:09Z</time>
      </trkpt>
      <trkpt lat="60.051374" lon="19.9729049">
        <ele>13.1151</ele>
        <time>2012-06-17T19:04:16Z</time>
      </trkpt>
      <trkpt lat="60.051494" lon="19.9727834">
        <ele>11.6732</ele>
        <time>2012-06-17T19:04:21Z</time>
      </trkpt>
      <trkpt lat="60.0516422" lon="19.9726398">
        <ele>11.1925</ele>
        <time>2012-06-17T19:04:27Z</time>
      </trkpt>
      <trkpt lat="60.0517974" lon="19.9724748">
        <ele>9.2699</ele>
        <time>2012-06-17T19:04:34Z</time>
      </trkpt>
      <trkpt lat="60.0519388" lon="19.9723318">
        <ele>8.30859</ele>
        <time>2012-06-17T19:04:40Z</time>
      </trkpt>
      <trkpt lat="60.0521002" lon="19.9721632">
        <ele>7.34717</ele>
        <time>2012-06-17T19:04:47Z</time>
      </trkpt>
      <trkpt lat="60.0522278" lon="19.9720125">
        <ele>5.90527</ele>
        <time>2012-06-17T19:04:53Z</time>
      </trkpt>
      <trkpt lat="60.0523531" lon="19.9718598">
        <ele>3.98267</ele>
        <time>2012-06-17T19:04:59Z</time>
      </trkpt>
      <trkpt lat="60.0524886" lon="19.9717018">
        <ele>3.02124</ele>
        <time>2012-06-17T19:05:05Z</time>
      </trkpt>
      <trkpt lat="60.0526374" lon="19.9715183">
        <ele>0.137451</ele>
        <time>2012-06-17T19:05:12Z</time>
      </trkpt>
      <trkpt lat="60.052754" lon="19.9714033">
        <ele>0</ele>
        <time>2012-06-17T19:05:17Z</time>
      </trkpt>
      <trkpt lat="60.0529053" lon="19.9712453">
        <ele>0</ele>
        <time>2012-06-17T19:05:23Z</time>
      </trkpt>
      <trkpt lat="60.0530508" lon="19.9710719">
        <ele>1.09863</ele>
        <time>2012-06-17T19:05:29Z</time>
      </trkpt>
      <trkpt lat="60.0532297" lon="19.9708792">
        <ele>3.98267</ele>
        <time>2012-06-17T19:05:36Z</time>
      </trkpt>
      <trkpt lat="60.0533775" lon="19.9707093">
        <ele>5.90527</ele>
        <time>2012-06-17T19:05:42Z</time>
      </trkpt>
      <trkpt lat="60.0535378" lon="19.9705566">
        <ele>8.30859</ele>
        <time>2012-06-17T19:05:48Z</time>
      </trkpt>
      <trkpt lat="60.0537341" lon="19.9703382">
        <ele>9.2699</ele>
        <time>2012-06-17T19:05:56Z</time>
      </trkpt>
      <trkpt lat="60.0539412" lon="19.9701071">
        <ele>11.1925</ele>
        <time>2012-06-17T19:06:04Z</time>
      </trkpt>
      <trkpt lat="60.0541098" lon="19.9698778">
        <ele>12.1538</ele>
        <time>2012-06-17T19:06:11Z</time>
      </trkpt>
      <trkpt lat="60.0543008" lon="19.9695962">
        <ele>13.1151</ele>
        <time>2012-06-17T19:06:19Z</time>
      </trkpt>
      <trkpt lat="60.0544629" lon="19.9693363">
        <ele>14.0764</ele>
        <time>2012-06-17T19:06:26Z</time>
      </trkpt>
      <trkpt lat="60.054613" lon="19.969069">
        <ele>14.0764</ele>
        <time>2012-06-17T19:06:33Z</time>
      </trkpt>
      <trkpt lat="60.054751" lon="19.9687926">
        <ele>13.1151</ele>
        <time>2012-06-17T19:06:40Z</time>
      </trkpt>
      <trkpt lat="60.0548453" lon="19.9685801">
        <ele>12.6344</ele>
        <time>2012-06-17T19:06:45Z</time>
      </trkpt>
      <trkpt lat="60.0549687" lon="19.9682744">
        <ele>12.6344</ele>
        <time>2012-06-17T19:06:52Z</time>
      </trkpt>
      <trkpt lat="60.0550711" lon="19.9679958">
        <ele>13.5958</ele>
        <time>2012-06-17T19:06:58Z</time>
      </trkpt>
      <trkpt lat="60.055158" lon="19.9676893">
        <ele>13.1151</ele>
        <time>2012-06-17T19:07:04Z</time>
      </trkpt>
      <trkpt lat="60.0552463" lon="19.9673435">
        <ele>12.6344</ele>
        <time>2012-06-17T19:07:11Z</time>
      </trkpt>
      <trkpt lat="60.0553047" lon="19.9670962">
        <ele>12.6344</ele>
        <time>2012-06-17T19:07:16Z</time>
      </trkpt>
      <trkpt lat="60.0553734" lon="19.966802">
        <ele>12.6344</ele>
        <time>2012-06-17T19:07:22Z</time>
      </trkpt>
      <trkpt lat="60.0554494" lon="19.9664479">
        <ele>11.6732</ele>
        <time>2012-06-17T19:07:29Z</time>
      </trkpt>
      <trkpt lat="60.0555387" lon="19.966089">
        <ele>11.6732</ele>
        <time>2012-06-17T19:07:36Z</time>
      </trkpt>
      <trkpt lat="60.0556092" lon="19.9657812">
        <ele>12.1538</ele>
        <time>2012-06-17T19:07:42Z</time>
      </trkpt>
      <trkpt lat="60.0556782" lon="19.9654739">
        <ele>11.6732</ele>
        <time>2012-06-17T19:07:48Z</time>
      </trkpt>
      <trkpt lat="60.0557693" lon="19.9651101">
        <ele>12.6344</ele>
        <time>2012-06-17T19:07:55Z</time>
      </trkpt>
      <trkpt lat="60.0558498" lon="19.964811">
        <ele>13.5958</ele>
        <time>2012-06-17T19:08:01Z</time>
      </trkpt>
      <trkpt lat="60.0559202" lon="19.9645087">
        <ele>13.5958</ele>
        <time>2012-06-17T19:08:07Z</time>
      </trkpt>
      <trkpt lat="60.0560073" lon="19.9641533">
        <ele>14.0764</ele>
        <time>2012-06-17T19:08:14Z</time>
      </trkpt>
      <trkpt lat="60.0560962" lon="19.96387">
        <ele>15.0377</ele>
        <time>2012-06-17T19:08:20Z</time>
      </trkpt>
      <trkpt lat="60.0561844" lon="19.9635963">
        <ele>14.557</ele>
        <time>2012-06-17T19:08:26Z</time>
      </trkpt>
      <trkpt lat="60.0563149" lon="19.9632399">
        <ele>15.5184</ele>
        <time>2012-06-17T19:08:34Z</time>
      </trkpt>
      <trkpt lat="60.0564721" lon="19.962855">
        <ele>16.4797</ele>
        <time>2012-06-17T19:08:43Z</time>
      </trkpt>
      <trkpt lat="60.056598" lon="19.9625609">
        <ele>16.4797</ele>
        <time>2012-06-17T19:08:50Z</time>
      </trkpt>
      <trkpt lat="60.0567386" lon="19.96228">
        <ele>16.4797</ele>
        <time>2012-06-17T19:08:57Z</time>
      </trkpt>
      <trkpt lat="60.0568593" lon="19.962046">
        <ele>17.4412</ele>
        <time>2012-06-17T19:09:03Z</time>
      </trkpt>
      <trkpt lat="60.0570199" lon="19.9617301">
        <ele>16.9604</ele>
        <time>2012-06-17T19:09:11Z</time>
      </trkpt>
      <trkpt lat="60.0571731" lon="19.9615063">
        <ele>16.4797</ele>
        <time>2012-06-17T19:09:18Z</time>
      </trkpt>
      <trkpt lat="60.0573277" lon="19.9612836">
        <ele>16.4797</ele>
        <time>2012-06-17T19:09:25Z</time>
      </trkpt>
      <trkpt lat="60.0574954" lon="19.96107">
        <ele>15.5184</ele>
        <time>2012-06-17T19:09:32Z</time>
      </trkpt>
      <trkpt lat="60.0577035" lon="19.9608035">
        <ele>14.0764</ele>
        <time>2012-06-17T19:09:41Z</time>
      </trkpt>
      <trkpt lat="60.0578707" lon="19.9606138">
        <ele>13.1151</ele>
        <time>2012-06-17T19:09:48Z</time>
      </trkpt>
      <trkpt lat="60.0580189" lon="19.9604573">
        <ele>12.6344</ele>
        <time>2012-06-17T19:09:54Z</time>
      </trkpt>
      <trkpt lat="60.0581639" lon="19.9603056">
        <ele>11.1925</ele>
        <time>2012-06-17T19:10:00Z</time>
      </trkpt>
      <trkpt lat="60.0583448" lon="19.9601501">
        <ele>11.1925</ele>
        <time>2012-06-17T19:10:07Z</time>
      </trkpt>
      <trkpt lat="60.0585247" lon="19.9600113">
        <ele>9.75061</ele>
        <time>2012-06-17T19:10:14Z</time>
      </trkpt>
      <trkpt lat="60.0587138" lon="19.9598823">
        <ele>9.2699</ele>
        <time>2012-06-17T19:10:21Z</time>
      </trkpt>
      <trkpt lat="60.0588707" lon="19.9597756">
        <ele>8.78918</ele>
        <time>2012-06-17T19:10:27Z</time>
      </trkpt>
      <trkpt lat="60.0590649" lon="19.9596688">
        <ele>8.78918</ele>
        <time>2012-06-17T19:10:34Z</time>
      </trkpt>
      <trkpt lat="60.0592603" lon="19.9595777">
        <ele>9.2699</ele>
        <time>2012-06-17T19:10:41Z</time>
      </trkpt>
      <trkpt lat="60.0594653" lon="19.9595001">
        <ele>10.7118</ele>
        <time>2012-06-17T19:10:48Z</time>
      </trkpt>
      <trkpt lat="60.0596695" lon="19.9594421">
        <ele>12.1538</ele>
        <time>2012-06-17T19:10:55Z</time>
      </trkpt>
      <trkpt lat="60.0598477" lon="19.9594072">
        <ele>12.6344</ele>
        <time>2012-06-17T19:11:01Z</time>
      </trkpt>
      <trkpt lat="60.0600229" lon="19.9593819">
        <ele>12.6344</ele>
        <time>2012-06-17T19:11:07Z</time>
      </trkpt>
      <trkpt lat="60.0601916" lon="19.9593695">
        <ele>12.6344</ele>
        <time>2012-06-17T19:11:13Z</time>
      </trkpt>
      <trkpt lat="60.0603771" lon="19.9593512">
        <ele>12.1538</ele>
        <time>2012-06-17T19:11:20Z</time>
      </trkpt>
      <trkpt lat="60.0605977" lon="19.9593372">
        <ele>13.1151</ele>
        <time>2012-06-17T19:11:28Z</time>
      </trkpt>
      <trkpt lat="60.0607696" lon="19.9593308">
        <ele>12.6344</ele>
        <time>2012-06-17T19:11:34Z</time>
      </trkpt>
      <trkpt lat="60.0609406" lon="19.9593171">
        <ele>12.1538</ele>
        <time>2012-06-17T19:11:40Z</time>
      </trkpt>
      <trkpt lat="60.0611375" lon="19.9593016">
        <ele>12.6344</ele>
        <time>2012-06-17T19:11:47Z</time>
      </trkpt>
      <trkpt lat="60.0613353" lon="19.9592909">
        <ele>11.6732</ele>
        <time>2012-06-17T19:11:54Z</time>
      </trkpt>
      <trkpt lat="60.0615064" lon="19.959284">
        <ele>11.6732</ele>
        <time>2012-06-17T19:12:00Z</time>
      </trkpt>
      <trkpt lat="60.0616814" lon="19.9592716">
        <ele>11.6732</ele>
        <time>2012-06-17T19:12:06Z</time>
      </trkpt>
      <trkpt lat="60.0618778" lon="19.9592591">
        <ele>10.7118</ele>
        <time>2012-06-17T19:12:13Z</time>
      </trkpt>
      <trkpt lat="60.0620513" lon="19.9592492">
        <ele>10.7118</ele>
        <time>2012-06-17T19:12:19Z</time>
      </trkpt>
      <trkpt lat="60.0622859" lon="19.9592291">
        <ele>12.1538</ele>
        <time>2012-06-17T19:12:27Z</time>
      </trkpt>
      <trkpt lat="60.0624857" lon="19.9592105">
        <ele>11.6732</ele>
        <time>2012-06-17T19:12:34Z</time>
      </trkpt>
      <trkpt lat="60.0627108" lon="19.9591835">
        <ele>10.7118</ele>
        <time>2012-06-17T19:12:42Z</time>
      </trkpt>
      <trkpt lat="60.0628863" lon="19.9591543">
        <ele>11.1925</ele>
        <time>2012-06-17T19:12:48Z</time>
      </trkpt>
      <trkpt lat="60.0630195" lon="19.9591313">
        <ele>12.6344</ele>
        <time>2012-06-17T19:12:53Z</time>
      </trkpt>
      <trkpt lat="60.0632043" lon="19.9591074">
        <ele>11.6732</ele>
        <time>2012-06-17T19:13:00Z</time>
      </trkpt>
      <trkpt lat="60.0633668" lon="19.9591008">
        <ele>9.75061</ele>
        <time>2012-06-17T19:13:06Z</time>
      </trkpt>
      <trkpt lat="60.0635647" lon="19.9590891">
        <ele>10.7118</ele>
        <time>2012-06-17T19:13:13Z</time>
      </trkpt>
      <trkpt lat="60.0637079" lon="19.9590782">
        <ele>9.2699</ele>
        <time>2012-06-17T19:13:18Z</time>
      </trkpt>
      <trkpt lat="60.0638519" lon="19.9590515">
        <ele>7.34717</ele>
        <time>2012-06-17T19:13:23Z</time>
      </trkpt>
      <trkpt lat="60.0640201" lon="19.9590479">
        <ele>6.38586</ele>
        <time>2012-06-17T19:13:29Z</time>
      </trkpt>
      <trkpt lat="60.0641694" lon="19.9590424">
        <ele>5.42456</ele>
        <time>2012-06-17T19:13:35Z</time>
      </trkpt>
      <trkpt lat="60.0643046" lon="19.9590452">
        <ele>3.98267</ele>
        <time>2012-06-17T19:13:40Z</time>
      </trkpt>
      <trkpt lat="60.0643858" lon="19.9590442">
        <ele>3.02124</ele>
        <time>2012-06-17T19:13:43Z</time>
      </trkpt>
      <trkpt lat="60.0645656" lon="19.9590546">
        <ele>1.57935</ele>
        <time>2012-06-17T19:13:49Z</time>
      </trkpt>
      <trkpt lat="60.064762" lon="19.9590218">
        <ele>2.54065</ele>
        <time>2012-06-17T19:13:55Z</time>
      </trkpt>
      <trkpt lat="60.0649773" lon="19.9589886">
        <ele>3.50195</ele>
        <time>2012-06-17T19:14:02Z</time>
      </trkpt>
      <trkpt lat="60.0651086" lon="19.9589784">
        <ele>2.06006</ele>
        <time>2012-06-17T19:14:07Z</time>
      </trkpt>
      <trkpt lat="60.0653086" lon="19.9589671">
        <ele>3.50195</ele>
        <time>2012-06-17T19:14:14Z</time>
      </trkpt>
      <trkpt lat="60.0654562" lon="19.9589629">
        <ele>2.54065</ele>
        <time>2012-06-17T19:14:20Z</time>
      </trkpt>
      <trkpt lat="60.0656379" lon="19.9589618">
        <ele>0.618042</ele>
        <time>2012-06-17T19:14:27Z</time>
      </trkpt>
      <trkpt lat="60.0657898" lon="19.9589618">
        <ele>0</ele>
        <time>2012-06-17T19:14:33Z</time>
      </trkpt>
      <trkpt lat="60.0659942" lon="19.958939">
        <ele>3.98267</ele>
        <time>2012-06-17T19:14:39Z</time>
      </trkpt>
      <trkpt lat="60.0662011" lon="19.958922">
        <ele>5.90527</ele>
        <time>2012-06-17T19:14:46Z</time>
      </trkpt>
      <trkpt lat="60.0663509" lon="19.9589333">
        <ele>6.86646</ele>
        <time>2012-06-17T19:14:51Z</time>
      </trkpt>
      <trkpt lat="60.0664968" lon="19.958949">
        <ele>7.34717</ele>
        <time>2012-06-17T19:14:56Z</time>
      </trkpt>
      <trkpt lat="60.0666626" lon="19.9589368">
        <ele>7.82788</ele>
        <time>2012-06-17T19:15:02Z</time>
      </trkpt>
      <trkpt lat="60.0668132" lon="19.9589913">
        <ele>4.46326</ele>
        <time>2012-06-17T19:15:08Z</time>
      </trkpt>
      <trkpt lat="60.0669583" lon="19.959067">
        <ele>2.06006</ele>
        <time>2012-06-17T19:15:14Z</time>
      </trkpt>
      <trkpt lat="60.067104" lon="19.9590759">
        <ele>0</ele>
        <time>2012-06-17T19:15:20Z</time>
      </trkpt>
      <trkpt lat="60.0672574" lon="19.9587759">
        <ele>3.98267</ele>
        <time>2012-06-17T19:15:26Z</time>
      </trkpt>
      <trkpt lat="60.0673609" lon="19.9584556">
        <ele>4.46326</ele>
        <time>2012-06-17T19:15:32Z</time>
      </trkpt>
      <trkpt lat="60.0674741" lon="19.9582075">
        <ele>7.34717</ele>
        <time>2012-06-17T19:15:37Z</time>
      </trkpt>
      <trkpt lat="60.0675691" lon="19.957989">
        <ele>7.82788</ele>
        <time>2012-06-17T19:15:42Z</time>
      </trkpt>
      <trkpt lat="60.0677031" lon="19.9576259">
        <ele>7.82788</ele>
        <time>2012-06-17T19:15:50Z</time>
      </trkpt>
      <trkpt lat="60.0677924" lon="19.9573463">
        <ele>8.30859</ele>
        <time>2012-06-17T19:15:56Z</time>
      </trkpt>
      <trkpt lat="60.0678675" lon="19.9570323">
        <ele>7.34717</ele>
        <time>2012-06-17T19:16:02Z</time>
      </trkpt>
      <trkpt lat="60.0679201" lon="19.9567604">
        <ele>7.34717</ele>
        <time>2012-06-17T19:16:07Z</time>
      </trkpt>
      <trkpt lat="60.0679488" lon="19.9564775">
        <ele>8.30859</ele>
        <time>2012-06-17T19:16:12Z</time>
      </trkpt>
      <trkpt lat="60.067968" lon="19.9563817">
        <ele>9.2699</ele>
        <time>2012-06-17T19:16:14Z</time>
      </trkpt>
      <trkpt lat="60.0680115" lon="19.9560051">
        <ele>9.75061</ele>
        <time>2012-06-17T19:16:21Z</time>
      </trkpt>
      <trkpt lat="60.0680896" lon="19.9557438">
        <ele>11.6732</ele>
        <time>2012-06-17T19:16:26Z</time>
      </trkpt>
      <trkpt lat="60.0681425" lon="19.9554884">
        <ele>9.75061</ele>
        <time>2012-06-17T19:16:31Z</time>
      </trkpt>
      <trkpt lat="60.068208" lon="19.9552223">
        <ele>5.90527</ele>
        <time>2012-06-17T19:16:37Z</time>
      </trkpt>
      <trkpt lat="60.0683617" lon="19.9551243">
        <ele>4.94385</ele>
        <time>2012-06-17T19:16:44Z</time>
      </trkpt>
      <trkpt lat="60.0684782" lon="19.955075">
        <ele>1.57935</ele>
        <time>2012-06-17T19:16:49Z</time>
      </trkpt>
      <trkpt lat="60.0685978" lon="19.9550799">
        <ele>2.06006</ele>
        <time>2012-06-17T19:16:54Z</time>
      </trkpt>
      <trkpt lat="60.0687782" lon="19.9551021">
        <ele>1.57935</ele>
        <time>2012-06-17T19:17:00Z</time>
      </trkpt>
      <trkpt lat="60.0688497" lon="19.9551021">
        <ele>0</ele>
        <time>2012-06-17T19:17:03Z</time>
      </trkpt>
      <trkpt lat="60.0690031" lon="19.9551451">
        <ele>0</ele>
        <time>2012-06-17T19:17:10Z</time>
      </trkpt>
      <trkpt lat="60.0691895" lon="19.9551053">
        <ele>0</ele>
        <time>2012-06-17T19:17:17Z</time>
      </trkpt>
      <trkpt lat="60.0693402" lon="19.9550721">
        <ele>0</ele>
        <time>2012-06-17T19:17:23Z</time>
      </trkpt>
      <trkpt lat="60.0694645" lon="19.9550044">
        <ele>0</ele>
        <time>2012-06-17T19:17:28Z</time>
      </trkpt>
      <trkpt lat="60.0696065" lon="19.9549255">
        <ele>0</ele>
        <time>2012-06-17T19:17:33Z</time>
      </trkpt>
      <trkpt lat="60.0697163" lon="19.9548662">
        <ele>0</ele>
        <time>2012-06-17T19:17:37Z</time>
      </trkpt>
      <trkpt lat="60.0698789" lon="19.9547821">
        <ele>0</ele>
        <time>2012-06-17T19:17:43Z</time>
      </trkpt>
      <trkpt lat="60.0700186" lon="19.9547202">
        <ele>0</ele>
        <time>2012-06-17T19:17:48Z</time>
      </trkpt>
      <trkpt lat="60.070161" lon="19.9546758">
        <ele>0</ele>
        <time>2012-06-17T19:17:53Z</time>
      </trkpt>
      <trkpt lat="60.0703627" lon="19.9546022">
        <ele>0</ele>
        <time>2012-06-17T19:17:59Z</time>
      </trkpt>
      <trkpt lat="60.0705709" lon="19.9545488">
        <ele>0</ele>
        <time>2012-06-17T19:18:06Z</time>
      </trkpt>
      <trkpt lat="60.0707733" lon="19.9544913">
        <ele>0</ele>
        <time>2012-06-17T19:18:13Z</time>
      </trkpt>
      <trkpt lat="60.0709661" lon="19.9544342">
        <ele>0</ele>
        <time>2012-06-17T19:18:19Z</time>
      </trkpt>
      <trkpt lat="60.0710388" lon="19.9544272">
        <ele>0</ele>
        <time>2012-06-17T19:18:22Z</time>
      </trkpt>
      <trkpt lat="60.0711517" lon="19.9544116">
        <ele>0</ele>
        <time>2012-06-17T19:18:26Z</time>
      </trkpt>
      <trkpt lat="60.07139" lon="19.9543584">
        <ele>0</ele>
        <time>2012-06-17T19:18:34Z</time>
      </trkpt>
      <trkpt lat="60.071592" lon="19.9543422">
        <ele>0</ele>
        <time>2012-06-17T19:18:41Z</time>
      </trkpt>
      <trkpt lat="60.0717675" lon="19.954292">
        <ele>0</ele>
        <time>2012-06-17T19:18:47Z</time>
      </trkpt>
      <trkpt lat="60.071956" lon="19.9542604">
        <ele>3.02124</ele>
        <time>2012-06-17T19:18:53Z</time>
      </trkpt>
      <trkpt lat="60.0721836" lon="19.9542096">
        <ele>6.38586</ele>
        <time>2012-06-17T19:19:01Z</time>
      </trkpt>
      <trkpt lat="60.0723922" lon="19.9541143">
        <ele>5.42456</ele>
        <time>2012-06-17T19:19:08Z</time>
      </trkpt>
      <trkpt lat="60.0725881" lon="19.9539988">
        <ele>0.618042</ele>
        <time>2012-06-17T19:19:16Z</time>
      </trkpt>
      <trkpt lat="60.0727003" lon="19.9539517">
        <ele>0</ele>
        <time>2012-06-17T19:19:21Z</time>
      </trkpt>
      <trkpt lat="60.0728286" lon="19.9539241">
        <ele>0</ele>
        <time>2012-06-17T19:19:26Z</time>
      </trkpt>
      <trkpt lat="60.073057" lon="19.9539454">
        <ele>0</ele>
        <time>2012-06-17T19:19:33Z</time>
      </trkpt>
      <trkpt lat="60.073137" lon="19.9539321">
        <ele>0</ele>
        <time>2012-06-17T19:19:36Z</time>
      </trkpt>
      <trkpt lat="60.0732525" lon="19.9536862">
        <ele>0.137451</ele>
        <time>2012-06-17T19:19:41Z</time>
      </trkpt>
      <trkpt lat="60.0733204" lon="19.953375">
        <ele>3.98267</ele>
        <time>2012-06-17T19:19:46Z</time>
      </trkpt>
      <trkpt lat="60.0734085" lon="19.9529098">
        <ele>6.38586</ele>
        <time>2012-06-17T19:19:54Z</time>
      </trkpt>
      <trkpt lat="60.0734797" lon="19.9524546">
        <ele>7.82788</ele>
        <time>2012-06-17T19:20:02Z</time>
      </trkpt>
      <trkpt lat="60.0735314" lon="19.9521402">
        <ele>8.78918</ele>
        <time>2012-06-17T19:20:08Z</time>
      </trkpt>
      <trkpt lat="60.0735823" lon="19.951835">
        <ele>9.75061</ele>
        <time>2012-06-17T19:20:13Z</time>
      </trkpt>
      <trkpt lat="60.0736279" lon="19.9514859">
        <ele>9.2699</ele>
        <time>2012-06-17T19:20:19Z</time>
      </trkpt>
      <trkpt lat="60.0736776" lon="19.9511316">
        <ele>8.30859</ele>
        <time>2012-06-17T19:20:25Z</time>
      </trkpt>
      <trkpt lat="60.0737256" lon="19.9507752">
        <ele>7.82788</ele>
        <time>2012-06-17T19:20:31Z</time>
      </trkpt>
      <trkpt lat="60.073727" lon="19.9506636">
        <ele>7.82788</ele>
        <time>2012-06-17T19:20:33Z</time>
      </trkpt>
      <trkpt lat="60.0737868" lon="19.9502603">
        <ele>8.78918</ele>
        <time>2012-06-17T19:20:40Z</time>
      </trkpt>
      <trkpt lat="60.0738355" lon="19.9499008">
        <ele>9.2699</ele>
        <time>2012-06-17T19:20:46Z</time>
      </trkpt>
      <trkpt lat="60.0738946" lon="19.9494884">
        <ele>9.75061</ele>
        <time>2012-06-17T19:20:53Z</time>
      </trkpt>
      <trkpt lat="60.0739454" lon="19.9491431">
        <ele>10.7118</ele>
        <time>2012-06-17T19:20:59Z</time>
      </trkpt>
      <trkpt lat="60.0739846" lon="19.9488516">
        <ele>11.6732</ele>
        <time>2012-06-17T19:21:04Z</time>
      </trkpt>
      <trkpt lat="60.0740261" lon="19.9485654">
        <ele>13.1151</ele>
        <time>2012-06-17T19:21:09Z</time>
      </trkpt>
      <trkpt lat="60.0740842" lon="19.9482026">
        <ele>11.6732</ele>
        <time>2012-06-17T19:21:16Z</time>
      </trkpt>
      <trkpt lat="60.07411" lon="19.9479394">
        <ele>10.2312</ele>
        <time>2012-06-17T19:21:21Z</time>
      </trkpt>
      <trkpt lat="60.0741614" lon="19.9476866">
        <ele>9.2699</ele>
        <time>2012-06-17T19:21:27Z</time>
      </trkpt>
      <trkpt lat="60.0742037" lon="19.9473675">
        <ele>8.30859</ele>
        <time>2012-06-17T19:21:33Z</time>
      </trkpt>
      <trkpt lat="60.0742521" lon="19.9470912">
        <ele>8.30859</ele>
        <time>2012-06-17T19:21:38Z</time>
      </trkpt>
      <trkpt lat="60.0743258" lon="19.9467564">
        <ele>9.2699</ele>
        <time>2012-06-17T19:21:44Z</time>
      </trkpt>
      <trkpt lat="60.0744213" lon="19.9463885">
        <ele>10.7118</ele>
        <time>2012-06-17T19:21:51Z</time>
      </trkpt>
      <trkpt lat="60.0745063" lon="19.9460741">
        <ele>11.6732</ele>
        <time>2012-06-17T19:21:57Z</time>
      </trkpt>
      <trkpt lat="60.0746049" lon="19.945794">
        <ele>13.5958</ele>
        <time>2012-06-17T19:22:03Z</time>
      </trkpt>
      <trkpt lat="60.0746911" lon="19.945562">
        <ele>15.5184</ele>
        <time>2012-06-17T19:22:08Z</time>
      </trkpt>
      <trkpt lat="60.074805" lon="19.9453129">
        <ele>14.0764</ele>
        <time>2012-06-17T19:22:14Z</time>
      </trkpt>
      <trkpt lat="60.0749218" lon="19.9450574">
        <ele>11.6732</ele>
        <time>2012-06-17T19:22:20Z</time>
      </trkpt>
      <trkpt lat="60.0749105" lon="19.9447797">
        <ele>10.7118</ele>
        <time>2012-06-17T19:22:25Z</time>
      </trkpt>
      <trkpt lat="60.0748894" lon="19.9444342">
        <ele>10.7118</ele>
        <time>2012-06-17T19:22:31Z</time>
      </trkpt>
      <trkpt lat="60.074999" lon="19.9443382">
        <ele>9.2699</ele>
        <time>2012-06-17T19:22:36Z</time>
      </trkpt>
      <trkpt lat="60.0751661" lon="19.9443103">
        <ele>5.42456</ele>
        <time>2012-06-17T19:22:43Z</time>
      </trkpt>
      <trkpt lat="60.0752954" lon="19.9442434">
        <ele>2.06006</ele>
        <time>2012-06-17T19:22:49Z</time>
      </trkpt>
      <trkpt lat="60.0754282" lon="19.9441424">
        <ele>0</ele>
        <time>2012-06-17T19:22:55Z</time>
      </trkpt>
      <trkpt lat="60.0755564" lon="19.9440271">
        <ele>0</ele>
        <time>2012-06-17T19:23:01Z</time>
      </trkpt>
      <trkpt lat="60.0756447" lon="19.9439632">
        <ele>0</ele>
        <time>2012-06-17T19:23:06Z</time>
      </trkpt>
      <trkpt lat="60.0757554" lon="19.9439027">
        <ele>0</ele>
        <time>2012-06-17T19:23:11Z</time>
      </trkpt>
      <trkpt lat="60.0758857" lon="19.943852">
        <ele>0</ele>
        <time>2012-06-17T19:23:16Z</time>
      </trkpt>
      <trkpt lat="60.0760475" lon="19.9438023">
        <ele>0</ele>
        <time>2012-06-17T19:23:21Z</time>
      </trkpt>
      <trkpt lat="60.0761597" lon="19.9438506">
        <ele>0</ele>
        <time>2012-06-17T19:23:25Z</time>
      </trkpt>
      <trkpt lat="60.0762488" lon="19.9440823">
        <ele>0</ele>
        <time>2012-06-17T19:23:30Z</time>
      </trkpt>
      <trkpt lat="60.0764079" lon="19.9440919">
        <ele>1.09863</ele>
        <time>2012-06-17T19:23:35Z</time>
      </trkpt>
      <trkpt lat="60.0765934" lon="19.9440042">
        <ele>4.46326</ele>
        <time>2012-06-17T19:23:41Z</time>
      </trkpt>
      <trkpt lat="60.0767829" lon="19.943943">
        <ele>8.30859</ele>
        <time>2012-06-17T19:23:47Z</time>
      </trkpt>
      <trkpt lat="60.0769564" lon="19.9439578">
        <ele>9.75061</ele>
        <time>2012-06-17T19:23:53Z</time>
      </trkpt>
      <trkpt lat="60.0771545" lon="19.9439618">
        <ele>11.6732</ele>
        <time>2012-06-17T19:24:00Z</time>
      </trkpt>
      <trkpt lat="60.0773458" lon="19.9438943">
        <ele>9.75061</ele>
        <time>2012-06-17T19:24:07Z</time>
      </trkpt>
      <trkpt lat="60.0774362" lon="19.9438461">
        <ele>8.30859</ele>
        <time>2012-06-17T19:24:11Z</time>
      </trkpt>
      <trkpt lat="60.0775577" lon="19.9437602">
        <ele>5.90527</ele>
        <time>2012-06-17T19:24:16Z</time>
      </trkpt>
      <trkpt lat="60.0776989" lon="19.9436572">
        <ele>5.90527</ele>
        <time>2012-06-17T19:24:21Z</time>
      </trkpt>
      <trkpt lat="60.077873" lon="19.9435799">
        <ele>7.34717</ele>
        <time>2012-06-17T19:24:27Z</time>
      </trkpt>
      <trkpt lat="60.0780417" lon="19.9435374">
        <ele>6.38586</ele>
        <time>2012-06-17T19:24:33Z</time>
      </trkpt>
      <trkpt lat="60.0781971" lon="19.9434967">
        <ele>6.38586</ele>
        <time>2012-06-17T19:24:39Z</time>
      </trkpt>
      <trkpt lat="60.0783773" lon="19.9434307">
        <ele>6.86646</ele>
        <time>2012-06-17T19:24:46Z</time>
      </trkpt>
      <trkpt lat="60.0785101" lon="19.9433598">
        <ele>8.78918</ele>
        <time>2012-06-17T19:24:51Z</time>
      </trkpt>
      <trkpt lat="60.078683" lon="19.9432749">
        <ele>12.6344</ele>
        <time>2012-06-17T19:24:57Z</time>
      </trkpt>
      <trkpt lat="60.0788193" lon="19.9432014">
        <ele>11.6732</ele>
        <time>2012-06-17T19:25:02Z</time>
      </trkpt>
      <trkpt lat="60.0789266" lon="19.9431486">
        <ele>7.82788</ele>
        <time>2012-06-17T19:25:07Z</time>
      </trkpt>
      <trkpt lat="60.079054" lon="19.9430463">
        <ele>3.02124</ele>
        <time>2012-06-17T19:25:13Z</time>
      </trkpt>
      <trkpt lat="60.0792503" lon="19.9429393">
        <ele>1.57935</ele>
        <time>2012-06-17T19:25:20Z</time>
      </trkpt>
      <trkpt lat="60.0794257" lon="19.9428154">
        <ele>0</ele>
        <time>2012-06-17T19:25:27Z</time>
      </trkpt>
      <trkpt lat="60.0796652" lon="19.9427522">
        <ele>8.30859</ele>
        <time>2012-06-17T19:25:34Z</time>
      </trkpt>
      <trkpt lat="60.0797797" lon="19.9428016">
        <ele>6.86646</ele>
        <time>2012-06-17T19:25:39Z</time>
      </trkpt>
      <trkpt lat="60.0799009" lon="19.942823">
        <ele>4.46326</ele>
        <time>2012-06-17T19:25:45Z</time>
      </trkpt>
      <trkpt lat="60.0800253" lon="19.9427396">
        <ele>2.54065</ele>
        <time>2012-06-17T19:25:50Z</time>
      </trkpt>
      <trkpt lat="60.0801977" lon="19.9426231">
        <ele>3.98267</ele>
        <time>2012-06-17T19:25:56Z</time>
      </trkpt>
      <trkpt lat="60.0803365" lon="19.9425351">
        <ele>4.46326</ele>
        <time>2012-06-17T19:26:01Z</time>
      </trkpt>
      <trkpt lat="60.0803962" lon="19.9424881">
        <ele>6.86646</ele>
        <time>2012-06-17T19:26:03Z</time>
      </trkpt>
      <trkpt lat="60.0804382" lon="19.9423009">
        <ele>10.7118</ele>
        <time>2012-06-17T19:26:07Z</time>
      </trkpt>
      <trkpt lat="60.0804521" lon="19.9420224">
        <ele>12.1538</ele>
        <time>2012-06-17T19:26:12Z</time>
      </trkpt>
      <trkpt lat="60.0804345" lon="19.9417427">
        <ele>12.1538</ele>
        <time>2012-06-17T19:26:17Z</time>
      </trkpt>
      <trkpt lat="60.0803671" lon="19.9414197">
        <ele>12.1538</ele>
        <time>2012-06-17T19:26:23Z</time>
      </trkpt>
      <trkpt lat="60.0802817" lon="19.9410444">
        <ele>11.6732</ele>
        <time>2012-06-17T19:26:30Z</time>
      </trkpt>
      <trkpt lat="60.0802402" lon="19.9407062">
        <ele>10.7118</ele>
        <time>2012-06-17T19:26:36Z</time>
      </trkpt>
      <trkpt lat="60.0802702" lon="19.9403539">
        <ele>8.30859</ele>
        <time>2012-06-17T19:26:42Z</time>
      </trkpt>
      <trkpt lat="60.0803028" lon="19.9400755">
        <ele>8.30859</ele>
        <time>2012-06-17T19:26:47Z</time>
      </trkpt>
      <trkpt lat="60.0803177" lon="19.9397974">
        <ele>9.2699</ele>
        <time>2012-06-17T19:26:52Z</time>
      </trkpt>
      <trkpt lat="60.0803178" lon="19.9395085">
        <ele>11.1925</ele>
        <time>2012-06-17T19:26:57Z</time>
      </trkpt>
      <trkpt lat="60.0803356" lon="19.939398">
        <ele>11.6732</ele>
        <time>2012-06-17T19:26:59Z</time>
      </trkpt>
      <trkpt lat="60.0804215" lon="19.9392907">
        <ele>11.6732</ele>
        <time>2012-06-17T19:27:03Z</time>
      </trkpt>
      <trkpt lat="60.0805967" lon="19.9391904">
        <ele>11.6732</ele>
        <time>2012-06-17T19:27:10Z</time>
      </trkpt>
      <trkpt lat="60.0807715" lon="19.9390951">
        <ele>13.1151</ele>
        <time>2012-06-17T19:28:27Z</time>
      </trkpt>
      <trkpt lat="60.0809559" lon="19.9389563">
        <ele>13.1151</ele>
        <time>2012-06-17T19:28:34Z</time>
      </trkpt>
      <trkpt lat="60.0810488" lon="19.9389273">
        <ele>11.1925</ele>
        <time>2012-06-17T19:28:38Z</time>
      </trkpt>
      <trkpt lat="60.081183" lon="19.9388982">
        <ele>12.6344</ele>
        <time>2012-06-17T19:28:43Z</time>
      </trkpt>
      <trkpt lat="60.0813376" lon="19.9388506">
        <ele>10.7118</ele>
        <time>2012-06-17T19:28:49Z</time>
      </trkpt>
      <trkpt lat="60.0815013" lon="19.9387133">
        <ele>13.5958</ele>
        <time>2012-06-17T19:28:55Z</time>
      </trkpt>
      <trkpt lat="60.081602" lon="19.9384683">
        <ele>16.4797</ele>
        <time>2012-06-17T19:29:00Z</time>
      </trkpt>
      <trkpt lat="60.0816371" lon="19.9381948">
        <ele>15.999</ele>
        <time>2012-06-17T19:29:05Z</time>
      </trkpt>
      <trkpt lat="60.0816461" lon="19.9378989">
        <ele>16.4797</ele>
        <time>2012-06-17T19:29:11Z</time>
      </trkpt>
      <trkpt lat="60.0816392" lon="19.9375865">
        <ele>13.5958</ele>
        <time>2012-06-17T19:29:16Z</time>
      </trkpt>
      <trkpt lat="60.0816512" lon="19.9372655">
        <ele>11.6732</ele>
        <time>2012-06-17T19:29:21Z</time>
      </trkpt>
      <trkpt lat="60.0817575" lon="19.9371343">
        <ele>12.6344</ele>
        <time>2012-06-17T19:29:26Z</time>
      </trkpt>
      <trkpt lat="60.0818358" lon="19.9371266">
        <ele>14.0764</ele>
        <time>2012-06-17T19:29:29Z</time>
      </trkpt>
      <trkpt lat="60.0819854" lon="19.9371303">
        <ele>12.6344</ele>
        <time>2012-06-17T19:29:35Z</time>
      </trkpt>
      <trkpt lat="60.0821077" lon="19.9372748">
        <ele>11.1925</ele>
        <time>2012-06-17T19:29:41Z</time>
      </trkpt>
      <trkpt lat="60.0822304" lon="19.9372527">
        <ele>9.75061</ele>
        <time>2012-06-17T19:29:46Z</time>
      </trkpt>
      <trkpt lat="60.0824154" lon="19.9371774">
        <ele>7.34717</ele>
        <time>2012-06-17T19:29:53Z</time>
      </trkpt>
      <trkpt lat="60.082628" lon="19.9371007">
        <ele>6.86646</ele>
        <time>2012-06-17T19:30:01Z</time>
      </trkpt>
      <trkpt lat="60.082724" lon="19.936964">
        <ele>7.82788</ele>
        <time>2012-06-17T19:30:05Z</time>
      </trkpt>
      <trkpt lat="60.0828228" lon="19.9366656">
        <ele>11.1925</ele>
        <time>2012-06-17T19:30:11Z</time>
      </trkpt>
      <trkpt lat="60.0828727" lon="19.9363766">
        <ele>14.557</ele>
        <time>2012-06-17T19:30:16Z</time>
      </trkpt>
      <trkpt lat="60.0829219" lon="19.9360376">
        <ele>15.5184</ele>
        <time>2012-06-17T19:30:22Z</time>
      </trkpt>
      <trkpt lat="60.0829459" lon="19.9358458">
        <ele>14.557</ele>
        <time>2012-06-17T19:30:26Z</time>
      </trkpt>
      <trkpt lat="60.0828929" lon="19.9357207">
        <ele>13.1151</ele>
        <time>2012-06-17T19:30:30Z</time>
      </trkpt>
      <trkpt lat="60.0828037" lon="19.9354772">
        <ele>10.7118</ele>
        <time>2012-06-17T19:30:36Z</time>
      </trkpt>
      <trkpt lat="60.0827948" lon="19.9354477">
        <ele>10.7118</ele>
        <time>2012-06-17T19:30:37Z</time>
      </trkpt>
      <trkpt lat="60.0827119" lon="19.9352075">
        <ele>10.2312</ele>
        <time>2012-06-17T19:30:43Z</time>
      </trkpt>
      <trkpt lat="60.082683" lon="19.9350573">
        <ele>7.82788</ele>
        <time>2012-06-17T19:30:47Z</time>
      </trkpt>
      <trkpt lat="60.0826349" lon="19.9348864">
        <ele>7.82788</ele>
        <time>2012-06-17T19:30:52Z</time>
      </trkpt>
      <trkpt lat="60.0826422" lon="19.9347189">
        <ele>5.90527</ele>
        <time>2012-06-17T19:30:56Z</time>
      </trkpt>
      <trkpt lat="60.0826645" lon="19.934561">
        <ele>4.46326</ele>
        <time>2012-06-17T19:31:00Z</time>
      </trkpt>
      <trkpt lat="60.0827959" lon="19.9344135">
        <ele>4.46326</ele>
        <time>2012-06-17T19:31:06Z</time>
      </trkpt>
      <trkpt lat="60.0829602" lon="19.9341215">
        <ele>4.94385</ele>
        <time>2012-06-17T19:31:12Z</time>
      </trkpt>
      <trkpt lat="60.0830566" lon="19.9340197">
        <ele>6.38586</ele>
        <time>2012-06-17T19:31:16Z</time>
      </trkpt>
      <trkpt lat="60.0831544" lon="19.9339465">
        <ele>7.34717</ele>
        <time>2012-06-17T19:31:21Z</time>
      </trkpt>
      <trkpt lat="60.0832893" lon="19.9338658">
        <ele>4.94385</ele>
        <time>2012-06-17T19:31:27Z</time>
      </trkpt>
      <trkpt lat="60.0833452" lon="19.9338653">
        <ele>3.50195</ele>
        <time>2012-06-17T19:31:30Z</time>
      </trkpt>
      <trkpt lat="60.0834281" lon="19.933775">
        <ele>4.46326</ele>
        <time>2012-06-17T19:31:34Z</time>
      </trkpt>
      <trkpt lat="60.0836114" lon="19.9335415">
        <ele>13.1151</ele>
        <time>2012-06-17T19:31:40Z</time>
      </trkpt>
      <trkpt lat="60.0837663" lon="19.9333823">
        <ele>17.9218</ele>
        <time>2012-06-17T19:31:46Z</time>
      </trkpt>
      <trkpt lat="60.0837855" lon="19.933378">
        <ele>17.4412</ele>
        <time>2012-06-17T19:31:47Z</time>
      </trkpt>
      <trkpt lat="60.0838788" lon="19.9331872">
        <ele>15.999</ele>
        <time>2012-06-17T19:31:52Z</time>
      </trkpt>
      <trkpt lat="60.083906" lon="19.9331498">
        <ele>15.5184</ele>
        <time>2012-06-17T19:31:53Z</time>
      </trkpt>
      <trkpt lat="60.0840626" lon="19.9330158">
        <ele>13.1151</ele>
        <time>2012-06-17T19:31:59Z</time>
      </trkpt>
      <trkpt lat="60.0841719" lon="19.9328703">
        <ele>10.2312</ele>
        <time>2012-06-17T19:32:04Z</time>
      </trkpt>
      <trkpt lat="60.0843439" lon="19.932769">
        <ele>6.38586</ele>
        <time>2012-06-17T19:32:10Z</time>
      </trkpt>
      <trkpt lat="60.084506" lon="19.9326162">
        <ele>3.98267</ele>
        <time>2012-06-17T19:32:16Z</time>
      </trkpt>
      <trkpt lat="60.0846417" lon="19.932447">
        <ele>5.42456</ele>
        <time>2012-06-17T19:32:21Z</time>
      </trkpt>
      <trkpt lat="60.0847691" lon="19.9323535">
        <ele>5.42456</ele>
        <time>2012-06-17T19:32:26Z</time>
      </trkpt>
      <trkpt lat="60.0849262" lon="19.9322382">
        <ele>4.46326</ele>
        <time>2012-06-17T19:32:32Z</time>
      </trkpt>
      <trkpt lat="60.085108" lon="19.9321698">
        <ele>5.90527</ele>
        <time>2012-06-17T19:32:38Z</time>
      </trkpt>
      <trkpt lat="60.0852048" lon="19.9321495">
        <ele>7.34717</ele>
        <time>2012-06-17T19:32:42Z</time>
      </trkpt>
      <trkpt lat="60.0853049" lon="19.9321714">
        <ele>6.38586</ele>
        <time>2012-06-17T19:32:48Z</time>
      </trkpt>
      <trkpt lat="60.0853349" lon="19.93216">
        <ele>5.90527</ele>
        <time>2012-06-17T19:32:50Z</time>
      </trkpt>
      <trkpt lat="60.0853848" lon="19.93217">
        <ele>3.98267</ele>
        <time>2012-06-17T19:32:53Z</time>
      </trkpt>
      <trkpt lat="60.0854104" lon="19.9321658">
        <ele>2.54065</ele>
        <time>2012-06-17T19:32:55Z</time>
      </trkpt>
      <trkpt lat="60.0855715" lon="19.9319873">
        <ele>7.34717</ele>
        <time>2012-06-17T19:33:01Z</time>
      </trkpt>
      <trkpt lat="60.0856516" lon="19.9319746">
        <ele>4.94385</ele>
        <time>2012-06-17T19:33:05Z</time>
      </trkpt>
      <trkpt lat="60.0857061" lon="19.9319782">
        <ele>4.94385</ele>
        <time>2012-06-17T19:33:08Z</time>
      </trkpt>
      <trkpt lat="60.085832" lon="19.9319528">
        <ele>5.42456</ele>
        <time>2012-06-17T19:33:14Z</time>
      </trkpt>
      <trkpt lat="60.0859397" lon="19.9318511">
        <ele>4.94385</ele>
        <time>2012-06-17T19:33:19Z</time>
      </trkpt>
      <trkpt lat="60.0861516" lon="19.9316891">
        <ele>11.6732</ele>
        <time>2012-06-17T19:33:26Z</time>
      </trkpt>
      <trkpt lat="60.0863116" lon="19.9315289">
        <ele>13.5958</ele>
        <time>2012-06-17T19:33:32Z</time>
      </trkpt>
      <trkpt lat="60.0864433" lon="19.9314501">
        <ele>14.557</ele>
        <time>2012-06-17T19:33:37Z</time>
      </trkpt>
      <trkpt lat="60.0864998" lon="19.931414">
        <ele>13.5958</ele>
        <time>2012-06-17T19:33:40Z</time>
      </trkpt>
      <trkpt lat="60.0865237" lon="19.9313617">
        <ele>13.1151</ele>
        <time>2012-06-17T19:33:43Z</time>
      </trkpt>
      <trkpt lat="60.0865055" lon="19.9313099">
        <ele>11.6732</ele>
        <time>2012-06-17T19:33:46Z</time>
      </trkpt>
      <trkpt lat="60.0865485" lon="19.9311495">
        <ele>9.75061</ele>
        <time>2012-06-17T19:33:51Z</time>
      </trkpt>
      <trkpt lat="60.0866921" lon="19.9310245">
        <ele>7.82788</ele>
        <time>2012-06-17T19:33:57Z</time>
      </trkpt>
      <trkpt lat="60.0868211" lon="19.9309581">
        <ele>3.02124</ele>
        <time>2012-06-17T19:34:02Z</time>
      </trkpt>
      <trkpt lat="60.0869225" lon="19.9309213">
        <ele>0.618042</ele>
        <time>2012-06-17T19:34:07Z</time>
      </trkpt>
      <trkpt lat="60.0870389" lon="19.9308643">
        <ele>0</ele>
        <time>2012-06-17T19:34:11Z</time>
      </trkpt>
      <trkpt lat="60.0872204" lon="19.9308236">
        <ele>0</ele>
        <time>2012-06-17T19:34:17Z</time>
      </trkpt>
      <trkpt lat="60.087387" lon="19.9308489">
        <ele>0</ele>
        <time>2012-06-17T19:34:23Z</time>
      </trkpt>
      <trkpt lat="60.08758" lon="19.9308825">
        <ele>0</ele>
        <time>2012-06-17T19:34:30Z</time>
      </trkpt>
      <trkpt lat="60.0877405" lon="19.9310239">
        <ele>0</ele>
        <time>2012-06-17T19:34:36Z</time>
      </trkpt>
      <trkpt lat="60.0879094" lon="19.9311761">
        <ele>0</ele>
        <time>2012-06-17T19:34:43Z</time>
      </trkpt>
      <trkpt lat="60.0880947" lon="19.9313191">
        <ele>0</ele>
        <time>2012-06-17T19:34:50Z</time>
      </trkpt>
      <trkpt lat="60.0883072" lon="19.9313597">
        <ele>0</ele>
        <time>2012-06-17T19:34:57Z</time>
      </trkpt>
      <trkpt lat="60.0884925" lon="19.9313447">
        <ele>0</ele>
        <time>2012-06-17T19:35:03Z</time>
      </trkpt>
      <trkpt lat="60.0886972" lon="19.9312917">
        <ele>2.54065</ele>
        <time>2012-06-17T19:35:09Z</time>
      </trkpt>
      <trkpt lat="60.088894" lon="19.931216">
        <ele>3.02124</ele>
        <time>2012-06-17T19:35:16Z</time>
      </trkpt>
      <trkpt lat="60.0890862" lon="19.9311111">
        <ele>2.54065</ele>
        <time>2012-06-17T19:35:23Z</time>
      </trkpt>
      <trkpt lat="60.0892793" lon="19.9309961">
        <ele>0.137451</ele>
        <time>2012-06-17T19:35:30Z</time>
      </trkpt>
      <trkpt lat="60.0894442" lon="19.9308907">
        <ele>0</ele>
        <time>2012-06-17T19:35:36Z</time>
      </trkpt>
      <trkpt lat="60.0896266" lon="19.9307734">
        <ele>0.137451</ele>
        <time>2012-06-17T19:35:43Z</time>
      </trkpt>
      <trkpt lat="60.0898073" lon="19.9306634">
        <ele>0</ele>
        <time>2012-06-17T19:35:50Z</time>
      </trkpt>
      <trkpt lat="60.0899741" lon="19.930579">
        <ele>2.06006</ele>
        <time>2012-06-17T19:35:56Z</time>
      </trkpt>
      <trkpt lat="60.0901254" lon="19.9305142">
        <ele>2.54065</ele>
        <time>2012-06-17T19:36:02Z</time>
      </trkpt>
      <trkpt lat="60.0902767" lon="19.9304516">
        <ele>6.38586</ele>
        <time>2012-06-17T19:36:07Z</time>
      </trkpt>
      <trkpt lat="60.090438" lon="19.930373">
        <ele>7.34717</ele>
        <time>2012-06-17T19:36:13Z</time>
      </trkpt>
      <trkpt lat="60.0905868" lon="19.9303944">
        <ele>9.75061</ele>
        <time>2012-06-17T19:36:19Z</time>
      </trkpt>
      <trkpt lat="60.0906932" lon="19.9305778">
        <ele>8.30859</ele>
        <time>2012-06-17T19:36:25Z</time>
      </trkpt>
      <trkpt lat="60.0908158" lon="19.930807">
        <ele>4.46326</ele>
        <time>2012-06-17T19:36:32Z</time>
      </trkpt>
      <trkpt lat="60.0909324" lon="19.9309241">
        <ele>3.02124</ele>
        <time>2012-06-17T19:36:37Z</time>
      </trkpt>
      <trkpt lat="60.0910712" lon="19.9309197">
        <ele>3.02124</ele>
        <time>2012-06-17T19:36:42Z</time>
      </trkpt>
      <trkpt lat="60.091238" lon="19.9307676">
        <ele>7.34717</ele>
        <time>2012-06-17T19:36:47Z</time>
      </trkpt>
      <trkpt lat="60.0913862" lon="19.9305429">
        <ele>8.30859</ele>
        <time>2012-06-17T19:36:53Z</time>
      </trkpt>
      <trkpt lat="60.091565" lon="19.9303786">
        <ele>7.34717</ele>
        <time>2012-06-17T19:37:00Z</time>
      </trkpt>
      <trkpt lat="60.0917466" lon="19.9302242">
        <ele>6.38586</ele>
        <time>2012-06-17T19:37:07Z</time>
      </trkpt>
      <trkpt lat="60.0918809" lon="19.9300429">
        <ele>6.86646</ele>
        <time>2012-06-17T19:37:13Z</time>
      </trkpt>
      <trkpt lat="60.0919584" lon="19.9298425">
        <ele>7.34717</ele>
        <time>2012-06-17T19:37:18Z</time>
      </trkpt>
      <trkpt lat="60.0921872" lon="19.9296557">
        <ele>9.2699</ele>
        <time>2012-06-17T19:37:27Z</time>
      </trkpt>
      <trkpt lat="60.0923156" lon="19.9294394">
        <ele>8.78918</ele>
        <time>2012-06-17T19:37:33Z</time>
      </trkpt>
      <trkpt lat="60.0924241" lon="19.9292615">
        <ele>8.30859</ele>
        <time>2012-06-17T19:37:38Z</time>
      </trkpt>
      <trkpt lat="60.0925792" lon="19.9291612">
        <ele>7.82788</ele>
        <time>2012-06-17T19:37:44Z</time>
      </trkpt>
      <trkpt lat="60.0927646" lon="19.9290585">
        <ele>7.82788</ele>
        <time>2012-06-17T19:37:51Z</time>
      </trkpt>
      <trkpt lat="60.0929831" lon="19.9289349">
        <ele>8.30859</ele>
        <time>2012-06-17T19:37:59Z</time>
      </trkpt>
      <trkpt lat="60.0931672" lon="19.9288305">
        <ele>7.82788</ele>
        <time>2012-06-17T19:38:06Z</time>
      </trkpt>
      <trkpt lat="60.0932873" lon="19.9286609">
        <ele>7.82788</ele>
        <time>2012-06-17T19:38:11Z</time>
      </trkpt>
      <trkpt lat="60.0934266" lon="19.9284764">
        <ele>8.78918</ele>
        <time>2012-06-17T19:38:17Z</time>
      </trkpt>
      <trkpt lat="60.0936033" lon="19.9283221">
        <ele>7.82788</ele>
        <time>2012-06-17T19:38:24Z</time>
      </trkpt>
      <trkpt lat="60.0937888" lon="19.9282137">
        <ele>5.90527</ele>
        <time>2012-06-17T19:38:31Z</time>
      </trkpt>
      <trkpt lat="60.0939441" lon="19.9281267">
        <ele>4.94385</ele>
        <time>2012-06-17T19:38:37Z</time>
      </trkpt>
      <trkpt lat="60.0940835" lon="19.9280592">
        <ele>4.94385</ele>
        <time>2012-06-17T19:38:42Z</time>
      </trkpt>
      <trkpt lat="60.0942918" lon="19.9279391">
        <ele>3.02124</ele>
        <time>2012-06-17T19:38:50Z</time>
      </trkpt>
      <trkpt lat="60.0944548" lon="19.9278455">
        <ele>2.06006</ele>
        <time>2012-06-17T19:38:56Z</time>
      </trkpt>
      <trkpt lat="60.0946564" lon="19.927748">
        <ele>4.46326</ele>
        <time>2012-06-17T19:39:03Z</time>
      </trkpt>
      <trkpt lat="60.0948142" lon="19.9276559">
        <ele>4.46326</ele>
        <time>2012-06-17T19:39:09Z</time>
      </trkpt>
      <trkpt lat="60.0950009" lon="19.9275832">
        <ele>6.38586</ele>
        <time>2012-06-17T19:39:16Z</time>
      </trkpt>
      <trkpt lat="60.0951588" lon="19.9274865">
        <ele>7.82788</ele>
        <time>2012-06-17T19:39:22Z</time>
      </trkpt>
      <trkpt lat="60.0953485" lon="19.9274228">
        <ele>7.34717</ele>
        <time>2012-06-17T19:39:29Z</time>
      </trkpt>
      <trkpt lat="60.095509" lon="19.9273858">
        <ele>5.42456</ele>
        <time>2012-06-17T19:39:35Z</time>
      </trkpt>
      <trkpt lat="60.095652" lon="19.9273403">
        <ele>6.38586</ele>
        <time>2012-06-17T19:39:40Z</time>
      </trkpt>
      <trkpt lat="60.0958391" lon="19.9272771">
        <ele>5.90527</ele>
        <time>2012-06-17T19:39:47Z</time>
      </trkpt>
      <trkpt lat="60.095955" lon="19.9271254">
        <ele>5.42456</ele>
        <time>2012-06-17T19:39:52Z</time>
      </trkpt>
      <trkpt lat="60.0960942" lon="19.9268415">
        <ele>6.86646</ele>
        <time>2012-06-17T19:39:58Z</time>
      </trkpt>
      <trkpt lat="60.0962387" lon="19.9266659">
        <ele>4.94385</ele>
        <time>2012-06-17T19:40:03Z</time>
      </trkpt>
      <trkpt lat="60.0964254" lon="19.9265154">
        <ele>3.02124</ele>
        <time>2012-06-17T19:40:09Z</time>
      </trkpt>
      <trkpt lat="60.0966334" lon="19.9263521">
        <ele>4.46326</ele>
        <time>2012-06-17T19:40:16Z</time>
      </trkpt>
      <trkpt lat="60.0968244" lon="19.9262125">
        <ele>6.38586</ele>
        <time>2012-06-17T19:40:23Z</time>
      </trkpt>
      <trkpt lat="60.0970243" lon="19.9260611">
        <ele>9.2699</ele>
        <time>2012-06-17T19:40:30Z</time>
      </trkpt>
      <trkpt lat="60.0971895" lon="19.9259409">
        <ele>10.2312</ele>
        <time>2012-06-17T19:40:36Z</time>
      </trkpt>
      <trkpt lat="60.0973443" lon="19.9258625">
        <ele>12.6344</ele>
        <time>2012-06-17T19:40:42Z</time>
      </trkpt>
      <trkpt lat="60.0974945" lon="19.9257911">
        <ele>11.6732</ele>
        <time>2012-06-17T19:40:48Z</time>
      </trkpt>
      <trkpt lat="60.0976659" lon="19.9256445">
        <ele>9.75061</ele>
        <time>2012-06-17T19:40:55Z</time>
      </trkpt>
      <trkpt lat="60.0978446" lon="19.9255042">
        <ele>11.1925</ele>
        <time>2012-06-17T19:41:01Z</time>
      </trkpt>
      <trkpt lat="60.0980482" lon="19.9253564">
        <ele>12.1538</ele>
        <time>2012-06-17T19:41:08Z</time>
      </trkpt>
      <trkpt lat="60.0982665" lon="19.9251864">
        <ele>11.1925</ele>
        <time>2012-06-17T19:41:16Z</time>
      </trkpt>
      <trkpt lat="60.098428" lon="19.9250494">
        <ele>10.2312</ele>
        <time>2012-06-17T19:41:22Z</time>
      </trkpt>
      <trkpt lat="60.0985371" lon="19.9249551">
        <ele>9.75061</ele>
        <time>2012-06-17T19:41:26Z</time>
      </trkpt>
      <trkpt lat="60.0986918" lon="19.9247919">
        <ele>8.78918</ele>
        <time>2012-06-17T19:41:32Z</time>
      </trkpt>
      <trkpt lat="60.0988755" lon="19.9246556">
        <ele>8.78918</ele>
        <time>2012-06-17T19:41:39Z</time>
      </trkpt>
      <trkpt lat="60.0990553" lon="19.9244671">
        <ele>9.75061</ele>
        <time>2012-06-17T19:41:46Z</time>
      </trkpt>
      <trkpt lat="60.0992338" lon="19.9242861">
        <ele>10.2312</ele>
        <time>2012-06-17T19:41:53Z</time>
      </trkpt>
      <trkpt lat="60.0993608" lon="19.92417">
        <ele>10.7118</ele>
        <time>2012-06-17T19:41:58Z</time>
      </trkpt>
      <trkpt lat="60.0995524" lon="19.9240033">
        <ele>9.2699</ele>
        <time>2012-06-17T19:42:05Z</time>
      </trkpt>
      <trkpt lat="60.0997245" lon="19.923911">
        <ele>8.78918</ele>
        <time>2012-06-17T19:42:11Z</time>
      </trkpt>
      <trkpt lat="60.0999225" lon="19.9237988">
        <ele>7.34717</ele>
        <time>2012-06-17T19:42:18Z</time>
      </trkpt>
      <trkpt lat="60.1000877" lon="19.9237288">
        <ele>5.90527</ele>
        <time>2012-06-17T19:42:24Z</time>
      </trkpt>
      <trkpt lat="60.1002762" lon="19.923692">
        <ele>3.50195</ele>
        <time>2012-06-17T19:42:31Z</time>
      </trkpt>
      <trkpt lat="60.1004539" lon="19.9236736">
        <ele>3.98267</ele>
        <time>2012-06-17T19:42:37Z</time>
      </trkpt>
      <trkpt lat="60.1006093" lon="19.9236398">
        <ele>3.50195</ele>
        <time>2012-06-17T19:42:43Z</time>
      </trkpt>
      <trkpt lat="60.1007255" lon="19.9236178">
        <ele>0</ele>
        <time>2012-06-17T19:42:48Z</time>
      </trkpt>
      <trkpt lat="60.1009071" lon="19.9235657">
        <ele>2.54065</ele>
        <time>2012-06-17T19:42:54Z</time>
      </trkpt>
      <trkpt lat="60.101017" lon="19.9235422">
        <ele>2.54065</ele>
        <time>2012-06-17T19:42:59Z</time>
      </trkpt>
      <trkpt lat="60.1011994" lon="19.9234352">
        <ele>4.46326</ele>
        <time>2012-06-17T19:43:05Z</time>
      </trkpt>
      <trkpt lat="60.101395" lon="19.9233596">
        <ele>7.34717</ele>
        <time>2012-06-17T19:43:11Z</time>
      </trkpt>
      <trkpt lat="60.1015856" lon="19.9232969">
        <ele>8.30859</ele>
        <time>2012-06-17T19:43:17Z</time>
      </trkpt>
      <trkpt lat="60.1017499" lon="19.9232362">
        <ele>6.38586</ele>
        <time>2012-06-17T19:43:23Z</time>
      </trkpt>
      <trkpt lat="60.1019434" lon="19.9231907">
        <ele>4.94385</ele>
        <time>2012-06-17T19:43:30Z</time>
      </trkpt>
      <trkpt lat="60.1021055" lon="19.9231786">
        <ele>3.02124</ele>
        <time>2012-06-17T19:43:36Z</time>
      </trkpt>
      <trkpt lat="60.1022794" lon="19.9232092">
        <ele>2.54065</ele>
        <time>2012-06-17T19:43:42Z</time>
      </trkpt>
      <trkpt lat="60.1024623" lon="19.9233345">
        <ele>3.02124</ele>
        <time>2012-06-17T19:43:49Z</time>
      </trkpt>
      <trkpt lat="60.1026382" lon="19.923524">
        <ele>4.94385</ele>
        <time>2012-06-17T19:43:56Z</time>
      </trkpt>
      <trkpt lat="60.1028091" lon="19.9237175">
        <ele>3.50195</ele>
        <time>2012-06-17T19:44:03Z</time>
      </trkpt>
      <trkpt lat="60.1030221" lon="19.9238335">
        <ele>5.42456</ele>
        <time>2012-06-17T19:44:11Z</time>
      </trkpt>
      <trkpt lat="60.103158" lon="19.9238536">
        <ele>7.34717</ele>
        <time>2012-06-17T19:44:16Z</time>
      </trkpt>
      <trkpt lat="60.1033216" lon="19.9239124">
        <ele>9.2699</ele>
        <time>2012-06-17T19:44:22Z</time>
      </trkpt>
      <trkpt lat="60.103462" lon="19.9239366">
        <ele>10.2312</ele>
        <time>2012-06-17T19:44:27Z</time>
      </trkpt>
      <trkpt lat="60.103669" lon="19.923988">
        <ele>9.2699</ele>
        <time>2012-06-17T19:44:34Z</time>
      </trkpt>
      <trkpt lat="60.1038929" lon="19.9240506">
        <ele>8.30859</ele>
        <time>2012-06-17T19:44:42Z</time>
      </trkpt>
      <trkpt lat="60.1040557" lon="19.9240641">
        <ele>7.34717</ele>
        <time>2012-06-17T19:44:48Z</time>
      </trkpt>
      <trkpt lat="60.1042202" lon="19.9241013">
        <ele>4.94385</ele>
        <time>2012-06-17T19:44:54Z</time>
      </trkpt>
      <trkpt lat="60.1043592" lon="19.9241241">
        <ele>5.42456</ele>
        <time>2012-06-17T19:44:59Z</time>
      </trkpt>
      <trkpt lat="60.1045212" lon="19.9241763">
        <ele>6.86646</ele>
        <time>2012-06-17T19:45:05Z</time>
      </trkpt>
      <trkpt lat="60.1046882" lon="19.924242">
        <ele>6.86646</ele>
        <time>2012-06-17T19:45:11Z</time>
      </trkpt>
      <trkpt lat="60.1048457" lon="19.9243271">
        <ele>5.90527</ele>
        <time>2012-06-17T19:45:17Z</time>
      </trkpt>
      <trkpt lat="60.1050411" lon="19.924457">
        <ele>4.46326</ele>
        <time>2012-06-17T19:45:24Z</time>
      </trkpt>
      <trkpt lat="60.1052259" lon="19.9246145">
        <ele>2.06006</ele>
        <time>2012-06-17T19:45:31Z</time>
      </trkpt>
      <trkpt lat="60.1054143" lon="19.9247923">
        <ele>2.06006</ele>
        <time>2012-06-17T19:45:38Z</time>
      </trkpt>
      <trkpt lat="60.1055464" lon="19.9249921">
        <ele>2.06006</ele>
        <time>2012-06-17T19:45:44Z</time>
      </trkpt>
      <trkpt lat="60.1056548" lon="19.9252611">
        <ele>5.42456</ele>
        <time>2012-06-17T19:45:50Z</time>
      </trkpt>
      <trkpt lat="60.105719" lon="19.925505">
        <ele>7.82788</ele>
        <time>2012-06-17T19:45:55Z</time>
      </trkpt>
      <trkpt lat="60.1057475" lon="19.9256392">
        <ele>8.30859</ele>
        <time>2012-06-17T19:45:58Z</time>
      </trkpt>
      <trkpt lat="60.1058366" lon="19.9260014">
        <ele>10.2312</ele>
        <time>2012-06-17T19:46:05Z</time>
      </trkpt>
      <trkpt lat="60.1058796" lon="19.9262322">
        <ele>11.1925</ele>
        <time>2012-06-17T19:46:09Z</time>
      </trkpt>
      <trkpt lat="60.1059416" lon="19.9265752">
        <ele>13.1151</ele>
        <time>2012-06-17T19:46:15Z</time>
      </trkpt>
      <trkpt lat="60.1060043" lon="19.9269561">
        <ele>14.0764</ele>
        <time>2012-06-17T19:46:22Z</time>
      </trkpt>
      <trkpt lat="60.1060744" lon="19.9273373">
        <ele>14.0764</ele>
        <time>2012-06-17T19:46:29Z</time>
      </trkpt>
      <trkpt lat="60.1061226" lon="19.9276542">
        <ele>14.557</ele>
        <time>2012-06-17T19:46:35Z</time>
      </trkpt>
      <trkpt lat="60.106169" lon="19.927916">
        <ele>15.0377</ele>
        <time>2012-06-17T19:46:40Z</time>
      </trkpt>
      <trkpt lat="60.1062203" lon="19.9282286">
        <ele>15.5184</ele>
        <time>2012-06-17T19:46:46Z</time>
      </trkpt>
      <trkpt lat="60.1062542" lon="19.92846">
        <ele>15.5184</ele>
        <time>2012-06-17T19:46:51Z</time>
      </trkpt>
      <trkpt lat="60.106296" lon="19.9287034">
        <ele>15.999</ele>
        <time>2012-06-17T19:46:56Z</time>
      </trkpt>
      <trkpt lat="60.1063405" lon="19.9289745">
        <ele>17.4412</ele>
        <time>2012-06-17T19:47:01Z</time>
      </trkpt>
      <trkpt lat="60.1064003" lon="19.9293363">
        <ele>19.3638</ele>
        <time>2012-06-17T19:47:08Z</time>
      </trkpt>
      <trkpt lat="60.1064415" lon="19.9296249">
        <ele>19.8444</ele>
        <time>2012-06-17T19:47:13Z</time>
      </trkpt>
      <trkpt lat="60.106497" lon="19.9299487">
        <ele>21.767</ele>
        <time>2012-06-17T19:47:19Z</time>
      </trkpt>
      <trkpt lat="60.1065505" lon="19.9302533">
        <ele>21.767</ele>
        <time>2012-06-17T19:47:25Z</time>
      </trkpt>
      <trkpt lat="60.1065893" lon="19.9305309">
        <ele>21.767</ele>
        <time>2012-06-17T19:47:30Z</time>
      </trkpt>
      <trkpt lat="60.106641" lon="19.9309238">
        <ele>21.2864</ele>
        <time>2012-06-17T19:47:37Z</time>
      </trkpt>
      <trkpt lat="60.1066495" lon="19.9312312">
        <ele>20.8057</ele>
        <time>2012-06-17T19:47:42Z</time>
      </trkpt>
      <trkpt lat="60.1066773" lon="19.9315775">
        <ele>20.8057</ele>
        <time>2012-06-17T19:47:48Z</time>
      </trkpt>
      <trkpt lat="60.1067436" lon="19.9319536">
        <ele>18.8831</ele>
        <time>2012-06-17T19:47:55Z</time>
      </trkpt>
      <trkpt lat="60.1067872" lon="19.9322682">
        <ele>18.8831</ele>
        <time>2012-06-17T19:48:01Z</time>
      </trkpt>
      <trkpt lat="60.1069067" lon="19.9325014">
        <ele>16.9604</ele>
        <time>2012-06-17T19:48:07Z</time>
      </trkpt>
      <trkpt lat="60.1070354" lon="19.9325159">
        <ele>15.0377</ele>
        <time>2012-06-17T19:48:12Z</time>
      </trkpt>
      <trkpt lat="60.1071306" lon="19.9324059">
        <ele>15.0377</ele>
        <time>2012-06-17T19:48:16Z</time>
      </trkpt>
      <trkpt lat="60.107214" lon="19.9324942">
        <ele>15.0377</ele>
        <time>2012-06-17T19:48:20Z</time>
      </trkpt>
      <trkpt lat="60.1073229" lon="19.9327904">
        <ele>14.557</ele>
        <time>2012-06-17T19:48:27Z</time>
      </trkpt>
      <trkpt lat="60.1074326" lon="19.9330312">
        <ele>14.0764</ele>
        <time>2012-06-17T19:48:33Z</time>
      </trkpt>
      <trkpt lat="60.1075326" lon="19.9332743">
        <ele>14.0764</ele>
        <time>2012-06-17T19:48:39Z</time>
      </trkpt>
      <trkpt lat="60.1076746" lon="19.9335422">
        <ele>17.9218</ele>
        <time>2012-06-17T19:48:46Z</time>
      </trkpt>
      <trkpt lat="60.107773" lon="19.933795">
        <ele>17.4412</ele>
        <time>2012-06-17T19:48:52Z</time>
      </trkpt>
      <trkpt lat="60.1078672" lon="19.9339943">
        <ele>17.4412</ele>
        <time>2012-06-17T19:48:57Z</time>
      </trkpt>
      <trkpt lat="60.1079879" lon="19.9340122">
        <ele>17.9218</ele>
        <time>2012-06-17T19:49:02Z</time>
      </trkpt>
      <trkpt lat="60.1081918" lon="19.933986">
        <ele>16.9604</ele>
        <time>2012-06-17T19:49:10Z</time>
      </trkpt>
      <trkpt lat="60.1083602" lon="19.9339465">
        <ele>13.1151</ele>
        <time>2012-06-17T19:49:17Z</time>
      </trkpt>
      <trkpt lat="60.1084954" lon="19.9339301">
        <ele>10.2312</ele>
        <time>2012-06-17T19:49:23Z</time>
      </trkpt>
      <trkpt lat="60.1087089" lon="19.9339055">
        <ele>16.4797</ele>
        <time>2012-06-17T19:49:30Z</time>
      </trkpt>
      <trkpt lat="60.1088797" lon="19.9338789">
        <ele>18.4023</ele>
        <time>2012-06-17T19:49:36Z</time>
      </trkpt>
      <trkpt lat="60.1090475" lon="19.9338481">
        <ele>17.9218</ele>
        <time>2012-06-17T19:49:42Z</time>
      </trkpt>
      <trkpt lat="60.1091711" lon="19.9338658">
        <ele>13.5958</ele>
        <time>2012-06-17T19:49:47Z</time>
      </trkpt>
      <trkpt lat="60.1093592" lon="19.9338886">
        <ele>11.6732</ele>
        <time>2012-06-17T19:49:54Z</time>
      </trkpt>
      <trkpt lat="60.1095315" lon="19.933925">
        <ele>9.2699</ele>
        <time>2012-06-17T19:50:00Z</time>
      </trkpt>
      <trkpt lat="60.1096785" lon="19.9340315">
        <ele>10.7118</ele>
        <time>2012-06-17T19:50:05Z</time>
      </trkpt>
      <trkpt lat="60.1098697" lon="19.9340154">
        <ele>13.1151</ele>
        <time>2012-06-17T19:50:11Z</time>
      </trkpt>
      <trkpt lat="60.1101002" lon="19.9339679">
        <ele>12.6344</ele>
        <time>2012-06-17T19:50:19Z</time>
      </trkpt>
      <trkpt lat="60.1102224" lon="19.9340169">
        <ele>13.1151</ele>
        <time>2012-06-17T19:50:23Z</time>
      </trkpt>
      <trkpt lat="60.1103697" lon="19.9340875">
        <ele>13.1151</ele>
        <time>2012-06-17T19:50:28Z</time>
      </trkpt>
      <trkpt lat="60.1105482" lon="19.9340915">
        <ele>12.6344</ele>
        <time>2012-06-17T19:50:34Z</time>
      </trkpt>
      <trkpt lat="60.1107893" lon="19.9340715">
        <ele>12.1538</ele>
        <time>2012-06-17T19:50:42Z</time>
      </trkpt>
      <trkpt lat="60.1109663" lon="19.934059">
        <ele>13.5958</ele>
        <time>2012-06-17T19:50:48Z</time>
      </trkpt>
      <trkpt lat="60.1111517" lon="19.934031">
        <ele>15.5184</ele>
        <time>2012-06-17T19:50:54Z</time>
      </trkpt>
      <trkpt lat="60.1113056" lon="19.9340108">
        <ele>16.4797</ele>
        <time>2012-06-17T19:51:00Z</time>
      </trkpt>
      <trkpt lat="60.1114472" lon="19.9339772">
        <ele>15.5184</ele>
        <time>2012-06-17T19:51:06Z</time>
      </trkpt>
      <trkpt lat="60.1116187" lon="19.9339233">
        <ele>18.8831</ele>
        <time>2012-06-17T19:51:12Z</time>
      </trkpt>
      <trkpt lat="60.1117427" lon="19.9338584">
        <ele>18.4023</ele>
        <time>2012-06-17T19:51:17Z</time>
      </trkpt>
      <trkpt lat="60.1119174" lon="19.9337419">
        <ele>16.4797</ele>
        <time>2012-06-17T19:51:24Z</time>
      </trkpt>
      <trkpt lat="60.1121123" lon="19.9336653">
        <ele>15.0377</ele>
        <time>2012-06-17T19:51:31Z</time>
      </trkpt>
      <trkpt lat="60.1122426" lon="19.9336016">
        <ele>14.0764</ele>
        <time>2012-06-17T19:51:36Z</time>
      </trkpt>
      <trkpt lat="60.1123893" lon="19.9335229">
        <ele>11.6732</ele>
        <time>2012-06-17T19:51:42Z</time>
      </trkpt>
      <trkpt lat="60.112411" lon="19.9335146">
        <ele>11.6732</ele>
        <time>2012-06-17T19:51:43Z</time>
      </trkpt>
      <trkpt lat="60.1125938" lon="19.9334187">
        <ele>8.78918</ele>
        <time>2012-06-17T19:51:50Z</time>
      </trkpt>
      <trkpt lat="60.1127867" lon="19.9333551">
        <ele>12.6344</ele>
        <time>2012-06-17T19:51:56Z</time>
      </trkpt>
      <trkpt lat="60.1130059" lon="19.9333136">
        <ele>14.0764</ele>
        <time>2012-06-17T19:52:03Z</time>
      </trkpt>
      <trkpt lat="60.1131722" lon="19.9332748">
        <ele>15.5184</ele>
        <time>2012-06-17T19:52:09Z</time>
      </trkpt>
      <trkpt lat="60.1133757" lon="19.9331945">
        <ele>17.4412</ele>
        <time>2012-06-17T19:52:16Z</time>
      </trkpt>
      <trkpt lat="60.1135516" lon="19.9330997">
        <ele>15.0377</ele>
        <time>2012-06-17T19:52:23Z</time>
      </trkpt>
      <trkpt lat="60.1136808" lon="19.9329759">
        <ele>13.5958</ele>
        <time>2012-06-17T19:52:28Z</time>
      </trkpt>
      <trkpt lat="60.1138299" lon="19.9329401">
        <ele>13.5958</ele>
        <time>2012-06-17T19:52:33Z</time>
      </trkpt>
      <trkpt lat="60.1138999" lon="19.9331142">
        <ele>15.999</ele>
        <time>2012-06-17T19:52:37Z</time>
      </trkpt>
      <trkpt lat="60.1139397" lon="19.9334411">
        <ele>18.8831</ele>
        <time>2012-06-17T19:52:43Z</time>
      </trkpt>
      <trkpt lat="60.113974" lon="19.9337452">
        <ele>20.8057</ele>
        <time>2012-06-17T19:52:49Z</time>
      </trkpt>
      <trkpt lat="60.1139999" lon="19.9340109">
        <ele>21.767</ele>
        <time>2012-06-17T19:52:54Z</time>
      </trkpt>
      <trkpt lat="60.1140304" lon="19.9343258">
        <ele>21.767</ele>
        <time>2012-06-17T19:53:00Z</time>
      </trkpt>
      <trkpt lat="60.1141031" lon="19.9346853">
        <ele>20.325</ele>
        <time>2012-06-17T19:53:07Z</time>
      </trkpt>
      <trkpt lat="60.1142175" lon="19.9347955">
        <ele>19.3638</ele>
        <time>2012-06-17T19:53:12Z</time>
      </trkpt>
      <trkpt lat="60.1143748" lon="19.9348954">
        <ele>17.9218</ele>
        <time>2012-06-17T19:53:18Z</time>
      </trkpt>
      <trkpt lat="60.1144826" lon="19.9350788">
        <ele>16.4797</ele>
        <time>2012-06-17T19:53:23Z</time>
      </trkpt>
      <trkpt lat="60.1145786" lon="19.9353271">
        <ele>15.5184</ele>
        <time>2012-06-17T19:53:29Z</time>
      </trkpt>
      <trkpt lat="60.1147872" lon="19.9353084">
        <ele>15.5184</ele>
        <time>2012-06-17T19:53:37Z</time>
      </trkpt>
      <trkpt lat="60.1149466" lon="19.9352779">
        <ele>15.0377</ele>
        <time>2012-06-17T19:53:43Z</time>
      </trkpt>
      <trkpt lat="60.1151357" lon="19.9352254">
        <ele>14.0764</ele>
        <time>2012-06-17T19:53:50Z</time>
      </trkpt>
      <trkpt lat="60.1153344" lon="19.9351468">
        <ele>14.0764</ele>
        <time>2012-06-17T19:53:57Z</time>
      </trkpt>
      <trkpt lat="60.1155009" lon="19.935109">
        <ele>14.0764</ele>
        <time>2012-06-17T19:54:03Z</time>
      </trkpt>
      <trkpt lat="60.1156893" lon="19.9350765">
        <ele>13.5958</ele>
        <time>2012-06-17T19:54:10Z</time>
      </trkpt>
      <trkpt lat="60.1158547" lon="19.9350234">
        <ele>13.5958</ele>
        <time>2012-06-17T19:54:16Z</time>
      </trkpt>
      <trkpt lat="60.1160303" lon="19.9349548">
        <ele>15.0377</ele>
        <time>2012-06-17T19:54:22Z</time>
      </trkpt>
      <trkpt lat="60.1162003" lon="19.9348935">
        <ele>15.0377</ele>
        <time>2012-06-17T19:54:28Z</time>
      </trkpt>
      <trkpt lat="60.1163802" lon="19.9349174">
        <ele>15.5184</ele>
        <time>2012-06-17T19:54:34Z</time>
      </trkpt>
      <trkpt lat="60.1165448" lon="19.9349629">
        <ele>15.0377</ele>
        <time>2012-06-17T19:54:40Z</time>
      </trkpt>
      <trkpt lat="60.1167089" lon="19.9350385">
        <ele>15.5184</ele>
        <time>2012-06-17T19:54:46Z</time>
      </trkpt>
      <trkpt lat="60.1168731" lon="19.9351096">
        <ele>15.999</ele>
        <time>2012-06-17T19:54:52Z</time>
      </trkpt>
      <trkpt lat="60.1170796" lon="19.9351966">
        <ele>16.9604</ele>
        <time>2012-06-17T19:54:59Z</time>
      </trkpt>
      <trkpt lat="60.1172197" lon="19.9352462">
        <ele>15.5184</ele>
        <time>2012-06-17T19:55:04Z</time>
      </trkpt>
      <trkpt lat="60.1174196" lon="19.9352561">
        <ele>14.557</ele>
        <time>2012-06-17T19:55:11Z</time>
      </trkpt>
      <trkpt lat="60.1175917" lon="19.9352007">
        <ele>14.557</ele>
        <time>2012-06-17T19:55:17Z</time>
      </trkpt>
      <trkpt lat="60.1177632" lon="19.9350115">
        <ele>15.5184</ele>
        <time>2012-06-17T19:55:24Z</time>
      </trkpt>
      <trkpt lat="60.1178239" lon="19.9348644">
        <ele>17.4412</ele>
        <time>2012-06-17T19:55:27Z</time>
      </trkpt>
      <trkpt lat="60.1180004" lon="19.9347436">
        <ele>17.4412</ele>
        <time>2012-06-17T19:55:34Z</time>
      </trkpt>
      <trkpt lat="60.1181609" lon="19.9346687">
        <ele>16.4797</ele>
        <time>2012-06-17T19:55:40Z</time>
      </trkpt>
      <trkpt lat="60.1183455" lon="19.9345787">
        <ele>15.999</ele>
        <time>2012-06-17T19:55:47Z</time>
      </trkpt>
      <trkpt lat="60.1185657" lon="19.9344626">
        <ele>16.4797</ele>
        <time>2012-06-17T19:55:55Z</time>
      </trkpt>
      <trkpt lat="60.1187568" lon="19.9343869">
        <ele>17.9218</ele>
        <time>2012-06-17T19:56:02Z</time>
      </trkpt>
      <trkpt lat="60.1189472" lon="19.934305">
        <ele>19.3638</ele>
        <time>2012-06-17T19:56:09Z</time>
      </trkpt>
      <trkpt lat="60.1191591" lon="19.9342004">
        <ele>18.8831</ele>
        <time>2012-06-17T19:56:17Z</time>
      </trkpt>
      <trkpt lat="60.1193178" lon="19.9341009">
        <ele>19.3638</ele>
        <time>2012-06-17T19:56:23Z</time>
      </trkpt>
      <trkpt lat="60.1194929" lon="19.9339273">
        <ele>19.3638</ele>
        <time>2012-06-17T19:56:30Z</time>
      </trkpt>
      <trkpt lat="60.1196139" lon="19.9337911">
        <ele>19.8444</ele>
        <time>2012-06-17T19:56:35Z</time>
      </trkpt>
      <trkpt lat="60.11979" lon="19.9336275">
        <ele>21.767</ele>
        <time>2012-06-17T19:56:42Z</time>
      </trkpt>
      <trkpt lat="60.1198874" lon="19.9335672">
        <ele>21.2864</ele>
        <time>2012-06-17T19:56:46Z</time>
      </trkpt>
      <trkpt lat="60.1199924" lon="19.9335002">
        <ele>17.9218</ele>
        <time>2012-06-17T19:56:51Z</time>
      </trkpt>
      <trkpt lat="60.1201664" lon="19.9334544">
        <ele>19.3638</ele>
        <time>2012-06-17T19:56:57Z</time>
      </trkpt>
      <trkpt lat="60.1203378" lon="19.9334452">
        <ele>21.767</ele>
        <time>2012-06-17T19:57:03Z</time>
      </trkpt>
      <trkpt lat="60.1204827" lon="19.9334622">
        <ele>21.2864</ele>
        <time>2012-06-17T19:57:09Z</time>
      </trkpt>
      <trkpt lat="60.120691" lon="19.9334813">
        <ele>17.4412</ele>
        <time>2012-06-17T19:57:17Z</time>
      </trkpt>
      <trkpt lat="60.1208424" lon="19.9334619">
        <ele>18.4023</ele>
        <time>2012-06-17T19:57:22Z</time>
      </trkpt>
      <trkpt lat="60.1211064" lon="19.9333157">
        <ele>21.767</ele>
        <time>2012-06-17T19:57:31Z</time>
      </trkpt>
      <trkpt lat="60.1212719" lon="19.9332302">
        <ele>22.2476</ele>
        <time>2012-06-17T19:57:37Z</time>
      </trkpt>
      <trkpt lat="60.1214975" lon="19.9331464">
        <ele>22.7283</ele>
        <time>2012-06-17T19:57:45Z</time>
      </trkpt>
      <trkpt lat="60.1216648" lon="19.9331217">
        <ele>23.209</ele>
        <time>2012-06-17T19:57:51Z</time>
      </trkpt>
      <trkpt lat="60.1218322" lon="19.9331033">
        <ele>23.209</ele>
        <time>2012-06-17T19:57:57Z</time>
      </trkpt>
      <trkpt lat="60.1220497" lon="19.9330955">
        <ele>23.6896</ele>
        <time>2012-06-17T19:58:05Z</time>
      </trkpt>
      <trkpt lat="60.1223021" lon="19.9330891">
        <ele>23.6896</ele>
        <time>2012-06-17T19:58:14Z</time>
      </trkpt>
      <trkpt lat="60.122477" lon="19.9330695">
        <ele>24.651</ele>
        <time>2012-06-17T19:58:20Z</time>
      </trkpt>
      <trkpt lat="60.1226932" lon="19.9330364">
        <ele>24.1703</ele>
        <time>2012-06-17T19:58:28Z</time>
      </trkpt>
      <trkpt lat="60.1228921" lon="19.9329898">
        <ele>24.651</ele>
        <time>2012-06-17T19:58:35Z</time>
      </trkpt>
      <trkpt lat="60.1230562" lon="19.9329442">
        <ele>24.1703</ele>
        <time>2012-06-17T19:58:41Z</time>
      </trkpt>
      <trkpt lat="60.1231898" lon="19.9328934">
        <ele>25.1317</ele>
        <time>2012-06-17T19:58:46Z</time>
      </trkpt>
      <trkpt lat="60.123336" lon="19.932756">
        <ele>25.1317</ele>
        <time>2012-06-17T19:58:52Z</time>
      </trkpt>
      <trkpt lat="60.1234856" lon="19.9326252">
        <ele>26.0929</ele>
        <time>2012-06-17T19:58:58Z</time>
      </trkpt>
      <trkpt lat="60.1236459" lon="19.9325402">
        <ele>27.0543</ele>
        <time>2012-06-17T19:59:04Z</time>
      </trkpt>
      <trkpt lat="60.1238416" lon="19.9324817">
        <ele>28.9769</ele>
        <time>2012-06-17T19:59:11Z</time>
      </trkpt>
      <trkpt lat="60.124039" lon="19.9324438">
        <ele>30.4188</ele>
        <time>2012-06-17T19:59:18Z</time>
      </trkpt>
      <trkpt lat="60.1242327" lon="19.9324124">
        <ele>30.8995</ele>
        <time>2012-06-17T19:59:25Z</time>
      </trkpt>
      <trkpt lat="60.1244512" lon="19.9323686">
        <ele>29.9381</ele>
        <time>2012-06-17T19:59:33Z</time>
      </trkpt>
      <trkpt lat="60.1246006" lon="19.9322554">
        <ele>28.9769</ele>
        <time>2012-06-17T19:59:39Z</time>
      </trkpt>
      <trkpt lat="60.1247486" lon="19.9320894">
        <ele>28.9769</ele>
        <time>2012-06-17T19:59:45Z</time>
      </trkpt>
      <trkpt lat="60.1249134" lon="19.9320914">
        <ele>28.4962</ele>
        <time>2012-06-17T19:59:51Z</time>
      </trkpt>
      <trkpt lat="60.1251133" lon="19.932117">
        <ele>28.4962</ele>
        <time>2012-06-17T19:59:58Z</time>
      </trkpt>
      <trkpt lat="60.1253147" lon="19.9321289">
        <ele>28.4962</ele>
        <time>2012-06-17T20:00:05Z</time>
      </trkpt>
      <trkpt lat="60.125508" lon="19.9321613">
        <ele>28.9769</ele>
        <time>2012-06-17T20:00:12Z</time>
      </trkpt>
      <trkpt lat="60.1256998" lon="19.9321911">
        <ele>28.4962</ele>
        <time>2012-06-17T20:00:19Z</time>
      </trkpt>
      <trkpt lat="60.1259205" lon="19.9322713">
        <ele>28.4962</ele>
        <time>2012-06-17T20:00:27Z</time>
      </trkpt>
      <trkpt lat="60.1260664" lon="19.9324206">
        <ele>28.9769</ele>
        <time>2012-06-17T20:00:33Z</time>
      </trkpt>
      <trkpt lat="60.1261918" lon="19.9323507">
        <ele>28.4962</ele>
        <time>2012-06-17T20:00:38Z</time>
      </trkpt>
      <trkpt lat="60.1263291" lon="19.9323008">
        <ele>28.4962</ele>
        <time>2012-06-17T20:00:43Z</time>
      </trkpt>
      <trkpt lat="60.1265108" lon="19.9323193">
        <ele>27.0543</ele>
        <time>2012-06-17T20:00:50Z</time>
      </trkpt>
      <trkpt lat="60.1267052" lon="19.9323284">
        <ele>26.0929</ele>
        <time>2012-06-17T20:00:57Z</time>
      </trkpt>
      <trkpt lat="60.126921" lon="19.9323468">
        <ele>25.6123</ele>
        <time>2012-06-17T20:01:05Z</time>
      </trkpt>
      <trkpt lat="60.1271185" lon="19.9323922">
        <ele>24.651</ele>
        <time>2012-06-17T20:01:12Z</time>
      </trkpt>
      <trkpt lat="60.1272825" lon="19.9324097">
        <ele>24.651</ele>
        <time>2012-06-17T20:01:18Z</time>
      </trkpt>
      <trkpt lat="60.1274613" lon="19.932361">
        <ele>24.651</ele>
        <time>2012-06-17T20:01:25Z</time>
      </trkpt>
      <trkpt lat="60.1276179" lon="19.9322953">
        <ele>25.1317</ele>
        <time>2012-06-17T20:01:31Z</time>
      </trkpt>
      <trkpt lat="60.1277809" lon="19.932292">
        <ele>26.0929</ele>
        <time>2012-06-17T20:01:37Z</time>
      </trkpt>
      <trkpt lat="60.1279448" lon="19.9323007">
        <ele>26.0929</ele>
        <time>2012-06-17T20:01:43Z</time>
      </trkpt>
      <trkpt lat="60.1281345" lon="19.9322734">
        <ele>25.6123</ele>
        <time>2012-06-17T20:01:50Z</time>
      </trkpt>
      <trkpt lat="60.1283232" lon="19.932207">
        <ele>26.5736</ele>
        <time>2012-06-17T20:01:57Z</time>
      </trkpt>
      <trkpt lat="60.1285084" lon="19.9321463">
        <ele>28.4962</ele>
        <time>2012-06-17T20:02:04Z</time>
      </trkpt>
      <trkpt lat="60.1286964" lon="19.9320703">
        <ele>31.8607</ele>
        <time>2012-06-17T20:02:11Z</time>
      </trkpt>
      <trkpt lat="60.1288834" lon="19.9319953">
        <ele>33.7834</ele>
        <time>2012-06-17T20:02:18Z</time>
      </trkpt>
      <trkpt lat="60.1290195" lon="19.9319469">
        <ele>35.7061</ele>
        <time>2012-06-17T20:02:23Z</time>
      </trkpt>
      <trkpt lat="60.1291817" lon="19.9319321">
        <ele>36.6675</ele>
        <time>2012-06-17T20:02:29Z</time>
      </trkpt>
      <trkpt lat="60.1293704" lon="19.931943">
        <ele>38.1094</ele>
        <time>2012-06-17T20:02:36Z</time>
      </trkpt>
      <trkpt lat="60.1295416" lon="19.9319564">
        <ele>38.1094</ele>
        <time>2012-06-17T20:02:42Z</time>
      </trkpt>
      <trkpt lat="60.1297676" lon="19.9319848">
        <ele>38.5901</ele>
        <time>2012-06-17T20:02:50Z</time>
      </trkpt>
      <trkpt lat="60.1299506" lon="19.9320605">
        <ele>37.6287</ele>
        <time>2012-06-17T20:02:57Z</time>
      </trkpt>
      <trkpt lat="60.1301588" lon="19.9321943">
        <ele>38.1094</ele>
        <time>2012-06-17T20:03:05Z</time>
      </trkpt>
      <trkpt lat="60.1303137" lon="19.9322898">
        <ele>38.1094</ele>
        <time>2012-06-17T20:03:11Z</time>
      </trkpt>
      <trkpt lat="60.1304722" lon="19.9323851">
        <ele>38.5901</ele>
        <time>2012-06-17T20:03:17Z</time>
      </trkpt>
      <trkpt lat="60.1306369" lon="19.9324763">
        <ele>38.5901</ele>
        <time>2012-06-17T20:03:23Z</time>
      </trkpt>
      <trkpt lat="60.1307871" lon="19.932559">
        <ele>38.5901</ele>
        <time>2012-06-17T20:03:29Z</time>
      </trkpt>
      <trkpt lat="60.1309766" lon="19.9326624">
        <ele>38.1094</ele>
        <time>2012-06-17T20:03:36Z</time>
      </trkpt>
      <trkpt lat="60.1311393" lon="19.9327453">
        <ele>38.5901</ele>
        <time>2012-06-17T20:03:42Z</time>
      </trkpt>
      <trkpt lat="60.1313598" lon="19.9328667">
        <ele>38.1094</ele>
        <time>2012-06-17T20:03:50Z</time>
      </trkpt>
      <trkpt lat="60.1315414" lon="19.9329874">
        <ele>38.1094</ele>
        <time>2012-06-17T20:03:57Z</time>
      </trkpt>
      <trkpt lat="60.1317189" lon="19.9331376">
        <ele>37.6287</ele>
        <time>2012-06-17T20:04:04Z</time>
      </trkpt>
      <trkpt lat="60.1318369" lon="19.9333726">
        <ele>36.6675</ele>
        <time>2012-06-17T20:04:10Z</time>
      </trkpt>
      <trkpt lat="60.1318921" lon="19.9335918">
        <ele>35.7061</ele>
        <time>2012-06-17T20:04:14Z</time>
      </trkpt>
      <trkpt lat="60.1319339" lon="19.933972">
        <ele>34.2642</ele>
        <time>2012-06-17T20:04:20Z</time>
      </trkpt>
      <trkpt lat="60.131939" lon="19.9342969">
        <ele>32.8223</ele>
        <time>2012-06-17T20:04:25Z</time>
      </trkpt>
      <trkpt lat="60.1319394" lon="19.9345496">
        <ele>30.4188</ele>
        <time>2012-06-17T20:04:29Z</time>
      </trkpt>
      <trkpt lat="60.1320249" lon="19.9346574">
        <ele>29.4575</ele>
        <time>2012-06-17T20:04:33Z</time>
      </trkpt>
      <trkpt lat="60.1322076" lon="19.9347122">
        <ele>28.4962</ele>
        <time>2012-06-17T20:04:39Z</time>
      </trkpt>
      <trkpt lat="60.1322644" lon="19.9348669">
        <ele>28.0155</ele>
        <time>2012-06-17T20:04:42Z</time>
      </trkpt>
      <trkpt lat="60.1322763" lon="19.9352002">
        <ele>26.5736</ele>
        <time>2012-06-17T20:04:47Z</time>
      </trkpt>
      <trkpt lat="60.132306" lon="19.9355431">
        <ele>26.0929</ele>
        <time>2012-06-17T20:04:53Z</time>
      </trkpt>
      <trkpt lat="60.1324208" lon="19.9356396">
        <ele>26.5736</ele>
        <time>2012-06-17T20:04:58Z</time>
      </trkpt>
      <trkpt lat="60.1325065" lon="19.9356408">
        <ele>27.0543</ele>
        <time>2012-06-17T20:05:01Z</time>
      </trkpt>
      <trkpt lat="60.1327333" lon="19.9356719">
        <ele>27.0543</ele>
        <time>2012-06-17T20:05:09Z</time>
      </trkpt>
      <trkpt lat="60.1328819" lon="19.9358337">
        <ele>27.5349</ele>
        <time>2012-06-17T20:05:15Z</time>
      </trkpt>
      <trkpt lat="60.1329663" lon="19.9361056">
        <ele>28.0155</ele>
        <time>2012-06-17T20:05:21Z</time>
      </trkpt>
      <trkpt lat="60.1329822" lon="19.9364329">
        <ele>28.9769</ele>
        <time>2012-06-17T20:05:27Z</time>
      </trkpt>
      <trkpt lat="60.1329751" lon="19.9367599">
        <ele>28.9769</ele>
        <time>2012-06-17T20:05:33Z</time>
      </trkpt>
      <trkpt lat="60.1329606" lon="19.93722">
        <ele>28.9769</ele>
        <time>2012-06-17T20:05:41Z</time>
      </trkpt>
      <trkpt lat="60.13296" lon="19.9373979">
        <ele>28.4962</ele>
        <time>2012-06-17T20:05:44Z</time>
      </trkpt>
      <trkpt lat="60.133056" lon="19.9375271">
        <ele>29.4575</ele>
        <time>2012-06-17T20:05:49Z</time>
      </trkpt>
      <trkpt lat="60.133245" lon="19.9375204">
        <ele>29.9381</ele>
        <time>2012-06-17T20:05:56Z</time>
      </trkpt>
      <trkpt lat="60.1334044" lon="19.9375583">
        <ele>29.4575</ele>
        <time>2012-06-17T20:06:02Z</time>
      </trkpt>
      <trkpt lat="60.1335484" lon="19.9376395">
        <ele>28.4962</ele>
        <time>2012-06-17T20:06:08Z</time>
      </trkpt>
      <trkpt lat="60.1336516" lon="19.9376937">
        <ele>28.0155</ele>
        <time>2012-06-17T20:06:12Z</time>
      </trkpt>
      <trkpt lat="60.1338291" lon="19.9377693">
        <ele>26.5736</ele>
        <time>2012-06-17T20:06:19Z</time>
      </trkpt>
      <trkpt lat="60.1340319" lon="19.93784">
        <ele>28.9769</ele>
        <time>2012-06-17T20:06:26Z</time>
      </trkpt>
      <trkpt lat="60.1342282" lon="19.9379114">
        <ele>29.4575</ele>
        <time>2012-06-17T20:06:33Z</time>
      </trkpt>
      <trkpt lat="60.1343951" lon="19.9379798">
        <ele>29.4575</ele>
        <time>2012-06-17T20:06:39Z</time>
      </trkpt>
      <trkpt lat="60.1345581" lon="19.9380699">
        <ele>29.9381</ele>
        <time>2012-06-17T20:06:45Z</time>
      </trkpt>
      <trkpt lat="60.1347246" lon="19.9381664">
        <ele>30.8995</ele>
        <time>2012-06-17T20:06:51Z</time>
      </trkpt>
      <trkpt lat="60.134885" lon="19.9382747">
        <ele>31.3801</ele>
        <time>2012-06-17T20:06:57Z</time>
      </trkpt>
      <trkpt lat="60.1349913" lon="19.9383532">
        <ele>31.8607</ele>
        <time>2012-06-17T20:07:01Z</time>
      </trkpt>
      <trkpt lat="60.1351237" lon="19.9384443">
        <ele>32.3416</ele>
        <time>2012-06-17T20:07:06Z</time>
      </trkpt>
      <trkpt lat="60.135317" lon="19.9385822">
        <ele>31.8607</ele>
        <time>2012-06-17T20:07:13Z</time>
      </trkpt>
      <trkpt lat="60.1354838" lon="19.9387028">
        <ele>28.0155</ele>
        <time>2012-06-17T20:07:20Z</time>
      </trkpt>
      <trkpt lat="60.135605" lon="19.9388033">
        <ele>25.1317</ele>
        <time>2012-06-17T20:07:25Z</time>
      </trkpt>
      <trkpt lat="60.1357827" lon="19.9389448">
        <ele>22.2476</ele>
        <time>2012-06-17T20:07:32Z</time>
      </trkpt>
      <trkpt lat="60.1360029" lon="19.9391068">
        <ele>26.5736</ele>
        <time>2012-06-17T20:07:39Z</time>
      </trkpt>
      <trkpt lat="60.1361933" lon="19.9392708">
        <ele>27.0543</ele>
        <time>2012-06-17T20:07:46Z</time>
      </trkpt>
      <trkpt lat="60.1363422" lon="19.9394233">
        <ele>27.0543</ele>
        <time>2012-06-17T20:07:52Z</time>
      </trkpt>
      <trkpt lat="60.1365076" lon="19.9396099">
        <ele>27.5349</ele>
        <time>2012-06-17T20:07:59Z</time>
      </trkpt>
      <trkpt lat="60.1366787" lon="19.9398043">
        <ele>26.0929</ele>
        <time>2012-06-17T20:08:06Z</time>
      </trkpt>
      <trkpt lat="60.1368298" lon="19.9399737">
        <ele>25.6123</ele>
        <time>2012-06-17T20:08:12Z</time>
      </trkpt>
      <trkpt lat="60.1369927" lon="19.9401007">
        <ele>25.6123</ele>
        <time>2012-06-17T20:08:18Z</time>
      </trkpt>
      <trkpt lat="60.1371354" lon="19.9400313">
        <ele>25.6123</ele>
        <time>2012-06-17T20:08:23Z</time>
      </trkpt>
      <trkpt lat="60.1372746" lon="19.9398245">
        <ele>25.6123</ele>
        <time>2012-06-17T20:08:29Z</time>
      </trkpt>
      <trkpt lat="60.1373715" lon="19.9395955">
        <ele>25.6123</ele>
        <time>2012-06-17T20:08:34Z</time>
      </trkpt>
      <trkpt lat="60.1375124" lon="19.9392951">
        <ele>26.0929</ele>
        <time>2012-06-17T20:08:41Z</time>
      </trkpt>
      <trkpt lat="60.1376414" lon="19.9390621">
        <ele>25.6123</ele>
        <time>2012-06-17T20:08:47Z</time>
      </trkpt>
      <trkpt lat="60.1377779" lon="19.9388383">
        <ele>25.1317</ele>
        <time>2012-06-17T20:08:53Z</time>
      </trkpt>
      <trkpt lat="60.137904" lon="19.9387097">
        <ele>24.651</ele>
        <time>2012-06-17T20:08:58Z</time>
      </trkpt>
      <trkpt lat="60.1380641" lon="19.9385942">
        <ele>25.6123</ele>
        <time>2012-06-17T20:09:04Z</time>
      </trkpt>
      <trkpt lat="60.138205" lon="19.9385491">
        <ele>26.0929</ele>
        <time>2012-06-17T20:09:09Z</time>
      </trkpt>
      <trkpt lat="60.1383669" lon="19.9385709">
        <ele>25.6123</ele>
        <time>2012-06-17T20:09:15Z</time>
      </trkpt>
      <trkpt lat="60.1385184" lon="19.9386532">
        <ele>25.6123</ele>
        <time>2012-06-17T20:09:21Z</time>
      </trkpt>
      <trkpt lat="60.138679" lon="19.9388091">
        <ele>27.0543</ele>
        <time>2012-06-17T20:09:28Z</time>
      </trkpt>
      <trkpt lat="60.1388606" lon="19.9389422">
        <ele>26.5736</ele>
        <time>2012-06-17T20:09:36Z</time>
      </trkpt>
      <trkpt lat="60.1390025" lon="19.9390714">
        <ele>23.209</ele>
        <time>2012-06-17T20:09:42Z</time>
      </trkpt>
      <trkpt lat="60.1391465" lon="19.9392075">
        <ele>22.7283</ele>
        <time>2012-06-17T20:09:48Z</time>
      </trkpt>
      <trkpt lat="60.1393234" lon="19.9393562">
        <ele>20.8057</ele>
        <time>2012-06-17T20:09:55Z</time>
      </trkpt>
      <trkpt lat="60.1395268" lon="19.9394961">
        <ele>24.1703</ele>
        <time>2012-06-17T20:10:02Z</time>
      </trkpt>
      <trkpt lat="60.1397254" lon="19.9395702">
        <ele>25.6123</ele>
        <time>2012-06-17T20:10:09Z</time>
      </trkpt>
      <trkpt lat="60.1399098" lon="19.9395623">
        <ele>25.6123</ele>
        <time>2012-06-17T20:10:16Z</time>
      </trkpt>
      <trkpt lat="60.1400706" lon="19.9395125">
        <ele>26.5736</ele>
        <time>2012-06-17T20:10:22Z</time>
      </trkpt>
      <trkpt lat="60.1402799" lon="19.9394653">
        <ele>28.4962</ele>
        <time>2012-06-17T20:10:30Z</time>
      </trkpt>
      <trkpt lat="60.1404687" lon="19.9394736">
        <ele>29.9381</ele>
        <time>2012-06-17T20:10:37Z</time>
      </trkpt>
      <trkpt lat="60.1406535" lon="19.9395414">
        <ele>29.9381</ele>
        <time>2012-06-17T20:10:44Z</time>
      </trkpt>
      <trkpt lat="60.1407873" lon="19.9396044">
        <ele>30.8995</ele>
        <time>2012-06-17T20:10:49Z</time>
      </trkpt>
      <trkpt lat="60.1410059" lon="19.9397456">
        <ele>32.8223</ele>
        <time>2012-06-17T20:10:57Z</time>
      </trkpt>
      <trkpt lat="60.1411759" lon="19.9398878">
        <ele>31.8607</ele>
        <time>2012-06-17T20:11:04Z</time>
      </trkpt>
      <trkpt lat="60.1413435" lon="19.9400587">
        <ele>31.8607</ele>
        <time>2012-06-17T20:11:11Z</time>
      </trkpt>
      <trkpt lat="60.1415316" lon="19.9402566">
        <ele>29.4575</ele>
        <time>2012-06-17T20:11:19Z</time>
      </trkpt>
      <trkpt lat="60.1416817" lon="19.940419">
        <ele>29.4575</ele>
        <time>2012-06-17T20:11:25Z</time>
      </trkpt>
      <trkpt lat="60.1418332" lon="19.9405785">
        <ele>28.9769</ele>
        <time>2012-06-17T20:11:31Z</time>
      </trkpt>
      <trkpt lat="60.1419849" lon="19.9407383">
        <ele>29.9381</ele>
        <time>2012-06-17T20:11:37Z</time>
      </trkpt>
      <trkpt lat="60.1421844" lon="19.9409583">
        <ele>30.8995</ele>
        <time>2012-06-17T20:11:45Z</time>
      </trkpt>
      <trkpt lat="60.1423048" lon="19.9410905">
        <ele>30.8995</ele>
        <time>2012-06-17T20:11:50Z</time>
      </trkpt>
      <trkpt lat="60.1424459" lon="19.9412488">
        <ele>31.8607</ele>
        <time>2012-06-17T20:11:56Z</time>
      </trkpt>
      <trkpt lat="60.1425942" lon="19.9414112">
        <ele>32.8223</ele>
        <time>2012-06-17T20:12:02Z</time>
      </trkpt>
      <trkpt lat="60.1427307" lon="19.9416311">
        <ele>33.3029</ele>
        <time>2012-06-17T20:12:08Z</time>
      </trkpt>
      <trkpt lat="60.142786" lon="19.941884">
        <ele>34.2642</ele>
        <time>2012-06-17T20:12:13Z</time>
      </trkpt>
      <trkpt lat="60.1428002" lon="19.9421384">
        <ele>36.1868</ele>
        <time>2012-06-17T20:12:18Z</time>
      </trkpt>
      <trkpt lat="60.1427713" lon="19.9424601">
        <ele>37.1481</ele>
        <time>2012-06-17T20:12:24Z</time>
      </trkpt>
      <trkpt lat="60.1427802" lon="19.942878">
        <ele>36.1868</ele>
        <time>2012-06-17T20:12:31Z</time>
      </trkpt>
      <trkpt lat="60.1428834" lon="19.9430698">
        <ele>34.2642</ele>
        <time>2012-06-17T20:12:36Z</time>
      </trkpt>
      <trkpt lat="60.1430385" lon="19.9431915">
        <ele>32.8223</ele>
        <time>2012-06-17T20:12:42Z</time>
      </trkpt>
      <trkpt lat="60.1432015" lon="19.9433019">
        <ele>32.3416</ele>
        <time>2012-06-17T20:12:48Z</time>
      </trkpt>
      <trkpt lat="60.1433877" lon="19.9434244">
        <ele>32.3416</ele>
        <time>2012-06-17T20:12:55Z</time>
      </trkpt>
      <trkpt lat="60.1435747" lon="19.9435526">
        <ele>33.7834</ele>
        <time>2012-06-17T20:13:02Z</time>
      </trkpt>
      <trkpt lat="60.1437099" lon="19.9436397">
        <ele>33.7834</ele>
        <time>2012-06-17T20:13:07Z</time>
      </trkpt>
      <trkpt lat="60.1438934" lon="19.9437871">
        <ele>33.3029</ele>
        <time>2012-06-17T20:13:14Z</time>
      </trkpt>
      <trkpt lat="60.1440497" lon="19.9439473">
        <ele>31.8607</ele>
        <time>2012-06-17T20:13:20Z</time>
      </trkpt>
      <trkpt lat="60.1442285" lon="19.9441509">
        <ele>31.3801</ele>
        <time>2012-06-17T20:13:27Z</time>
      </trkpt>
      <trkpt lat="60.1443807" lon="19.9443175">
        <ele>30.4188</ele>
        <time>2012-06-17T20:13:33Z</time>
      </trkpt>
      <trkpt lat="60.1445685" lon="19.9444808">
        <ele>31.3801</ele>
        <time>2012-06-17T20:13:40Z</time>
      </trkpt>
      <trkpt lat="60.1447636" lon="19.9445777">
        <ele>31.8607</ele>
        <time>2012-06-17T20:13:47Z</time>
      </trkpt>
      <trkpt lat="60.1449845" lon="19.9446518">
        <ele>31.3801</ele>
        <time>2012-06-17T20:13:55Z</time>
      </trkpt>
      <trkpt lat="60.1451645" lon="19.9447039">
        <ele>30.4188</ele>
        <time>2012-06-17T20:14:01Z</time>
      </trkpt>
      <trkpt lat="60.1453292" lon="19.9447534">
        <ele>29.9381</ele>
        <time>2012-06-17T20:14:07Z</time>
      </trkpt>
      <trkpt lat="60.1454617" lon="19.9448004">
        <ele>29.4575</ele>
        <time>2012-06-17T20:14:12Z</time>
      </trkpt>
      <trkpt lat="60.1456284" lon="19.9448407">
        <ele>28.9769</ele>
        <time>2012-06-17T20:14:18Z</time>
      </trkpt>
      <trkpt lat="60.1457807" lon="19.9448822">
        <ele>28.9769</ele>
        <time>2012-06-17T20:14:24Z</time>
      </trkpt>
      <trkpt lat="60.1459653" lon="19.9449512">
        <ele>28.4962</ele>
        <time>2012-06-17T20:14:31Z</time>
      </trkpt>
      <trkpt lat="60.1461424" lon="19.9450139">
        <ele>29.9381</ele>
        <time>2012-06-17T20:14:37Z</time>
      </trkpt>
      <trkpt lat="60.1463129" lon="19.9450694">
        <ele>30.4188</ele>
        <time>2012-06-17T20:14:43Z</time>
      </trkpt>
      <trkpt lat="60.1465112" lon="19.9451417">
        <ele>30.8995</ele>
        <time>2012-06-17T20:14:50Z</time>
      </trkpt>
      <trkpt lat="60.1466746" lon="19.9452226">
        <ele>29.9381</ele>
        <time>2012-06-17T20:14:56Z</time>
      </trkpt>
      <trkpt lat="60.146803" lon="19.9452636">
        <ele>29.4575</ele>
        <time>2012-06-17T20:15:01Z</time>
      </trkpt>
      <trkpt lat="60.1469905" lon="19.945292">
        <ele>28.0155</ele>
        <time>2012-06-17T20:15:08Z</time>
      </trkpt>
      <trkpt lat="60.147171" lon="19.9452755">
        <ele>29.4575</ele>
        <time>2012-06-17T20:15:14Z</time>
      </trkpt>
      <trkpt lat="60.1473681" lon="19.945132">
        <ele>29.4575</ele>
        <time>2012-06-17T20:15:21Z</time>
      </trkpt>
      <trkpt lat="60.1475561" lon="19.9449642">
        <ele>28.0155</ele>
        <time>2012-06-17T20:15:28Z</time>
      </trkpt>
      <trkpt lat="60.1476709" lon="19.9447954">
        <ele>27.5349</ele>
        <time>2012-06-17T20:15:33Z</time>
      </trkpt>
      <trkpt lat="60.1478461" lon="19.9445408">
        <ele>28.9769</ele>
        <time>2012-06-17T20:15:40Z</time>
      </trkpt>
      <trkpt lat="60.1479911" lon="19.9444807">
        <ele>28.4962</ele>
        <time>2012-06-17T20:15:45Z</time>
      </trkpt>
      <trkpt lat="60.1481036" lon="19.9446115">
        <ele>27.0543</ele>
        <time>2012-06-17T20:15:50Z</time>
      </trkpt>
      <trkpt lat="60.1482021" lon="19.9448705">
        <ele>23.209</ele>
        <time>2012-06-17T20:15:56Z</time>
      </trkpt>
      <trkpt lat="60.1482725" lon="19.9451701">
        <ele>20.325</ele>
        <time>2012-06-17T20:16:02Z</time>
      </trkpt>
      <trkpt lat="60.14833" lon="19.9454864">
        <ele>18.8831</ele>
        <time>2012-06-17T20:16:08Z</time>
      </trkpt>
      <trkpt lat="60.1483978" lon="19.9458603">
        <ele>17.9218</ele>
        <time>2012-06-17T20:16:15Z</time>
      </trkpt>
      <trkpt lat="60.1484942" lon="19.9463504">
        <ele>18.4023</ele>
        <time>2012-06-17T20:16:24Z</time>
      </trkpt>
      <trkpt lat="60.1485609" lon="19.9466667">
        <ele>18.8831</ele>
        <time>2012-06-17T20:16:30Z</time>
      </trkpt>
      <trkpt lat="60.1486207" lon="19.9469839">
        <ele>18.8831</ele>
        <time>2012-06-17T20:16:36Z</time>
      </trkpt>
      <trkpt lat="60.1486837" lon="19.9472988">
        <ele>19.3638</ele>
        <time>2012-06-17T20:16:42Z</time>
      </trkpt>
      <trkpt lat="60.1487442" lon="19.9476023">
        <ele>19.8444</ele>
        <time>2012-06-17T20:16:48Z</time>
      </trkpt>
      <trkpt lat="60.1488013" lon="19.9478997">
        <ele>20.325</ele>
        <time>2012-06-17T20:16:54Z</time>
      </trkpt>
      <trkpt lat="60.1488687" lon="19.9482509">
        <ele>20.325</ele>
        <time>2012-06-17T20:17:01Z</time>
      </trkpt>
      <trkpt lat="60.1489227" lon="19.9485456">
        <ele>19.8444</ele>
        <time>2012-06-17T20:17:07Z</time>
      </trkpt>
      <trkpt lat="60.1489847" lon="19.9489027">
        <ele>18.8831</ele>
        <time>2012-06-17T20:17:14Z</time>
      </trkpt>
      <trkpt lat="60.1490013" lon="19.9491444">
        <ele>18.4023</ele>
        <time>2012-06-17T20:17:19Z</time>
      </trkpt>
      <trkpt lat="60.1489392" lon="19.9493465">
        <ele>20.325</ele>
        <time>2012-06-17T20:17:24Z</time>
      </trkpt>
      <trkpt lat="60.1488624" lon="19.9493796">
        <ele>23.209</ele>
        <time>2012-06-17T20:17:29Z</time>
      </trkpt>
      <trkpt lat="60.1487401" lon="19.9493895">
        <ele>26.0929</ele>
        <time>2012-06-17T20:17:35Z</time>
      </trkpt>
      <trkpt lat="60.1485678" lon="19.9494062">
        <ele>25.1317</ele>
        <time>2012-06-17T20:17:42Z</time>
      </trkpt>
      <trkpt lat="60.1484332" lon="19.9493999">
        <ele>25.6123</ele>
        <time>2012-06-17T20:17:47Z</time>
      </trkpt>
      <trkpt lat="60.1482643" lon="19.9494672">
        <ele>26.0929</ele>
        <time>2012-06-17T20:17:53Z</time>
      </trkpt>
      <trkpt lat="60.1481958" lon="19.9495512">
        <ele>26.0929</ele>
        <time>2012-06-17T20:17:56Z</time>
      </trkpt>
      <trkpt lat="60.1481149" lon="19.9499118">
        <ele>24.1703</ele>
        <time>2012-06-17T20:18:03Z</time>
      </trkpt>
      <trkpt lat="60.1480967" lon="19.9501946">
        <ele>27.0543</ele>
        <time>2012-06-17T20:18:08Z</time>
      </trkpt>
      <trkpt lat="60.1480965" lon="19.950493">
        <ele>31.3801</ele>
        <time>2012-06-17T20:18:13Z</time>
      </trkpt>
      <trkpt lat="60.1480902" lon="19.9508763">
        <ele>32.8223</ele>
        <time>2012-06-17T20:18:20Z</time>
      </trkpt>
      <trkpt lat="60.1480868" lon="19.9511834">
        <ele>35.2255</ele>
        <time>2012-06-17T20:18:26Z</time>
      </trkpt>
      <trkpt lat="60.1480689" lon="19.9512868">
        <ele>34.2642</ele>
        <time>2012-06-17T20:18:28Z</time>
      </trkpt>
      <trkpt lat="60.1481642" lon="19.9513632">
        <ele>36.6675</ele>
        <time>2012-06-17T20:18:33Z</time>
      </trkpt>
      <trkpt lat="60.1483088" lon="19.9513471">
        <ele>33.7834</ele>
        <time>2012-06-17T20:18:40Z</time>
      </trkpt>
      <trkpt lat="60.1483477" lon="19.9513472">
        <ele>32.3416</ele>
        <time>2012-06-17T20:18:42Z</time>
      </trkpt>
      <trkpt lat="60.1484946" lon="19.9512917">
        <ele>30.8995</ele>
        <time>2012-06-17T20:18:48Z</time>
      </trkpt>
      <trkpt lat="60.1486776" lon="19.9511788">
        <ele>31.8607</ele>
        <time>2012-06-17T20:18:54Z</time>
      </trkpt>
      <trkpt lat="60.1488146" lon="19.9510969">
        <ele>32.8223</ele>
        <time>2012-06-17T20:18:59Z</time>
      </trkpt>
      <trkpt lat="60.149009" lon="19.9509633">
        <ele>32.8223</ele>
        <time>2012-06-17T20:19:06Z</time>
      </trkpt>
      <trkpt lat="60.1491609" lon="19.9508387">
        <ele>32.8223</ele>
        <time>2012-06-17T20:19:12Z</time>
      </trkpt>
      <trkpt lat="60.1491824" lon="19.9508242">
        <ele>32.3416</ele>
        <time>2012-06-17T20:19:13Z</time>
      </trkpt>
      <trkpt lat="60.1493386" lon="19.9507225">
        <ele>30.8995</ele>
        <time>2012-06-17T20:19:19Z</time>
      </trkpt>
      <trkpt lat="60.1494718" lon="19.9506784">
        <ele>30.4188</ele>
        <time>2012-06-17T20:19:24Z</time>
      </trkpt>
      <trkpt lat="60.1496994" lon="19.9506017">
        <ele>29.4575</ele>
        <time>2012-06-17T20:19:32Z</time>
      </trkpt>
      <trkpt lat="60.1498733" lon="19.9505576">
        <ele>28.9769</ele>
        <time>2012-06-17T20:19:38Z</time>
      </trkpt>
      <trkpt lat="60.150083" lon="19.9505085">
        <ele>28.4962</ele>
        <time>2012-06-17T20:19:46Z</time>
      </trkpt>
      <trkpt lat="60.1502195" lon="19.9504844">
        <ele>28.4962</ele>
        <time>2012-06-17T20:19:51Z</time>
      </trkpt>
      <trkpt lat="60.1504516" lon="19.9504359">
        <ele>30.8995</ele>
        <time>2012-06-17T20:19:59Z</time>
      </trkpt>
    </trkseg>
  </trk>
</gpx>